<?xml version="1.0" encoding="UTF-8" standalone="no" ?>
<gpx xmlns="http://www.topografix.com/GPX/1/1" xmlns:xsi="http://www.w3.org/2001/XMLSchema-instance" xsi:schemaLocation="http://www.topografix.com/GPX/1/1 http://www.topografix.com/GPX/1/1/gpx.xsd" version="1.1" creator="VisuGPX - https://www.visugpx.com">
  <metadata>
    <name>2019-09-04 18:39:24</name>
    <desc><![CDATA[

]]></desc>
  </metadata>
  <trk>
    <name><![CDATA[2019-09-04 18:39:24]]></name>
    <trkseg>
      <trkpt lat="43.11729" lon="1.61482">
        <ele>279.47</ele>
        <time>2019-09-04T07:11:30Z</time>
      </trkpt>
      <trkpt lat="43.11732" lon="1.61456">
        <ele>280.53</ele>
        <time>2019-09-04T07:11:49Z</time>
      </trkpt>
      <trkpt lat="43.11728" lon="1.61434">
        <ele>281.56</ele>
        <time>2019-09-04T07:12:09Z</time>
      </trkpt>
      <trkpt lat="43.11728" lon="1.61414">
        <ele>282.89</ele>
        <time>2019-09-04T07:12:28Z</time>
      </trkpt>
      <trkpt lat="43.11727" lon="1.61384">
        <ele>283.53</ele>
        <time>2019-09-04T07:12:50Z</time>
      </trkpt>
      <trkpt lat="43.11723" lon="1.61355">
        <ele>283.48</ele>
        <time>2019-09-04T07:13:05Z</time>
      </trkpt>
      <trkpt lat="43.11722" lon="1.61346">
        <ele>283.8</ele>
        <time>2019-09-04T07:13:11Z</time>
      </trkpt>
      <trkpt lat="43.1172" lon="1.61315">
        <ele>283.56</ele>
        <time>2019-09-04T07:13:29Z</time>
      </trkpt>
      <trkpt lat="43.11718" lon="1.61285">
        <ele>282.89</ele>
        <time>2019-09-04T07:13:48Z</time>
      </trkpt>
      <trkpt lat="43.11715" lon="1.61254">
        <ele>282.62</ele>
        <time>2019-09-04T07:14:06Z</time>
      </trkpt>
      <trkpt lat="43.11717" lon="1.61234">
        <ele>282.12</ele>
        <time>2019-09-04T07:14:20Z</time>
      </trkpt>
      <trkpt lat="43.11714" lon="1.61201">
        <ele>281.4</ele>
        <time>2019-09-04T07:14:37Z</time>
      </trkpt>
      <trkpt lat="43.11708" lon="1.6119">
        <ele>280.97</ele>
        <time>2019-09-04T07:14:50Z</time>
      </trkpt>
      <trkpt lat="43.11681" lon="1.61189">
        <ele>281.45</ele>
        <time>2019-09-04T07:15:13Z</time>
      </trkpt>
      <trkpt lat="43.11662" lon="1.61186">
        <ele>281.62</ele>
        <time>2019-09-04T07:15:32Z</time>
      </trkpt>
      <trkpt lat="43.1166" lon="1.6117">
        <ele>281.57</ele>
        <time>2019-09-04T07:15:51Z</time>
      </trkpt>
      <trkpt lat="43.11639" lon="1.61158">
        <ele>282.3</ele>
        <time>2019-09-04T07:16:09Z</time>
      </trkpt>
      <trkpt lat="43.11639" lon="1.61154">
        <ele>282.11</ele>
        <time>2019-09-04T07:16:11Z</time>
      </trkpt>
      <trkpt lat="43.11641" lon="1.61143">
        <ele>281.72</ele>
        <time>2019-09-04T07:16:15Z</time>
      </trkpt>
      <trkpt lat="43.11643" lon="1.61125">
        <ele>281.67</ele>
        <time>2019-09-04T07:16:25Z</time>
      </trkpt>
      <trkpt lat="43.11622" lon="1.61097">
        <ele>281.44</ele>
        <time>2019-09-04T07:16:41Z</time>
      </trkpt>
      <trkpt lat="43.11613" lon="1.61076">
        <ele>282.22</ele>
        <time>2019-09-04T07:16:52Z</time>
      </trkpt>
      <trkpt lat="43.11617" lon="1.61054">
        <ele>281.93</ele>
        <time>2019-09-04T07:17:04Z</time>
      </trkpt>
      <trkpt lat="43.11624" lon="1.61035">
        <ele>281.83</ele>
        <time>2019-09-04T07:17:16Z</time>
      </trkpt>
      <trkpt lat="43.11629" lon="1.61014">
        <ele>281.37</ele>
        <time>2019-09-04T07:17:31Z</time>
      </trkpt>
      <trkpt lat="43.11622" lon="1.61002">
        <ele>280.66</ele>
        <time>2019-09-04T07:17:47Z</time>
      </trkpt>
      <trkpt lat="43.11622" lon="1.61003">
        <ele>280.63</ele>
        <time>2019-09-04T07:17:48Z</time>
      </trkpt>
      <trkpt lat="43.11621" lon="1.61004">
        <ele>280.62</ele>
        <time>2019-09-04T07:17:49Z</time>
      </trkpt>
      <trkpt lat="43.1162" lon="1.61005">
        <ele>280.61</ele>
        <time>2019-09-04T07:17:50Z</time>
      </trkpt>
      <trkpt lat="43.1161" lon="1.61022">
        <ele>281.11</ele>
        <time>2019-09-04T07:18:05Z</time>
      </trkpt>
      <trkpt lat="43.11607" lon="1.61026">
        <ele>281.32</ele>
        <time>2019-09-04T07:18:09Z</time>
      </trkpt>
      <trkpt lat="43.11606" lon="1.61025">
        <ele>281.47</ele>
        <time>2019-09-04T07:18:10Z</time>
      </trkpt>
      <trkpt lat="43.11603" lon="1.61024">
        <ele>281.61</ele>
        <time>2019-09-04T07:18:12Z</time>
      </trkpt>
      <trkpt lat="43.11601" lon="1.61023">
        <ele>281.65</ele>
        <time>2019-09-04T07:18:13Z</time>
      </trkpt>
      <trkpt lat="43.11586" lon="1.61015">
        <ele>282.47</ele>
        <time>2019-09-04T07:18:22Z</time>
      </trkpt>
      <trkpt lat="43.11569" lon="1.61">
        <ele>282.98</ele>
        <time>2019-09-04T07:18:36Z</time>
      </trkpt>
      <trkpt lat="43.11551" lon="1.60989">
        <ele>283.13</ele>
        <time>2019-09-04T07:18:54Z</time>
      </trkpt>
      <trkpt lat="43.11527" lon="1.60969">
        <ele>283.13</ele>
        <time>2019-09-04T07:19:16Z</time>
      </trkpt>
      <trkpt lat="43.11506" lon="1.60959">
        <ele>282.85</ele>
        <time>2019-09-04T07:19:34Z</time>
      </trkpt>
      <trkpt lat="43.1149" lon="1.60948">
        <ele>283.07</ele>
        <time>2019-09-04T07:19:47Z</time>
      </trkpt>
      <trkpt lat="43.11473" lon="1.60945">
        <ele>284.79</ele>
        <time>2019-09-04T07:20:01Z</time>
      </trkpt>
      <trkpt lat="43.11447" lon="1.60935">
        <ele>286.62</ele>
        <time>2019-09-04T07:20:23Z</time>
      </trkpt>
      <trkpt lat="43.11449" lon="1.60927">
        <ele>287.17</ele>
        <time>2019-09-04T07:20:26Z</time>
      </trkpt>
      <trkpt lat="43.11449" lon="1.60924">
        <ele>287.17</ele>
        <time>2019-09-04T07:20:27Z</time>
      </trkpt>
      <trkpt lat="43.1145" lon="1.60921">
        <ele>287.24</ele>
        <time>2019-09-04T07:20:28Z</time>
      </trkpt>
      <trkpt lat="43.11451" lon="1.60918">
        <ele>287.26</ele>
        <time>2019-09-04T07:20:29Z</time>
      </trkpt>
      <trkpt lat="43.11451" lon="1.60915">
        <ele>287.27</ele>
        <time>2019-09-04T07:20:30Z</time>
      </trkpt>
      <trkpt lat="43.11452" lon="1.60913">
        <ele>287.41</ele>
        <time>2019-09-04T07:20:31Z</time>
      </trkpt>
      <trkpt lat="43.11453" lon="1.60911">
        <ele>287.67</ele>
        <time>2019-09-04T07:20:32Z</time>
      </trkpt>
      <trkpt lat="43.11453" lon="1.60909">
        <ele>287.81</ele>
        <time>2019-09-04T07:20:33Z</time>
      </trkpt>
      <trkpt lat="43.11454" lon="1.60907">
        <ele>287.88</ele>
        <time>2019-09-04T07:20:34Z</time>
      </trkpt>
      <trkpt lat="43.11456" lon="1.60905">
        <ele>287.92</ele>
        <time>2019-09-04T07:20:35Z</time>
      </trkpt>
      <trkpt lat="43.11456" lon="1.60903">
        <ele>287.62</ele>
        <time>2019-09-04T07:20:36Z</time>
      </trkpt>
      <trkpt lat="43.11456" lon="1.609">
        <ele>287.31</ele>
        <time>2019-09-04T07:20:37Z</time>
      </trkpt>
      <trkpt lat="43.11456" lon="1.60898">
        <ele>287.17</ele>
        <time>2019-09-04T07:20:38Z</time>
      </trkpt>
      <trkpt lat="43.11457" lon="1.60896">
        <ele>287.09</ele>
        <time>2019-09-04T07:20:39Z</time>
      </trkpt>
      <trkpt lat="43.11457" lon="1.60894">
        <ele>287.08</ele>
        <time>2019-09-04T07:20:40Z</time>
      </trkpt>
      <trkpt lat="43.11455" lon="1.60884">
        <ele>287.47</ele>
        <time>2019-09-04T07:20:44Z</time>
      </trkpt>
      <trkpt lat="43.11452" lon="1.60856">
        <ele>288.24</ele>
        <time>2019-09-04T07:21:00Z</time>
      </trkpt>
      <trkpt lat="43.11456" lon="1.60852">
        <ele>287.22</ele>
        <time>2019-09-04T07:21:04Z</time>
      </trkpt>
      <trkpt lat="43.11457" lon="1.60851">
        <ele>287.06</ele>
        <time>2019-09-04T07:21:05Z</time>
      </trkpt>
      <trkpt lat="43.1146" lon="1.6084">
        <ele>286.61</ele>
        <time>2019-09-04T07:21:14Z</time>
      </trkpt>
      <trkpt lat="43.11458" lon="1.60826">
        <ele>286.33</ele>
        <time>2019-09-04T07:21:23Z</time>
      </trkpt>
      <trkpt lat="43.11458" lon="1.60824">
        <ele>286.24</ele>
        <time>2019-09-04T07:21:24Z</time>
      </trkpt>
      <trkpt lat="43.11457" lon="1.60823">
        <ele>286.19</ele>
        <time>2019-09-04T07:21:25Z</time>
      </trkpt>
      <trkpt lat="43.11461" lon="1.60813">
        <ele>285.92</ele>
        <time>2019-09-04T07:21:34Z</time>
      </trkpt>
      <trkpt lat="43.11464" lon="1.60808">
        <ele>286.31</ele>
        <time>2019-09-04T07:21:43Z</time>
      </trkpt>
      <trkpt lat="43.1147" lon="1.60796">
        <ele>284.85</ele>
        <time>2019-09-04T07:22:04Z</time>
      </trkpt>
      <trkpt lat="43.11476" lon="1.6078">
        <ele>282.4</ele>
        <time>2019-09-04T07:22:20Z</time>
      </trkpt>
      <trkpt lat="43.11494" lon="1.6075">
        <ele>280.27</ele>
        <time>2019-09-04T07:22:36Z</time>
      </trkpt>
      <trkpt lat="43.11492" lon="1.60748">
        <ele>280.09</ele>
        <time>2019-09-04T07:22:38Z</time>
      </trkpt>
      <trkpt lat="43.11476" lon="1.60733">
        <ele>279.84</ele>
        <time>2019-09-04T07:22:53Z</time>
      </trkpt>
      <trkpt lat="43.11471" lon="1.60726">
        <ele>280.26</ele>
        <time>2019-09-04T07:22:58Z</time>
      </trkpt>
      <trkpt lat="43.1147" lon="1.60724">
        <ele>280.21</ele>
        <time>2019-09-04T07:22:59Z</time>
      </trkpt>
      <trkpt lat="43.11458" lon="1.60706">
        <ele>279.9</ele>
        <time>2019-09-04T07:23:13Z</time>
      </trkpt>
      <trkpt lat="43.11454" lon="1.60681">
        <ele>279.98</ele>
        <time>2019-09-04T07:23:28Z</time>
      </trkpt>
      <trkpt lat="43.1145" lon="1.60656">
        <ele>280.39</ele>
        <time>2019-09-04T07:23:45Z</time>
      </trkpt>
      <trkpt lat="43.11436" lon="1.60635">
        <ele>280.68</ele>
        <time>2019-09-04T07:24:00Z</time>
      </trkpt>
      <trkpt lat="43.11394" lon="1.60613">
        <ele>281</ele>
        <time>2019-09-04T07:24:22Z</time>
      </trkpt>
      <trkpt lat="43.11388" lon="1.60612">
        <ele>281.02</ele>
        <time>2019-09-04T07:24:25Z</time>
      </trkpt>
      <trkpt lat="43.11372" lon="1.60604">
        <ele>281.19</ele>
        <time>2019-09-04T07:24:39Z</time>
      </trkpt>
      <trkpt lat="43.11365" lon="1.60599">
        <ele>281.2</ele>
        <time>2019-09-04T07:24:46Z</time>
      </trkpt>
      <trkpt lat="43.11363" lon="1.60598">
        <ele>281.2</ele>
        <time>2019-09-04T07:24:48Z</time>
      </trkpt>
      <trkpt lat="43.11361" lon="1.60593">
        <ele>281.2</ele>
        <time>2019-09-04T07:24:53Z</time>
      </trkpt>
      <trkpt lat="43.11364" lon="1.60577">
        <ele>281.21</ele>
        <time>2019-09-04T07:25:05Z</time>
      </trkpt>
      <trkpt lat="43.11363" lon="1.60576">
        <ele>281.21</ele>
        <time>2019-09-04T07:25:06Z</time>
      </trkpt>
      <trkpt lat="43.11362" lon="1.60576">
        <ele>281.19</ele>
        <time>2019-09-04T07:25:07Z</time>
      </trkpt>
      <trkpt lat="43.11361" lon="1.60576">
        <ele>281.17</ele>
        <time>2019-09-04T07:25:08Z</time>
      </trkpt>
      <trkpt lat="43.1136" lon="1.60575">
        <ele>281.12</ele>
        <time>2019-09-04T07:25:09Z</time>
      </trkpt>
      <trkpt lat="43.11359" lon="1.60573">
        <ele>281.03</ele>
        <time>2019-09-04T07:25:11Z</time>
      </trkpt>
      <trkpt lat="43.11359" lon="1.60572">
        <ele>280.97</ele>
        <time>2019-09-04T07:25:12Z</time>
      </trkpt>
      <trkpt lat="43.11352" lon="1.60546">
        <ele>280.64</ele>
        <time>2019-09-04T07:25:29Z</time>
      </trkpt>
      <trkpt lat="43.1134" lon="1.60516">
        <ele>280.62</ele>
        <time>2019-09-04T07:25:49Z</time>
      </trkpt>
      <trkpt lat="43.11332" lon="1.60491">
        <ele>280.51</ele>
        <time>2019-09-04T07:26:04Z</time>
      </trkpt>
      <trkpt lat="43.11323" lon="1.60462">
        <ele>280.15</ele>
        <time>2019-09-04T07:26:20Z</time>
      </trkpt>
      <trkpt lat="43.11312" lon="1.60434">
        <ele>279.95</ele>
        <time>2019-09-04T07:26:36Z</time>
      </trkpt>
      <trkpt lat="43.11304" lon="1.60404">
        <ele>280.52</ele>
        <time>2019-09-04T07:26:54Z</time>
      </trkpt>
      <trkpt lat="43.11303" lon="1.60402">
        <ele>280.57</ele>
        <time>2019-09-04T07:26:55Z</time>
      </trkpt>
      <trkpt lat="43.11302" lon="1.60401">
        <ele>280.49</ele>
        <time>2019-09-04T07:26:56Z</time>
      </trkpt>
      <trkpt lat="43.11301" lon="1.604">
        <ele>280.37</ele>
        <time>2019-09-04T07:26:57Z</time>
      </trkpt>
      <trkpt lat="43.113" lon="1.60399">
        <ele>280.24</ele>
        <time>2019-09-04T07:26:58Z</time>
      </trkpt>
      <trkpt lat="43.11288" lon="1.60371">
        <ele>280.65</ele>
        <time>2019-09-04T07:27:17Z</time>
      </trkpt>
      <trkpt lat="43.11281" lon="1.60344">
        <ele>281.84</ele>
        <time>2019-09-04T07:27:35Z</time>
      </trkpt>
      <trkpt lat="43.11271" lon="1.60325">
        <ele>282.85</ele>
        <time>2019-09-04T07:27:50Z</time>
      </trkpt>
      <trkpt lat="43.11262" lon="1.60306">
        <ele>283.67</ele>
        <time>2019-09-04T07:28:03Z</time>
      </trkpt>
      <trkpt lat="43.11257" lon="1.60293">
        <ele>284.33</ele>
        <time>2019-09-04T07:28:19Z</time>
      </trkpt>
      <trkpt lat="43.11256" lon="1.60292">
        <ele>284.96</ele>
        <time>2019-09-04T07:28:21Z</time>
      </trkpt>
      <trkpt lat="43.11256" lon="1.60289">
        <ele>285.17</ele>
        <time>2019-09-04T07:28:41Z</time>
      </trkpt>
      <trkpt lat="43.11251" lon="1.60281">
        <ele>285.17</ele>
        <time>2019-09-04T07:29:08Z</time>
      </trkpt>
      <trkpt lat="43.11246" lon="1.60269">
        <ele>287.81</ele>
        <time>2019-09-04T07:29:20Z</time>
      </trkpt>
      <trkpt lat="43.11237" lon="1.60249">
        <ele>290.58</ele>
        <time>2019-09-04T07:29:40Z</time>
      </trkpt>
      <trkpt lat="43.11231" lon="1.60228">
        <ele>293.63</ele>
        <time>2019-09-04T07:29:58Z</time>
      </trkpt>
      <trkpt lat="43.11219" lon="1.60221">
        <ele>295.66</ele>
        <time>2019-09-04T07:30:14Z</time>
      </trkpt>
      <trkpt lat="43.11218" lon="1.60222">
        <ele>295.73</ele>
        <time>2019-09-04T07:30:15Z</time>
      </trkpt>
      <trkpt lat="43.11217" lon="1.60222">
        <ele>295.79</ele>
        <time>2019-09-04T07:30:16Z</time>
      </trkpt>
      <trkpt lat="43.11215" lon="1.60222">
        <ele>295.89</ele>
        <time>2019-09-04T07:30:17Z</time>
      </trkpt>
      <trkpt lat="43.11191" lon="1.6022">
        <ele>296.05</ele>
        <time>2019-09-04T07:30:37Z</time>
      </trkpt>
      <trkpt lat="43.11189" lon="1.6022">
        <ele>296.05</ele>
        <time>2019-09-04T07:30:38Z</time>
      </trkpt>
      <trkpt lat="43.11166" lon="1.60204">
        <ele>296.27</ele>
        <time>2019-09-04T07:30:57Z</time>
      </trkpt>
      <trkpt lat="43.11144" lon="1.60197">
        <ele>297.19</ele>
        <time>2019-09-04T07:31:18Z</time>
      </trkpt>
      <trkpt lat="43.11141" lon="1.60194">
        <ele>297.46</ele>
        <time>2019-09-04T07:31:23Z</time>
      </trkpt>
      <trkpt lat="43.11128" lon="1.60191">
        <ele>298.33</ele>
        <time>2019-09-04T07:31:36Z</time>
      </trkpt>
      <trkpt lat="43.11114" lon="1.60186">
        <ele>299.5</ele>
        <time>2019-09-04T07:31:50Z</time>
      </trkpt>
      <trkpt lat="43.11109" lon="1.60184">
        <ele>299.84</ele>
        <time>2019-09-04T07:31:54Z</time>
      </trkpt>
      <trkpt lat="43.11101" lon="1.60179">
        <ele>300.47</ele>
        <time>2019-09-04T07:32:00Z</time>
      </trkpt>
      <trkpt lat="43.11095" lon="1.60176">
        <ele>300.73</ele>
        <time>2019-09-04T07:32:05Z</time>
      </trkpt>
      <trkpt lat="43.11087" lon="1.60172">
        <ele>300.86</ele>
        <time>2019-09-04T07:32:11Z</time>
      </trkpt>
      <trkpt lat="43.1108" lon="1.60166">
        <ele>300.81</ele>
        <time>2019-09-04T07:32:16Z</time>
      </trkpt>
      <trkpt lat="43.11078" lon="1.60165">
        <ele>300.73</ele>
        <time>2019-09-04T07:32:17Z</time>
      </trkpt>
      <trkpt lat="43.11065" lon="1.6016">
        <ele>299.06</ele>
        <time>2019-09-04T07:32:27Z</time>
      </trkpt>
      <trkpt lat="43.1106" lon="1.60159">
        <ele>297.9</ele>
        <time>2019-09-04T07:32:32Z</time>
      </trkpt>
      <trkpt lat="43.11059" lon="1.60159">
        <ele>297.63</ele>
        <time>2019-09-04T07:32:33Z</time>
      </trkpt>
      <trkpt lat="43.11056" lon="1.60159">
        <ele>297.21</ele>
        <time>2019-09-04T07:32:35Z</time>
      </trkpt>
      <trkpt lat="43.11052" lon="1.60157">
        <ele>296.49</ele>
        <time>2019-09-04T07:32:38Z</time>
      </trkpt>
      <trkpt lat="43.11038" lon="1.60156">
        <ele>296.53</ele>
        <time>2019-09-04T07:32:48Z</time>
      </trkpt>
      <trkpt lat="43.11037" lon="1.60155">
        <ele>296.48</ele>
        <time>2019-09-04T07:32:49Z</time>
      </trkpt>
      <trkpt lat="43.11036" lon="1.60155">
        <ele>296.42</ele>
        <time>2019-09-04T07:32:50Z</time>
      </trkpt>
      <trkpt lat="43.11035" lon="1.60154">
        <ele>296.18</ele>
        <time>2019-09-04T07:32:51Z</time>
      </trkpt>
      <trkpt lat="43.11033" lon="1.60153">
        <ele>295.88</ele>
        <time>2019-09-04T07:32:52Z</time>
      </trkpt>
      <trkpt lat="43.1103" lon="1.6015">
        <ele>295.17</ele>
        <time>2019-09-04T07:32:55Z</time>
      </trkpt>
      <trkpt lat="43.11027" lon="1.60148">
        <ele>294.81</ele>
        <time>2019-09-04T07:32:58Z</time>
      </trkpt>
      <trkpt lat="43.11025" lon="1.60147">
        <ele>294.71</ele>
        <time>2019-09-04T07:32:59Z</time>
      </trkpt>
      <trkpt lat="43.11024" lon="1.60146">
        <ele>294.63</ele>
        <time>2019-09-04T07:33:00Z</time>
      </trkpt>
      <trkpt lat="43.11019" lon="1.60139">
        <ele>294.46</ele>
        <time>2019-09-04T07:33:04Z</time>
      </trkpt>
      <trkpt lat="43.11016" lon="1.60138">
        <ele>294.39</ele>
        <time>2019-09-04T07:33:08Z</time>
      </trkpt>
      <trkpt lat="43.11015" lon="1.60136">
        <ele>294.37</ele>
        <time>2019-09-04T07:33:09Z</time>
      </trkpt>
      <trkpt lat="43.10999" lon="1.60127">
        <ele>294.16</ele>
        <time>2019-09-04T07:33:22Z</time>
      </trkpt>
      <trkpt lat="43.10995" lon="1.60125">
        <ele>294.05</ele>
        <time>2019-09-04T07:33:25Z</time>
      </trkpt>
      <trkpt lat="43.1097" lon="1.60118">
        <ele>293.72</ele>
        <time>2019-09-04T07:33:44Z</time>
      </trkpt>
      <trkpt lat="43.10945" lon="1.60128">
        <ele>293.28</ele>
        <time>2019-09-04T07:34:05Z</time>
      </trkpt>
      <trkpt lat="43.10931" lon="1.60129">
        <ele>293.41</ele>
        <time>2019-09-04T07:34:17Z</time>
      </trkpt>
      <trkpt lat="43.10926" lon="1.60129">
        <ele>293.8</ele>
        <time>2019-09-04T07:34:21Z</time>
      </trkpt>
      <trkpt lat="43.10924" lon="1.60128">
        <ele>293.89</ele>
        <time>2019-09-04T07:34:22Z</time>
      </trkpt>
      <trkpt lat="43.10923" lon="1.60127">
        <ele>294</ele>
        <time>2019-09-04T07:34:23Z</time>
      </trkpt>
      <trkpt lat="43.1091" lon="1.6012">
        <ele>295.25</ele>
        <time>2019-09-04T07:34:36Z</time>
      </trkpt>
      <trkpt lat="43.10892" lon="1.60118">
        <ele>296.38</ele>
        <time>2019-09-04T07:34:50Z</time>
      </trkpt>
      <trkpt lat="43.10882" lon="1.60118">
        <ele>296</ele>
        <time>2019-09-04T07:34:59Z</time>
      </trkpt>
      <trkpt lat="43.1088" lon="1.60118">
        <ele>295.98</ele>
        <time>2019-09-04T07:35:00Z</time>
      </trkpt>
      <trkpt lat="43.10879" lon="1.60118">
        <ele>295.97</ele>
        <time>2019-09-04T07:35:01Z</time>
      </trkpt>
      <trkpt lat="43.10866" lon="1.60122">
        <ele>296.23</ele>
        <time>2019-09-04T07:35:14Z</time>
      </trkpt>
      <trkpt lat="43.10863" lon="1.60124">
        <ele>296.24</ele>
        <time>2019-09-04T07:35:16Z</time>
      </trkpt>
      <trkpt lat="43.1085" lon="1.60138">
        <ele>296.37</ele>
        <time>2019-09-04T07:35:31Z</time>
      </trkpt>
      <trkpt lat="43.1084" lon="1.60158">
        <ele>296.37</ele>
        <time>2019-09-04T07:35:51Z</time>
      </trkpt>
      <trkpt lat="43.10825" lon="1.60173">
        <ele>296.37</ele>
        <time>2019-09-04T07:36:10Z</time>
      </trkpt>
      <trkpt lat="43.10813" lon="1.60186">
        <ele>296.37</ele>
        <time>2019-09-04T07:36:28Z</time>
      </trkpt>
      <trkpt lat="43.10791" lon="1.602">
        <ele>296.37</ele>
        <time>2019-09-04T07:36:47Z</time>
      </trkpt>
      <trkpt lat="43.10773" lon="1.60208">
        <ele>296.37</ele>
        <time>2019-09-04T07:37:05Z</time>
      </trkpt>
      <trkpt lat="43.10759" lon="1.60208">
        <ele>296.24</ele>
        <time>2019-09-04T07:37:14Z</time>
      </trkpt>
      <trkpt lat="43.10737" lon="1.60215">
        <ele>294.99</ele>
        <time>2019-09-04T07:37:32Z</time>
      </trkpt>
      <trkpt lat="43.10719" lon="1.60227">
        <ele>294.56</ele>
        <time>2019-09-04T07:37:50Z</time>
      </trkpt>
      <trkpt lat="43.10711" lon="1.60247">
        <ele>293.19</ele>
        <time>2019-09-04T07:38:05Z</time>
      </trkpt>
      <trkpt lat="43.10703" lon="1.60274">
        <ele>290.77</ele>
        <time>2019-09-04T07:38:22Z</time>
      </trkpt>
      <trkpt lat="43.10692" lon="1.60293">
        <ele>287.57</ele>
        <time>2019-09-04T07:38:36Z</time>
      </trkpt>
      <trkpt lat="43.10678" lon="1.60312">
        <ele>284.72</ele>
        <time>2019-09-04T07:38:51Z</time>
      </trkpt>
      <trkpt lat="43.10665" lon="1.60334">
        <ele>284.28</ele>
        <time>2019-09-04T07:39:06Z</time>
      </trkpt>
      <trkpt lat="43.10653" lon="1.60349">
        <ele>287.41</ele>
        <time>2019-09-04T07:39:25Z</time>
      </trkpt>
      <trkpt lat="43.10642" lon="1.60356">
        <ele>289.39</ele>
        <time>2019-09-04T07:39:36Z</time>
      </trkpt>
      <trkpt lat="43.10624" lon="1.60359">
        <ele>292.15</ele>
        <time>2019-09-04T07:39:54Z</time>
      </trkpt>
      <trkpt lat="43.10617" lon="1.60359">
        <ele>292.7</ele>
        <time>2019-09-04T07:39:59Z</time>
      </trkpt>
      <trkpt lat="43.10603" lon="1.60368">
        <ele>293.13</ele>
        <time>2019-09-04T07:40:10Z</time>
      </trkpt>
      <trkpt lat="43.1059" lon="1.60395">
        <ele>292.73</ele>
        <time>2019-09-04T07:40:29Z</time>
      </trkpt>
      <trkpt lat="43.10581" lon="1.60421">
        <ele>292.4</ele>
        <time>2019-09-04T07:40:46Z</time>
      </trkpt>
      <trkpt lat="43.10569" lon="1.60443">
        <ele>292.91</ele>
        <time>2019-09-04T07:41:03Z</time>
      </trkpt>
      <trkpt lat="43.10553" lon="1.60465">
        <ele>293.19</ele>
        <time>2019-09-04T07:41:20Z</time>
      </trkpt>
      <trkpt lat="43.1054" lon="1.60483">
        <ele>292.94</ele>
        <time>2019-09-04T07:41:36Z</time>
      </trkpt>
      <trkpt lat="43.10538" lon="1.60487">
        <ele>292.74</ele>
        <time>2019-09-04T07:41:40Z</time>
      </trkpt>
      <trkpt lat="43.10537" lon="1.60507">
        <ele>292.32</ele>
        <time>2019-09-04T07:41:51Z</time>
      </trkpt>
      <trkpt lat="43.10532" lon="1.60543">
        <ele>290.75</ele>
        <time>2019-09-04T07:42:10Z</time>
      </trkpt>
      <trkpt lat="43.10531" lon="1.6056">
        <ele>290.01</ele>
        <time>2019-09-04T07:42:20Z</time>
      </trkpt>
      <trkpt lat="43.1053" lon="1.60561">
        <ele>289.96</ele>
        <time>2019-09-04T07:42:21Z</time>
      </trkpt>
      <trkpt lat="43.10528" lon="1.6058">
        <ele>289.02</ele>
        <time>2019-09-04T07:42:34Z</time>
      </trkpt>
      <trkpt lat="43.10527" lon="1.60587">
        <ele>288.59</ele>
        <time>2019-09-04T07:42:38Z</time>
      </trkpt>
      <trkpt lat="43.1052" lon="1.60616">
        <ele>286.11</ele>
        <time>2019-09-04T07:42:54Z</time>
      </trkpt>
      <trkpt lat="43.10513" lon="1.60649">
        <ele>285.02</ele>
        <time>2019-09-04T07:43:13Z</time>
      </trkpt>
      <trkpt lat="43.10507" lon="1.6068">
        <ele>284.86</ele>
        <time>2019-09-04T07:43:31Z</time>
      </trkpt>
      <trkpt lat="43.10503" lon="1.60708">
        <ele>284.63</ele>
        <time>2019-09-04T07:43:46Z</time>
      </trkpt>
      <trkpt lat="43.10503" lon="1.6071">
        <ele>284.62</ele>
        <time>2019-09-04T07:43:47Z</time>
      </trkpt>
      <trkpt lat="43.10503" lon="1.60712">
        <ele>284.61</ele>
        <time>2019-09-04T07:43:48Z</time>
      </trkpt>
      <trkpt lat="43.10502" lon="1.60714">
        <ele>284.61</ele>
        <time>2019-09-04T07:43:49Z</time>
      </trkpt>
      <trkpt lat="43.10501" lon="1.60739">
        <ele>284.71</ele>
        <time>2019-09-04T07:44:04Z</time>
      </trkpt>
      <trkpt lat="43.10501" lon="1.60742">
        <ele>284.74</ele>
        <time>2019-09-04T07:44:06Z</time>
      </trkpt>
      <trkpt lat="43.10499" lon="1.60756">
        <ele>284.76</ele>
        <time>2019-09-04T07:44:14Z</time>
      </trkpt>
      <trkpt lat="43.10495" lon="1.60786">
        <ele>284.77</ele>
        <time>2019-09-04T07:44:32Z</time>
      </trkpt>
      <trkpt lat="43.10494" lon="1.60812">
        <ele>284.81</ele>
        <time>2019-09-04T07:44:47Z</time>
      </trkpt>
      <trkpt lat="43.10492" lon="1.60833">
        <ele>285.13</ele>
        <time>2019-09-04T07:45:00Z</time>
      </trkpt>
      <trkpt lat="43.10487" lon="1.60864">
        <ele>285.87</ele>
        <time>2019-09-04T07:45:16Z</time>
      </trkpt>
      <trkpt lat="43.10488" lon="1.60884">
        <ele>286.2</ele>
        <time>2019-09-04T07:45:29Z</time>
      </trkpt>
      <trkpt lat="43.10492" lon="1.60909">
        <ele>286.42</ele>
        <time>2019-09-04T07:45:44Z</time>
      </trkpt>
      <trkpt lat="43.10494" lon="1.60939">
        <ele>286.62</ele>
        <time>2019-09-04T07:46:01Z</time>
      </trkpt>
      <trkpt lat="43.10495" lon="1.60965">
        <ele>287.03</ele>
        <time>2019-09-04T07:46:16Z</time>
      </trkpt>
      <trkpt lat="43.10496" lon="1.60991">
        <ele>286.93</ele>
        <time>2019-09-04T07:46:33Z</time>
      </trkpt>
      <trkpt lat="43.10499" lon="1.61019">
        <ele>287</ele>
        <time>2019-09-04T07:46:50Z</time>
      </trkpt>
      <trkpt lat="43.10502" lon="1.61048">
        <ele>287.32</ele>
        <time>2019-09-04T07:47:07Z</time>
      </trkpt>
      <trkpt lat="43.10502" lon="1.61062">
        <ele>288.38</ele>
        <time>2019-09-04T07:47:26Z</time>
      </trkpt>
      <trkpt lat="43.10499" lon="1.6107">
        <ele>288.44</ele>
        <time>2019-09-04T07:47:58Z</time>
      </trkpt>
      <trkpt lat="43.10497" lon="1.61077">
        <ele>288.29</ele>
        <time>2019-09-04T07:48:03Z</time>
      </trkpt>
      <trkpt lat="43.10494" lon="1.61089">
        <ele>287.92</ele>
        <time>2019-09-04T07:48:19Z</time>
      </trkpt>
      <trkpt lat="43.10494" lon="1.61087">
        <ele>288.11</ele>
        <time>2019-09-04T07:48:37Z</time>
      </trkpt>
      <trkpt lat="43.10495" lon="1.61087">
        <ele>288.13</ele>
        <time>2019-09-04T07:48:41Z</time>
      </trkpt>
      <trkpt lat="43.10498" lon="1.61085">
        <ele>288.18</ele>
        <time>2019-09-04T07:48:48Z</time>
      </trkpt>
      <trkpt lat="43.10499" lon="1.61088">
        <ele>288.34</ele>
        <time>2019-09-04T07:48:53Z</time>
      </trkpt>
      <trkpt lat="43.10503" lon="1.61115">
        <ele>288.1</ele>
        <time>2019-09-04T07:49:10Z</time>
      </trkpt>
      <trkpt lat="43.10503" lon="1.6112">
        <ele>288.04</ele>
        <time>2019-09-04T07:49:19Z</time>
      </trkpt>
      <trkpt lat="43.1049" lon="1.61128">
        <ele>287.8</ele>
        <time>2019-09-04T07:49:32Z</time>
      </trkpt>
      <trkpt lat="43.10488" lon="1.61148">
        <ele>287.44</ele>
        <time>2019-09-04T07:49:42Z</time>
      </trkpt>
      <trkpt lat="43.10488" lon="1.61155">
        <ele>287.67</ele>
        <time>2019-09-04T07:49:46Z</time>
      </trkpt>
      <trkpt lat="43.10487" lon="1.61187">
        <ele>287.99</ele>
        <time>2019-09-04T07:50:05Z</time>
      </trkpt>
      <trkpt lat="43.10487" lon="1.61218">
        <ele>287.74</ele>
        <time>2019-09-04T07:50:23Z</time>
      </trkpt>
      <trkpt lat="43.10487" lon="1.61223">
        <ele>287.75</ele>
        <time>2019-09-04T07:50:26Z</time>
      </trkpt>
      <trkpt lat="43.10487" lon="1.61238">
        <ele>288.03</ele>
        <time>2019-09-04T07:50:35Z</time>
      </trkpt>
      <trkpt lat="43.10487" lon="1.61255">
        <ele>288.34</ele>
        <time>2019-09-04T07:50:46Z</time>
      </trkpt>
      <trkpt lat="43.10485" lon="1.61269">
        <ele>288.7</ele>
        <time>2019-09-04T07:50:55Z</time>
      </trkpt>
      <trkpt lat="43.10482" lon="1.6128">
        <ele>288.66</ele>
        <time>2019-09-04T07:51:03Z</time>
      </trkpt>
      <trkpt lat="43.10454" lon="1.613">
        <ele>288.52</ele>
        <time>2019-09-04T07:51:29Z</time>
      </trkpt>
      <trkpt lat="43.1045" lon="1.61304">
        <ele>288.52</ele>
        <time>2019-09-04T07:51:33Z</time>
      </trkpt>
      <trkpt lat="43.10443" lon="1.6131">
        <ele>288.62</ele>
        <time>2019-09-04T07:51:41Z</time>
      </trkpt>
      <trkpt lat="43.10442" lon="1.61315">
        <ele>288.67</ele>
        <time>2019-09-04T07:51:44Z</time>
      </trkpt>
      <trkpt lat="43.10426" lon="1.61333">
        <ele>288.6</ele>
        <time>2019-09-04T07:52:01Z</time>
      </trkpt>
      <trkpt lat="43.1041" lon="1.61363">
        <ele>288.74</ele>
        <time>2019-09-04T07:52:22Z</time>
      </trkpt>
      <trkpt lat="43.10401" lon="1.61376">
        <ele>288.99</ele>
        <time>2019-09-04T07:52:33Z</time>
      </trkpt>
      <trkpt lat="43.10391" lon="1.61372">
        <ele>289.29</ele>
        <time>2019-09-04T07:52:46Z</time>
      </trkpt>
      <trkpt lat="43.10386" lon="1.61364">
        <ele>289.44</ele>
        <time>2019-09-04T07:52:52Z</time>
      </trkpt>
      <trkpt lat="43.10381" lon="1.61353">
        <ele>289.47</ele>
        <time>2019-09-04T07:53:00Z</time>
      </trkpt>
      <trkpt lat="43.10374" lon="1.61344">
        <ele>289.5</ele>
        <time>2019-09-04T07:53:06Z</time>
      </trkpt>
      <trkpt lat="43.10371" lon="1.61338">
        <ele>289.55</ele>
        <time>2019-09-04T07:53:11Z</time>
      </trkpt>
      <trkpt lat="43.10365" lon="1.61329">
        <ele>289.56</ele>
        <time>2019-09-04T07:53:18Z</time>
      </trkpt>
      <trkpt lat="43.10357" lon="1.61319">
        <ele>289.61</ele>
        <time>2019-09-04T07:53:27Z</time>
      </trkpt>
      <trkpt lat="43.1035" lon="1.61311">
        <ele>289.57</ele>
        <time>2019-09-04T07:53:34Z</time>
      </trkpt>
      <trkpt lat="43.10345" lon="1.61304">
        <ele>289.47</ele>
        <time>2019-09-04T07:53:42Z</time>
      </trkpt>
      <trkpt lat="43.10335" lon="1.61291">
        <ele>289.6</ele>
        <time>2019-09-04T07:53:54Z</time>
      </trkpt>
      <trkpt lat="43.10324" lon="1.61282">
        <ele>289.62</ele>
        <time>2019-09-04T07:54:05Z</time>
      </trkpt>
      <trkpt lat="43.10311" lon="1.6127">
        <ele>289.91</ele>
        <time>2019-09-04T07:54:22Z</time>
      </trkpt>
      <trkpt lat="43.10303" lon="1.61262">
        <ele>290.07</ele>
        <time>2019-09-04T07:54:40Z</time>
      </trkpt>
      <trkpt lat="43.10302" lon="1.61262">
        <ele>290.08</ele>
        <time>2019-09-04T07:54:41Z</time>
      </trkpt>
      <trkpt lat="43.10282" lon="1.61246">
        <ele>291.27</ele>
        <time>2019-09-04T07:54:55Z</time>
      </trkpt>
      <trkpt lat="43.10262" lon="1.61232">
        <ele>290.72</ele>
        <time>2019-09-04T07:55:13Z</time>
      </trkpt>
      <trkpt lat="43.10241" lon="1.61216">
        <ele>291.19</ele>
        <time>2019-09-04T07:55:30Z</time>
      </trkpt>
      <trkpt lat="43.10223" lon="1.61201">
        <ele>291.7</ele>
        <time>2019-09-04T07:55:47Z</time>
      </trkpt>
      <trkpt lat="43.10207" lon="1.61187">
        <ele>292.05</ele>
        <time>2019-09-04T07:56:05Z</time>
      </trkpt>
      <trkpt lat="43.10198" lon="1.61179">
        <ele>292.26</ele>
        <time>2019-09-04T07:56:17Z</time>
      </trkpt>
      <trkpt lat="43.10188" lon="1.6117">
        <ele>292.47</ele>
        <time>2019-09-04T07:56:29Z</time>
      </trkpt>
      <trkpt lat="43.10169" lon="1.61154">
        <ele>293.05</ele>
        <time>2019-09-04T07:56:47Z</time>
      </trkpt>
      <trkpt lat="43.10156" lon="1.61143">
        <ele>293.55</ele>
        <time>2019-09-04T07:57:01Z</time>
      </trkpt>
      <trkpt lat="43.1014" lon="1.61131">
        <ele>294.43</ele>
        <time>2019-09-04T07:57:19Z</time>
      </trkpt>
      <trkpt lat="43.1013" lon="1.61122">
        <ele>295.19</ele>
        <time>2019-09-04T07:57:35Z</time>
      </trkpt>
      <trkpt lat="43.10114" lon="1.6111">
        <ele>296.19</ele>
        <time>2019-09-04T07:57:51Z</time>
      </trkpt>
      <trkpt lat="43.10107" lon="1.61104">
        <ele>296.85</ele>
        <time>2019-09-04T07:57:58Z</time>
      </trkpt>
      <trkpt lat="43.10089" lon="1.6109">
        <ele>299.05</ele>
        <time>2019-09-04T07:58:16Z</time>
      </trkpt>
      <trkpt lat="43.10075" lon="1.61076">
        <ele>300.67</ele>
        <time>2019-09-04T07:58:34Z</time>
      </trkpt>
      <trkpt lat="43.10059" lon="1.6107">
        <ele>302.39</ele>
        <time>2019-09-04T07:58:49Z</time>
      </trkpt>
      <trkpt lat="43.10042" lon="1.61062">
        <ele>304.64</ele>
        <time>2019-09-04T07:59:08Z</time>
      </trkpt>
      <trkpt lat="43.10033" lon="1.6104">
        <ele>307.72</ele>
        <time>2019-09-04T07:59:29Z</time>
      </trkpt>
      <trkpt lat="43.10032" lon="1.61015">
        <ele>310.79</ele>
        <time>2019-09-04T07:59:48Z</time>
      </trkpt>
      <trkpt lat="43.10034" lon="1.60998">
        <ele>313.46</ele>
        <time>2019-09-04T08:00:04Z</time>
      </trkpt>
      <trkpt lat="43.10034" lon="1.60983">
        <ele>315.77</ele>
        <time>2019-09-04T08:00:19Z</time>
      </trkpt>
      <trkpt lat="43.10037" lon="1.60966">
        <ele>318.56</ele>
        <time>2019-09-04T08:00:36Z</time>
      </trkpt>
      <trkpt lat="43.10042" lon="1.60937">
        <ele>321.73</ele>
        <time>2019-09-04T08:00:58Z</time>
      </trkpt>
      <trkpt lat="43.10036" lon="1.6092">
        <ele>324.83</ele>
        <time>2019-09-04T08:01:16Z</time>
      </trkpt>
      <trkpt lat="43.10029" lon="1.60906">
        <ele>327.98</ele>
        <time>2019-09-04T08:01:33Z</time>
      </trkpt>
      <trkpt lat="43.10025" lon="1.609">
        <ele>331.35</ele>
        <time>2019-09-04T08:01:51Z</time>
      </trkpt>
      <trkpt lat="43.1002" lon="1.60893">
        <ele>334.49</ele>
        <time>2019-09-04T08:02:07Z</time>
      </trkpt>
      <trkpt lat="43.10013" lon="1.60868">
        <ele>337.48</ele>
        <time>2019-09-04T08:02:27Z</time>
      </trkpt>
      <trkpt lat="43.09996" lon="1.60872">
        <ele>339.88</ele>
        <time>2019-09-04T08:02:49Z</time>
      </trkpt>
      <trkpt lat="43.09992" lon="1.60876">
        <ele>340.33</ele>
        <time>2019-09-04T08:02:57Z</time>
      </trkpt>
      <trkpt lat="43.09986" lon="1.60891">
        <ele>343.28</ele>
        <time>2019-09-04T08:03:16Z</time>
      </trkpt>
      <trkpt lat="43.09983" lon="1.60895">
        <ele>345.89</ele>
        <time>2019-09-04T08:03:40Z</time>
      </trkpt>
      <trkpt lat="43.09981" lon="1.60902">
        <ele>346.59</ele>
        <time>2019-09-04T08:04:03Z</time>
      </trkpt>
      <trkpt lat="43.09974" lon="1.60903">
        <ele>349.63</ele>
        <time>2019-09-04T08:04:18Z</time>
      </trkpt>
      <trkpt lat="43.09966" lon="1.60904">
        <ele>352.76</ele>
        <time>2019-09-04T08:04:34Z</time>
      </trkpt>
      <trkpt lat="43.09953" lon="1.60905">
        <ele>356.04</ele>
        <time>2019-09-04T08:04:52Z</time>
      </trkpt>
      <trkpt lat="43.09943" lon="1.60898">
        <ele>358.54</ele>
        <time>2019-09-04T08:05:11Z</time>
      </trkpt>
      <trkpt lat="43.09928" lon="1.60883">
        <ele>361.5</ele>
        <time>2019-09-04T08:05:32Z</time>
      </trkpt>
      <trkpt lat="43.0992" lon="1.60882">
        <ele>362.49</ele>
        <time>2019-09-04T08:05:39Z</time>
      </trkpt>
      <trkpt lat="43.0991" lon="1.60889">
        <ele>365.75</ele>
        <time>2019-09-04T08:05:58Z</time>
      </trkpt>
      <trkpt lat="43.09894" lon="1.60882">
        <ele>367.83</ele>
        <time>2019-09-04T08:06:16Z</time>
      </trkpt>
      <trkpt lat="43.09884" lon="1.6088">
        <ele>365.01</ele>
        <time>2019-09-04T08:06:32Z</time>
      </trkpt>
      <trkpt lat="43.0986" lon="1.60872">
        <ele>365.79</ele>
        <time>2019-09-04T08:06:53Z</time>
      </trkpt>
      <trkpt lat="43.09843" lon="1.60868">
        <ele>367.43</ele>
        <time>2019-09-04T08:07:11Z</time>
      </trkpt>
      <trkpt lat="43.09827" lon="1.60876">
        <ele>369.21</ele>
        <time>2019-09-04T08:07:29Z</time>
      </trkpt>
      <trkpt lat="43.09819" lon="1.60896">
        <ele>368.28</ele>
        <time>2019-09-04T08:07:49Z</time>
      </trkpt>
      <trkpt lat="43.09813" lon="1.60918">
        <ele>368.18</ele>
        <time>2019-09-04T08:08:05Z</time>
      </trkpt>
      <trkpt lat="43.09808" lon="1.60943">
        <ele>367.82</ele>
        <time>2019-09-04T08:08:24Z</time>
      </trkpt>
      <trkpt lat="43.09796" lon="1.60962">
        <ele>370.29</ele>
        <time>2019-09-04T08:08:42Z</time>
      </trkpt>
      <trkpt lat="43.09791" lon="1.60967">
        <ele>371.52</ele>
        <time>2019-09-04T08:08:50Z</time>
      </trkpt>
      <trkpt lat="43.09782" lon="1.6097">
        <ele>374.74</ele>
        <time>2019-09-04T08:09:08Z</time>
      </trkpt>
      <trkpt lat="43.09777" lon="1.60967">
        <ele>377.82</ele>
        <time>2019-09-04T08:09:23Z</time>
      </trkpt>
      <trkpt lat="43.0976" lon="1.60973">
        <ele>380.16</ele>
        <time>2019-09-04T08:09:40Z</time>
      </trkpt>
      <trkpt lat="43.09751" lon="1.60978">
        <ele>382.92</ele>
        <time>2019-09-04T08:10:00Z</time>
      </trkpt>
      <trkpt lat="43.0975" lon="1.60966">
        <ele>385.39</ele>
        <time>2019-09-04T08:10:18Z</time>
      </trkpt>
      <trkpt lat="43.09743" lon="1.60949">
        <ele>387.51</ele>
        <time>2019-09-04T08:10:33Z</time>
      </trkpt>
      <trkpt lat="43.09723" lon="1.6093">
        <ele>390.13</ele>
        <time>2019-09-04T08:10:56Z</time>
      </trkpt>
      <trkpt lat="43.09702" lon="1.60922">
        <ele>392.02</ele>
        <time>2019-09-04T08:11:16Z</time>
      </trkpt>
      <trkpt lat="43.09693" lon="1.60911">
        <ele>395.16</ele>
        <time>2019-09-04T08:11:35Z</time>
      </trkpt>
      <trkpt lat="43.09687" lon="1.60895">
        <ele>398.19</ele>
        <time>2019-09-04T08:11:51Z</time>
      </trkpt>
      <trkpt lat="43.09667" lon="1.60884">
        <ele>400.74</ele>
        <time>2019-09-04T08:12:10Z</time>
      </trkpt>
      <trkpt lat="43.09647" lon="1.60891">
        <ele>402.68</ele>
        <time>2019-09-04T08:12:31Z</time>
      </trkpt>
      <trkpt lat="43.09629" lon="1.60892">
        <ele>405.8</ele>
        <time>2019-09-04T08:12:53Z</time>
      </trkpt>
      <trkpt lat="43.09622" lon="1.60883">
        <ele>408.93</ele>
        <time>2019-09-04T08:13:10Z</time>
      </trkpt>
      <trkpt lat="43.09619" lon="1.6087">
        <ele>411.94</ele>
        <time>2019-09-04T08:13:25Z</time>
      </trkpt>
      <trkpt lat="43.09617" lon="1.60851">
        <ele>415.09</ele>
        <time>2019-09-04T08:13:42Z</time>
      </trkpt>
      <trkpt lat="43.09615" lon="1.60826">
        <ele>417.91</ele>
        <time>2019-09-04T08:14:01Z</time>
      </trkpt>
      <trkpt lat="43.09626" lon="1.60812">
        <ele>420.42</ele>
        <time>2019-09-04T08:14:19Z</time>
      </trkpt>
      <trkpt lat="43.09635" lon="1.6079">
        <ele>423.53</ele>
        <time>2019-09-04T08:14:38Z</time>
      </trkpt>
      <trkpt lat="43.09637" lon="1.60775">
        <ele>426.65</ele>
        <time>2019-09-04T08:14:57Z</time>
      </trkpt>
      <trkpt lat="43.09637" lon="1.60758">
        <ele>429.77</ele>
        <time>2019-09-04T08:15:15Z</time>
      </trkpt>
      <trkpt lat="43.09634" lon="1.60741">
        <ele>432.86</ele>
        <time>2019-09-04T08:15:32Z</time>
      </trkpt>
      <trkpt lat="43.09631" lon="1.60724">
        <ele>435.99</ele>
        <time>2019-09-04T08:15:50Z</time>
      </trkpt>
      <trkpt lat="43.0963" lon="1.60717">
        <ele>437.83</ele>
        <time>2019-09-04T08:16:11Z</time>
      </trkpt>
      <trkpt lat="43.0963" lon="1.60711">
        <ele>438.8</ele>
        <time>2019-09-04T08:16:42Z</time>
      </trkpt>
      <trkpt lat="43.09625" lon="1.60698">
        <ele>441.83</ele>
        <time>2019-09-04T08:16:58Z</time>
      </trkpt>
      <trkpt lat="43.09617" lon="1.60687">
        <ele>444.98</ele>
        <time>2019-09-04T08:17:14Z</time>
      </trkpt>
      <trkpt lat="43.09605" lon="1.60682">
        <ele>448</ele>
        <time>2019-09-04T08:17:31Z</time>
      </trkpt>
      <trkpt lat="43.09583" lon="1.60675">
        <ele>449.07</ele>
        <time>2019-09-04T08:17:50Z</time>
      </trkpt>
      <trkpt lat="43.09577" lon="1.60673">
        <ele>448.61</ele>
        <time>2019-09-04T08:17:55Z</time>
      </trkpt>
      <trkpt lat="43.09559" lon="1.60668">
        <ele>447.9</ele>
        <time>2019-09-04T08:18:11Z</time>
      </trkpt>
      <trkpt lat="43.09544" lon="1.60654">
        <ele>447.26</ele>
        <time>2019-09-04T08:18:29Z</time>
      </trkpt>
      <trkpt lat="43.09517" lon="1.60648">
        <ele>446.56</ele>
        <time>2019-09-04T08:18:47Z</time>
      </trkpt>
      <trkpt lat="43.09499" lon="1.60646">
        <ele>445.31</ele>
        <time>2019-09-04T08:19:04Z</time>
      </trkpt>
      <trkpt lat="43.0949" lon="1.60638">
        <ele>445.17</ele>
        <time>2019-09-04T08:19:10Z</time>
      </trkpt>
      <trkpt lat="43.09488" lon="1.60637">
        <ele>445.16</ele>
        <time>2019-09-04T08:19:11Z</time>
      </trkpt>
      <trkpt lat="43.09478" lon="1.60617">
        <ele>445.99</ele>
        <time>2019-09-04T08:19:27Z</time>
      </trkpt>
      <trkpt lat="43.0947" lon="1.606">
        <ele>448</ele>
        <time>2019-09-04T08:19:45Z</time>
      </trkpt>
      <trkpt lat="43.09463" lon="1.60592">
        <ele>448.59</ele>
        <time>2019-09-04T08:19:51Z</time>
      </trkpt>
      <trkpt lat="43.09446" lon="1.60573">
        <ele>449.55</ele>
        <time>2019-09-04T08:20:10Z</time>
      </trkpt>
      <trkpt lat="43.09436" lon="1.60567">
        <ele>449.81</ele>
        <time>2019-09-04T08:20:28Z</time>
      </trkpt>
      <trkpt lat="43.09412" lon="1.60538">
        <ele>449.86</ele>
        <time>2019-09-04T08:20:42Z</time>
      </trkpt>
      <trkpt lat="43.094" lon="1.60517">
        <ele>450.45</ele>
        <time>2019-09-04T08:20:54Z</time>
      </trkpt>
      <trkpt lat="43.09395" lon="1.60492">
        <ele>451.59</ele>
        <time>2019-09-04T08:21:10Z</time>
      </trkpt>
      <trkpt lat="43.09393" lon="1.60469">
        <ele>452.86</ele>
        <time>2019-09-04T08:21:25Z</time>
      </trkpt>
      <trkpt lat="43.0939" lon="1.6045">
        <ele>453.62</ele>
        <time>2019-09-04T08:21:41Z</time>
      </trkpt>
      <trkpt lat="43.0938" lon="1.60424">
        <ele>453.78</ele>
        <time>2019-09-04T08:21:59Z</time>
      </trkpt>
      <trkpt lat="43.09374" lon="1.60419">
        <ele>453.39</ele>
        <time>2019-09-04T08:22:04Z</time>
      </trkpt>
      <trkpt lat="43.09365" lon="1.60413">
        <ele>452.65</ele>
        <time>2019-09-04T08:22:12Z</time>
      </trkpt>
      <trkpt lat="43.09344" lon="1.60402">
        <ele>450.59</ele>
        <time>2019-09-04T08:22:28Z</time>
      </trkpt>
      <trkpt lat="43.09326" lon="1.60397">
        <ele>448.41</ele>
        <time>2019-09-04T08:22:43Z</time>
      </trkpt>
      <trkpt lat="43.09307" lon="1.6039">
        <ele>446.68</ele>
        <time>2019-09-04T08:23:03Z</time>
      </trkpt>
      <trkpt lat="43.0928" lon="1.60373">
        <ele>446.08</ele>
        <time>2019-09-04T08:23:20Z</time>
      </trkpt>
      <trkpt lat="43.09259" lon="1.60358">
        <ele>445.37</ele>
        <time>2019-09-04T08:23:38Z</time>
      </trkpt>
      <trkpt lat="43.09252" lon="1.60353">
        <ele>444.69</ele>
        <time>2019-09-04T08:23:44Z</time>
      </trkpt>
      <trkpt lat="43.09237" lon="1.60339">
        <ele>444.47</ele>
        <time>2019-09-04T08:23:57Z</time>
      </trkpt>
      <trkpt lat="43.09222" lon="1.60325">
        <ele>444.27</ele>
        <time>2019-09-04T08:24:13Z</time>
      </trkpt>
      <trkpt lat="43.09203" lon="1.60304">
        <ele>443.09</ele>
        <time>2019-09-04T08:24:32Z</time>
      </trkpt>
      <trkpt lat="43.09191" lon="1.60294">
        <ele>442.98</ele>
        <time>2019-09-04T08:24:52Z</time>
      </trkpt>
      <trkpt lat="43.09171" lon="1.60279">
        <ele>444.01</ele>
        <time>2019-09-04T08:25:11Z</time>
      </trkpt>
      <trkpt lat="43.09139" lon="1.60253">
        <ele>444.11</ele>
        <time>2019-09-04T08:25:28Z</time>
      </trkpt>
      <trkpt lat="43.09123" lon="1.60247">
        <ele>444.14</ele>
        <time>2019-09-04T08:25:41Z</time>
      </trkpt>
      <trkpt lat="43.091" lon="1.60235">
        <ele>444.28</ele>
        <time>2019-09-04T08:25:58Z</time>
      </trkpt>
      <trkpt lat="43.09084" lon="1.60228">
        <ele>444.89</ele>
        <time>2019-09-04T08:26:11Z</time>
      </trkpt>
      <trkpt lat="43.0907" lon="1.60218">
        <ele>445.94</ele>
        <time>2019-09-04T08:26:27Z</time>
      </trkpt>
      <trkpt lat="43.09059" lon="1.60208">
        <ele>445.26</ele>
        <time>2019-09-04T08:26:47Z</time>
      </trkpt>
      <trkpt lat="43.09034" lon="1.60175">
        <ele>444.86</ele>
        <time>2019-09-04T08:27:09Z</time>
      </trkpt>
      <trkpt lat="43.09023" lon="1.60153">
        <ele>445.1</ele>
        <time>2019-09-04T08:27:22Z</time>
      </trkpt>
      <trkpt lat="43.09012" lon="1.6013">
        <ele>446.05</ele>
        <time>2019-09-04T08:27:36Z</time>
      </trkpt>
      <trkpt lat="43.08998" lon="1.60097">
        <ele>447.63</ele>
        <time>2019-09-04T08:27:56Z</time>
      </trkpt>
      <trkpt lat="43.08998" lon="1.60095">
        <ele>447.75</ele>
        <time>2019-09-04T08:27:57Z</time>
      </trkpt>
      <trkpt lat="43.08997" lon="1.60073">
        <ele>449.2</ele>
        <time>2019-09-04T08:28:13Z</time>
      </trkpt>
      <trkpt lat="43.08998" lon="1.60049">
        <ele>451.15</ele>
        <time>2019-09-04T08:28:31Z</time>
      </trkpt>
      <trkpt lat="43.08999" lon="1.6003">
        <ele>452.67</ele>
        <time>2019-09-04T08:28:48Z</time>
      </trkpt>
      <trkpt lat="43.0899" lon="1.60009">
        <ele>455.04</ele>
        <time>2019-09-04T08:29:07Z</time>
      </trkpt>
      <trkpt lat="43.08981" lon="1.60006">
        <ele>458.17</ele>
        <time>2019-09-04T08:29:22Z</time>
      </trkpt>
      <trkpt lat="43.08977" lon="1.60004">
        <ele>458.95</ele>
        <time>2019-09-04T08:29:27Z</time>
      </trkpt>
      <trkpt lat="43.08951" lon="1.59992">
        <ele>459.36</ele>
        <time>2019-09-04T08:29:51Z</time>
      </trkpt>
      <trkpt lat="43.0893" lon="1.59994">
        <ele>457.91</ele>
        <time>2019-09-04T08:30:09Z</time>
      </trkpt>
      <trkpt lat="43.08909" lon="1.59996">
        <ele>457.28</ele>
        <time>2019-09-04T08:30:26Z</time>
      </trkpt>
      <trkpt lat="43.08901" lon="1.59995">
        <ele>457.27</ele>
        <time>2019-09-04T08:30:31Z</time>
      </trkpt>
      <trkpt lat="43.08879" lon="1.59989">
        <ele>457.1</ele>
        <time>2019-09-04T08:30:48Z</time>
      </trkpt>
      <trkpt lat="43.08874" lon="1.59986">
        <ele>457.09</ele>
        <time>2019-09-04T08:30:52Z</time>
      </trkpt>
      <trkpt lat="43.08861" lon="1.59981">
        <ele>457.54</ele>
        <time>2019-09-04T08:31:10Z</time>
      </trkpt>
      <trkpt lat="43.08836" lon="1.5997">
        <ele>457.82</ele>
        <time>2019-09-04T08:31:27Z</time>
      </trkpt>
      <trkpt lat="43.08822" lon="1.59963">
        <ele>458.32</ele>
        <time>2019-09-04T08:31:39Z</time>
      </trkpt>
      <trkpt lat="43.08814" lon="1.59956">
        <ele>458.42</ele>
        <time>2019-09-04T08:31:46Z</time>
      </trkpt>
      <trkpt lat="43.08811" lon="1.59955">
        <ele>458.93</ele>
        <time>2019-09-04T08:31:48Z</time>
      </trkpt>
      <trkpt lat="43.0881" lon="1.59954">
        <ele>459.14</ele>
        <time>2019-09-04T08:31:49Z</time>
      </trkpt>
      <trkpt lat="43.08788" lon="1.59946">
        <ele>460.31</ele>
        <time>2019-09-04T08:32:08Z</time>
      </trkpt>
      <trkpt lat="43.08775" lon="1.59941">
        <ele>462.75</ele>
        <time>2019-09-04T08:32:22Z</time>
      </trkpt>
      <trkpt lat="43.08756" lon="1.59944">
        <ele>463.4</ele>
        <time>2019-09-04T08:32:38Z</time>
      </trkpt>
      <trkpt lat="43.0874" lon="1.59951">
        <ele>464.47</ele>
        <time>2019-09-04T08:32:53Z</time>
      </trkpt>
      <trkpt lat="43.08733" lon="1.59952">
        <ele>464.9</ele>
        <time>2019-09-04T08:32:59Z</time>
      </trkpt>
      <trkpt lat="43.08724" lon="1.59954">
        <ele>465.56</ele>
        <time>2019-09-04T08:33:06Z</time>
      </trkpt>
      <trkpt lat="43.08723" lon="1.59954">
        <ele>465.62</ele>
        <time>2019-09-04T08:33:07Z</time>
      </trkpt>
      <trkpt lat="43.08718" lon="1.59955">
        <ele>465.9</ele>
        <time>2019-09-04T08:33:11Z</time>
      </trkpt>
      <trkpt lat="43.08717" lon="1.59955">
        <ele>465.97</ele>
        <time>2019-09-04T08:33:12Z</time>
      </trkpt>
      <trkpt lat="43.08712" lon="1.59954">
        <ele>466.13</ele>
        <time>2019-09-04T08:33:16Z</time>
      </trkpt>
      <trkpt lat="43.08693" lon="1.59951">
        <ele>465.8</ele>
        <time>2019-09-04T08:33:31Z</time>
      </trkpt>
      <trkpt lat="43.08672" lon="1.59943">
        <ele>466.05</ele>
        <time>2019-09-04T08:33:50Z</time>
      </trkpt>
      <trkpt lat="43.08667" lon="1.5994">
        <ele>467.22</ele>
        <time>2019-09-04T08:34:06Z</time>
      </trkpt>
      <trkpt lat="43.08666" lon="1.5993">
        <ele>470.22</ele>
        <time>2019-09-04T08:34:26Z</time>
      </trkpt>
      <trkpt lat="43.08664" lon="1.5992">
        <ele>472.24</ele>
        <time>2019-09-04T08:34:37Z</time>
      </trkpt>
      <trkpt lat="43.08664" lon="1.59916">
        <ele>472.49</ele>
        <time>2019-09-04T08:34:39Z</time>
      </trkpt>
      <trkpt lat="43.08665" lon="1.59915">
        <ele>472.56</ele>
        <time>2019-09-04T08:34:40Z</time>
      </trkpt>
      <trkpt lat="43.0867" lon="1.59881">
        <ele>473.89</ele>
        <time>2019-09-04T08:35:00Z</time>
      </trkpt>
      <trkpt lat="43.08672" lon="1.59844">
        <ele>471.88</ele>
        <time>2019-09-04T08:35:21Z</time>
      </trkpt>
      <trkpt lat="43.08674" lon="1.59799">
        <ele>468.83</ele>
        <time>2019-09-04T08:35:46Z</time>
      </trkpt>
      <trkpt lat="43.08675" lon="1.59758">
        <ele>466.24</ele>
        <time>2019-09-04T08:36:08Z</time>
      </trkpt>
      <trkpt lat="43.08677" lon="1.59715">
        <ele>464.29</ele>
        <time>2019-09-04T08:36:31Z</time>
      </trkpt>
      <trkpt lat="43.08679" lon="1.59679">
        <ele>462.53</ele>
        <time>2019-09-04T08:36:49Z</time>
      </trkpt>
      <trkpt lat="43.08682" lon="1.59641">
        <ele>460.7</ele>
        <time>2019-09-04T08:37:09Z</time>
      </trkpt>
      <trkpt lat="43.08683" lon="1.59606">
        <ele>458.41</ele>
        <time>2019-09-04T08:37:28Z</time>
      </trkpt>
      <trkpt lat="43.08685" lon="1.59595">
        <ele>457.19</ele>
        <time>2019-09-04T08:37:44Z</time>
      </trkpt>
      <trkpt lat="43.08685" lon="1.59593">
        <ele>457.19</ele>
        <time>2019-09-04T08:37:45Z</time>
      </trkpt>
      <trkpt lat="43.08685" lon="1.59592">
        <ele>457.19</ele>
        <time>2019-09-04T08:37:46Z</time>
      </trkpt>
      <trkpt lat="43.08685" lon="1.59567">
        <ele>456.27</ele>
        <time>2019-09-04T08:38:02Z</time>
      </trkpt>
      <trkpt lat="43.08689" lon="1.59537">
        <ele>455.28</ele>
        <time>2019-09-04T08:38:18Z</time>
      </trkpt>
      <trkpt lat="43.08693" lon="1.59511">
        <ele>454.43</ele>
        <time>2019-09-04T08:38:32Z</time>
      </trkpt>
      <trkpt lat="43.08685" lon="1.5948">
        <ele>453.73</ele>
        <time>2019-09-04T08:38:51Z</time>
      </trkpt>
      <trkpt lat="43.08673" lon="1.59435">
        <ele>450.72</ele>
        <time>2019-09-04T08:39:13Z</time>
      </trkpt>
      <trkpt lat="43.08655" lon="1.59395">
        <ele>447.64</ele>
        <time>2019-09-04T08:39:39Z</time>
      </trkpt>
      <trkpt lat="43.08637" lon="1.59357">
        <ele>444.61</ele>
        <time>2019-09-04T08:40:07Z</time>
      </trkpt>
      <trkpt lat="43.08628" lon="1.59303">
        <ele>441.47</ele>
        <time>2019-09-04T08:40:36Z</time>
      </trkpt>
      <trkpt lat="43.08624" lon="1.59262">
        <ele>439.14</ele>
        <time>2019-09-04T08:40:57Z</time>
      </trkpt>
      <trkpt lat="43.08625" lon="1.59219">
        <ele>436.85</ele>
        <time>2019-09-04T08:41:20Z</time>
      </trkpt>
      <trkpt lat="43.08636" lon="1.5917">
        <ele>433.97</ele>
        <time>2019-09-04T08:41:46Z</time>
      </trkpt>
      <trkpt lat="43.08649" lon="1.5913">
        <ele>431.17</ele>
        <time>2019-09-04T08:42:10Z</time>
      </trkpt>
      <trkpt lat="43.08658" lon="1.591">
        <ele>429.47</ele>
        <time>2019-09-04T08:42:26Z</time>
      </trkpt>
      <trkpt lat="43.08666" lon="1.59055">
        <ele>426.55</ele>
        <time>2019-09-04T08:42:51Z</time>
      </trkpt>
      <trkpt lat="43.08667" lon="1.59015">
        <ele>424.49</ele>
        <time>2019-09-04T08:43:13Z</time>
      </trkpt>
      <trkpt lat="43.08673" lon="1.58986">
        <ele>423.21</ele>
        <time>2019-09-04T08:43:32Z</time>
      </trkpt>
      <trkpt lat="43.08682" lon="1.58951">
        <ele>420.14</ele>
        <time>2019-09-04T08:43:50Z</time>
      </trkpt>
      <trkpt lat="43.08689" lon="1.58919">
        <ele>418.46</ele>
        <time>2019-09-04T08:44:09Z</time>
      </trkpt>
      <trkpt lat="43.08699" lon="1.58882">
        <ele>416.61</ele>
        <time>2019-09-04T08:44:29Z</time>
      </trkpt>
      <trkpt lat="43.08709" lon="1.58848">
        <ele>415.43</ele>
        <time>2019-09-04T08:44:47Z</time>
      </trkpt>
      <trkpt lat="43.0872" lon="1.58814">
        <ele>414.36</ele>
        <time>2019-09-04T08:45:07Z</time>
      </trkpt>
      <trkpt lat="43.08727" lon="1.58793">
        <ele>413.56</ele>
        <time>2019-09-04T08:45:22Z</time>
      </trkpt>
      <trkpt lat="43.08729" lon="1.58786">
        <ele>413.48</ele>
        <time>2019-09-04T08:45:26Z</time>
      </trkpt>
      <trkpt lat="43.08731" lon="1.58779">
        <ele>413.38</ele>
        <time>2019-09-04T08:45:29Z</time>
      </trkpt>
      <trkpt lat="43.08738" lon="1.58752">
        <ele>413.37</ele>
        <time>2019-09-04T08:45:44Z</time>
      </trkpt>
      <trkpt lat="43.08746" lon="1.58725">
        <ele>413.06</ele>
        <time>2019-09-04T08:46:02Z</time>
      </trkpt>
      <trkpt lat="43.0875" lon="1.58698">
        <ele>412.96</ele>
        <time>2019-09-04T08:46:17Z</time>
      </trkpt>
      <trkpt lat="43.08751" lon="1.58668">
        <ele>412.66</ele>
        <time>2019-09-04T08:46:34Z</time>
      </trkpt>
      <trkpt lat="43.08752" lon="1.58659">
        <ele>412.6</ele>
        <time>2019-09-04T08:46:38Z</time>
      </trkpt>
      <trkpt lat="43.08756" lon="1.58637">
        <ele>412.26</ele>
        <time>2019-09-04T08:46:51Z</time>
      </trkpt>
      <trkpt lat="43.08759" lon="1.58622">
        <ele>412.28</ele>
        <time>2019-09-04T08:46:59Z</time>
      </trkpt>
      <trkpt lat="43.08767" lon="1.58603">
        <ele>412.25</ele>
        <time>2019-09-04T08:47:12Z</time>
      </trkpt>
      <trkpt lat="43.08775" lon="1.58583">
        <ele>412.16</ele>
        <time>2019-09-04T08:47:25Z</time>
      </trkpt>
      <trkpt lat="43.08776" lon="1.58581">
        <ele>412.17</ele>
        <time>2019-09-04T08:47:26Z</time>
      </trkpt>
      <trkpt lat="43.08776" lon="1.58579">
        <ele>412.19</ele>
        <time>2019-09-04T08:47:27Z</time>
      </trkpt>
      <trkpt lat="43.08777" lon="1.58577">
        <ele>412.21</ele>
        <time>2019-09-04T08:47:28Z</time>
      </trkpt>
      <trkpt lat="43.08783" lon="1.58557">
        <ele>412.33</ele>
        <time>2019-09-04T08:47:42Z</time>
      </trkpt>
      <trkpt lat="43.08791" lon="1.58532">
        <ele>412.34</ele>
        <time>2019-09-04T08:47:57Z</time>
      </trkpt>
      <trkpt lat="43.08796" lon="1.58506">
        <ele>412.55</ele>
        <time>2019-09-04T08:48:13Z</time>
      </trkpt>
      <trkpt lat="43.08805" lon="1.58479">
        <ele>413.02</ele>
        <time>2019-09-04T08:48:29Z</time>
      </trkpt>
      <trkpt lat="43.08814" lon="1.58457">
        <ele>412.72</ele>
        <time>2019-09-04T08:48:43Z</time>
      </trkpt>
      <trkpt lat="43.08821" lon="1.58435">
        <ele>412.62</ele>
        <time>2019-09-04T08:48:57Z</time>
      </trkpt>
      <trkpt lat="43.0883" lon="1.58407">
        <ele>412.62</ele>
        <time>2019-09-04T08:49:12Z</time>
      </trkpt>
      <trkpt lat="43.08833" lon="1.58394">
        <ele>412.51</ele>
        <time>2019-09-04T08:49:20Z</time>
      </trkpt>
      <trkpt lat="43.08838" lon="1.58373">
        <ele>412.15</ele>
        <time>2019-09-04T08:49:32Z</time>
      </trkpt>
      <trkpt lat="43.08839" lon="1.58369">
        <ele>412.14</ele>
        <time>2019-09-04T08:49:34Z</time>
      </trkpt>
      <trkpt lat="43.08839" lon="1.58367">
        <ele>412.07</ele>
        <time>2019-09-04T08:49:35Z</time>
      </trkpt>
      <trkpt lat="43.0884" lon="1.58365">
        <ele>411.91</ele>
        <time>2019-09-04T08:49:36Z</time>
      </trkpt>
      <trkpt lat="43.0884" lon="1.58363">
        <ele>411.79</ele>
        <time>2019-09-04T08:49:37Z</time>
      </trkpt>
      <trkpt lat="43.0884" lon="1.58361">
        <ele>411.72</ele>
        <time>2019-09-04T08:49:38Z</time>
      </trkpt>
      <trkpt lat="43.08844" lon="1.58332">
        <ele>411.57</ele>
        <time>2019-09-04T08:49:55Z</time>
      </trkpt>
      <trkpt lat="43.08848" lon="1.58301">
        <ele>410.72</ele>
        <time>2019-09-04T08:50:12Z</time>
      </trkpt>
      <trkpt lat="43.08857" lon="1.58274">
        <ele>409.35</ele>
        <time>2019-09-04T08:50:28Z</time>
      </trkpt>
      <trkpt lat="43.08866" lon="1.58258">
        <ele>408.25</ele>
        <time>2019-09-04T08:50:40Z</time>
      </trkpt>
      <trkpt lat="43.08882" lon="1.58237">
        <ele>407.18</ele>
        <time>2019-09-04T08:50:56Z</time>
      </trkpt>
      <trkpt lat="43.08883" lon="1.58236">
        <ele>407.14</ele>
        <time>2019-09-04T08:50:57Z</time>
      </trkpt>
      <trkpt lat="43.089" lon="1.58221">
        <ele>406.74</ele>
        <time>2019-09-04T08:51:12Z</time>
      </trkpt>
      <trkpt lat="43.08918" lon="1.58204">
        <ele>406.62</ele>
        <time>2019-09-04T08:51:29Z</time>
      </trkpt>
      <trkpt lat="43.08934" lon="1.5819">
        <ele>406.79</ele>
        <time>2019-09-04T08:51:44Z</time>
      </trkpt>
      <trkpt lat="43.08956" lon="1.58163">
        <ele>407.85</ele>
        <time>2019-09-04T08:52:05Z</time>
      </trkpt>
      <trkpt lat="43.08964" lon="1.58141">
        <ele>407.93</ele>
        <time>2019-09-04T08:52:20Z</time>
      </trkpt>
      <trkpt lat="43.08965" lon="1.58139">
        <ele>407.91</ele>
        <time>2019-09-04T08:52:21Z</time>
      </trkpt>
      <trkpt lat="43.08967" lon="1.58134">
        <ele>407.82</ele>
        <time>2019-09-04T08:52:24Z</time>
      </trkpt>
      <trkpt lat="43.08969" lon="1.58127">
        <ele>407.73</ele>
        <time>2019-09-04T08:52:28Z</time>
      </trkpt>
      <trkpt lat="43.0897" lon="1.58125">
        <ele>407.69</ele>
        <time>2019-09-04T08:52:29Z</time>
      </trkpt>
      <trkpt lat="43.08982" lon="1.58093">
        <ele>407</ele>
        <time>2019-09-04T08:52:48Z</time>
      </trkpt>
      <trkpt lat="43.09" lon="1.58038">
        <ele>406.25</ele>
        <time>2019-09-04T08:53:17Z</time>
      </trkpt>
      <trkpt lat="43.09009" lon="1.58009">
        <ele>405.08</ele>
        <time>2019-09-04T08:53:35Z</time>
      </trkpt>
      <trkpt lat="43.09016" lon="1.57983">
        <ele>404.06</ele>
        <time>2019-09-04T08:53:50Z</time>
      </trkpt>
      <trkpt lat="43.09018" lon="1.57959">
        <ele>402.92</ele>
        <time>2019-09-04T08:54:05Z</time>
      </trkpt>
      <trkpt lat="43.09021" lon="1.57932">
        <ele>401.78</ele>
        <time>2019-09-04T08:54:21Z</time>
      </trkpt>
      <trkpt lat="43.09021" lon="1.57929">
        <ele>401.67</ele>
        <time>2019-09-04T08:54:22Z</time>
      </trkpt>
      <trkpt lat="43.09024" lon="1.57908">
        <ele>400.95</ele>
        <time>2019-09-04T08:54:36Z</time>
      </trkpt>
      <trkpt lat="43.09025" lon="1.57878">
        <ele>398.98</ele>
        <time>2019-09-04T08:54:52Z</time>
      </trkpt>
      <trkpt lat="43.09025" lon="1.57876">
        <ele>398.9</ele>
        <time>2019-09-04T08:54:53Z</time>
      </trkpt>
      <trkpt lat="43.09025" lon="1.57873">
        <ele>398.84</ele>
        <time>2019-09-04T08:54:54Z</time>
      </trkpt>
      <trkpt lat="43.09025" lon="1.57871">
        <ele>398.78</ele>
        <time>2019-09-04T08:54:55Z</time>
      </trkpt>
      <trkpt lat="43.09025" lon="1.57869">
        <ele>398.72</ele>
        <time>2019-09-04T08:54:56Z</time>
      </trkpt>
      <trkpt lat="43.09028" lon="1.57822">
        <ele>397.09</ele>
        <time>2019-09-04T08:55:17Z</time>
      </trkpt>
      <trkpt lat="43.09034" lon="1.57777">
        <ele>395.86</ele>
        <time>2019-09-04T08:55:41Z</time>
      </trkpt>
      <trkpt lat="43.09043" lon="1.57756">
        <ele>395.42</ele>
        <time>2019-09-04T08:55:57Z</time>
      </trkpt>
      <trkpt lat="43.09057" lon="1.57723">
        <ele>395.12</ele>
        <time>2019-09-04T08:56:18Z</time>
      </trkpt>
      <trkpt lat="43.09066" lon="1.57699">
        <ele>395.41</ele>
        <time>2019-09-04T08:56:32Z</time>
      </trkpt>
      <trkpt lat="43.0907" lon="1.57693">
        <ele>395.41</ele>
        <time>2019-09-04T08:56:37Z</time>
      </trkpt>
      <trkpt lat="43.09071" lon="1.57692">
        <ele>395.41</ele>
        <time>2019-09-04T08:56:38Z</time>
      </trkpt>
      <trkpt lat="43.09072" lon="1.5769">
        <ele>395.41</ele>
        <time>2019-09-04T08:56:39Z</time>
      </trkpt>
      <trkpt lat="43.09076" lon="1.57685">
        <ele>395.41</ele>
        <time>2019-09-04T08:56:44Z</time>
      </trkpt>
      <trkpt lat="43.09089" lon="1.57662">
        <ele>395.48</ele>
        <time>2019-09-04T08:57:00Z</time>
      </trkpt>
      <trkpt lat="43.09095" lon="1.57634">
        <ele>395.08</ele>
        <time>2019-09-04T08:57:17Z</time>
      </trkpt>
      <trkpt lat="43.09102" lon="1.576">
        <ele>394.17</ele>
        <time>2019-09-04T08:57:39Z</time>
      </trkpt>
      <trkpt lat="43.09105" lon="1.57582">
        <ele>393.74</ele>
        <time>2019-09-04T08:57:49Z</time>
      </trkpt>
      <trkpt lat="43.09106" lon="1.57577">
        <ele>393.51</ele>
        <time>2019-09-04T08:57:52Z</time>
      </trkpt>
      <trkpt lat="43.09104" lon="1.57536">
        <ele>393.07</ele>
        <time>2019-09-04T08:58:12Z</time>
      </trkpt>
      <trkpt lat="43.09099" lon="1.57497">
        <ele>392.29</ele>
        <time>2019-09-04T08:58:33Z</time>
      </trkpt>
      <trkpt lat="43.09099" lon="1.57463">
        <ele>390.91</ele>
        <time>2019-09-04T08:58:52Z</time>
      </trkpt>
      <trkpt lat="43.09101" lon="1.57433">
        <ele>389.66</ele>
        <time>2019-09-04T08:59:08Z</time>
      </trkpt>
      <trkpt lat="43.09105" lon="1.57394">
        <ele>387.92</ele>
        <time>2019-09-04T08:59:29Z</time>
      </trkpt>
      <trkpt lat="43.09106" lon="1.57371">
        <ele>387.56</ele>
        <time>2019-09-04T08:59:43Z</time>
      </trkpt>
      <trkpt lat="43.09108" lon="1.57339">
        <ele>386.95</ele>
        <time>2019-09-04T08:59:59Z</time>
      </trkpt>
      <trkpt lat="43.09114" lon="1.57313">
        <ele>386.6</ele>
        <time>2019-09-04T09:00:13Z</time>
      </trkpt>
      <trkpt lat="43.09113" lon="1.57283">
        <ele>387.26</ele>
        <time>2019-09-04T09:00:31Z</time>
      </trkpt>
      <trkpt lat="43.09107" lon="1.57259">
        <ele>386.88</ele>
        <time>2019-09-04T09:00:46Z</time>
      </trkpt>
      <trkpt lat="43.09108" lon="1.57241">
        <ele>387.04</ele>
        <time>2019-09-04T09:00:57Z</time>
      </trkpt>
      <trkpt lat="43.09113" lon="1.57211">
        <ele>387.06</ele>
        <time>2019-09-04T09:01:14Z</time>
      </trkpt>
      <trkpt lat="43.09115" lon="1.57198">
        <ele>387.17</ele>
        <time>2019-09-04T09:01:21Z</time>
      </trkpt>
      <trkpt lat="43.09122" lon="1.57171">
        <ele>386.88</ele>
        <time>2019-09-04T09:01:38Z</time>
      </trkpt>
      <trkpt lat="43.09122" lon="1.57169">
        <ele>386.85</ele>
        <time>2019-09-04T09:01:39Z</time>
      </trkpt>
      <trkpt lat="43.09123" lon="1.57167">
        <ele>386.82</ele>
        <time>2019-09-04T09:01:40Z</time>
      </trkpt>
      <trkpt lat="43.09123" lon="1.57165">
        <ele>386.79</ele>
        <time>2019-09-04T09:01:41Z</time>
      </trkpt>
      <trkpt lat="43.09124" lon="1.57133">
        <ele>386.65</ele>
        <time>2019-09-04T09:01:57Z</time>
      </trkpt>
      <trkpt lat="43.09124" lon="1.57099">
        <ele>385.95</ele>
        <time>2019-09-04T09:02:14Z</time>
      </trkpt>
      <trkpt lat="43.09122" lon="1.5707">
        <ele>385.81</ele>
        <time>2019-09-04T09:02:30Z</time>
      </trkpt>
      <trkpt lat="43.09119" lon="1.57035">
        <ele>385.23</ele>
        <time>2019-09-04T09:02:51Z</time>
      </trkpt>
      <trkpt lat="43.09119" lon="1.56994">
        <ele>383.64</ele>
        <time>2019-09-04T09:03:13Z</time>
      </trkpt>
      <trkpt lat="43.09117" lon="1.56963">
        <ele>382.06</ele>
        <time>2019-09-04T09:03:31Z</time>
      </trkpt>
      <trkpt lat="43.09115" lon="1.56919">
        <ele>380.85</ele>
        <time>2019-09-04T09:03:55Z</time>
      </trkpt>
      <trkpt lat="43.09114" lon="1.56888">
        <ele>380.19</ele>
        <time>2019-09-04T09:04:13Z</time>
      </trkpt>
      <trkpt lat="43.09108" lon="1.5686">
        <ele>378.72</ele>
        <time>2019-09-04T09:04:30Z</time>
      </trkpt>
      <trkpt lat="43.09097" lon="1.56824">
        <ele>376.6</ele>
        <time>2019-09-04T09:04:49Z</time>
      </trkpt>
      <trkpt lat="43.09093" lon="1.56803">
        <ele>375.26</ele>
        <time>2019-09-04T09:05:01Z</time>
      </trkpt>
      <trkpt lat="43.09088" lon="1.56779">
        <ele>373.42</ele>
        <time>2019-09-04T09:05:16Z</time>
      </trkpt>
      <trkpt lat="43.09085" lon="1.56763">
        <ele>372.29</ele>
        <time>2019-09-04T09:05:26Z</time>
      </trkpt>
      <trkpt lat="43.09085" lon="1.56761">
        <ele>372.18</ele>
        <time>2019-09-04T09:05:27Z</time>
      </trkpt>
      <trkpt lat="43.09084" lon="1.56759">
        <ele>372.07</ele>
        <time>2019-09-04T09:05:28Z</time>
      </trkpt>
      <trkpt lat="43.09084" lon="1.56757">
        <ele>371.96</ele>
        <time>2019-09-04T09:05:29Z</time>
      </trkpt>
      <trkpt lat="43.09084" lon="1.56755">
        <ele>371.67</ele>
        <time>2019-09-04T09:05:30Z</time>
      </trkpt>
      <trkpt lat="43.09083" lon="1.56753">
        <ele>371.67</ele>
        <time>2019-09-04T09:05:31Z</time>
      </trkpt>
      <trkpt lat="43.09083" lon="1.56751">
        <ele>371.34</ele>
        <time>2019-09-04T09:05:32Z</time>
      </trkpt>
      <trkpt lat="43.09082" lon="1.56749">
        <ele>371.26</ele>
        <time>2019-09-04T09:05:33Z</time>
      </trkpt>
      <trkpt lat="43.09082" lon="1.56747">
        <ele>371.21</ele>
        <time>2019-09-04T09:05:34Z</time>
      </trkpt>
      <trkpt lat="43.09078" lon="1.56725">
        <ele>370.63</ele>
        <time>2019-09-04T09:05:46Z</time>
      </trkpt>
      <trkpt lat="43.09078" lon="1.56723">
        <ele>370.64</ele>
        <time>2019-09-04T09:05:47Z</time>
      </trkpt>
      <trkpt lat="43.09078" lon="1.56721">
        <ele>370.5</ele>
        <time>2019-09-04T09:05:48Z</time>
      </trkpt>
      <trkpt lat="43.09078" lon="1.56719">
        <ele>370.3</ele>
        <time>2019-09-04T09:05:49Z</time>
      </trkpt>
      <trkpt lat="43.09077" lon="1.56717">
        <ele>370.11</ele>
        <time>2019-09-04T09:05:50Z</time>
      </trkpt>
      <trkpt lat="43.09077" lon="1.56715">
        <ele>369.92</ele>
        <time>2019-09-04T09:05:51Z</time>
      </trkpt>
      <trkpt lat="43.09076" lon="1.56713">
        <ele>369.75</ele>
        <time>2019-09-04T09:05:52Z</time>
      </trkpt>
      <trkpt lat="43.09076" lon="1.56711">
        <ele>369.6</ele>
        <time>2019-09-04T09:05:53Z</time>
      </trkpt>
      <trkpt lat="43.0907" lon="1.56683">
        <ele>367.58</ele>
        <time>2019-09-04T09:06:10Z</time>
      </trkpt>
      <trkpt lat="43.09069" lon="1.56679">
        <ele>367.36</ele>
        <time>2019-09-04T09:06:12Z</time>
      </trkpt>
      <trkpt lat="43.09067" lon="1.56656">
        <ele>365.93</ele>
        <time>2019-09-04T09:06:26Z</time>
      </trkpt>
      <trkpt lat="43.09074" lon="1.56631">
        <ele>364.07</ele>
        <time>2019-09-04T09:06:41Z</time>
      </trkpt>
      <trkpt lat="43.09083" lon="1.56598">
        <ele>362.03</ele>
        <time>2019-09-04T09:06:59Z</time>
      </trkpt>
      <trkpt lat="43.09092" lon="1.56578">
        <ele>359.56</ele>
        <time>2019-09-04T09:07:13Z</time>
      </trkpt>
      <trkpt lat="43.09095" lon="1.56573">
        <ele>358.96</ele>
        <time>2019-09-04T09:07:16Z</time>
      </trkpt>
      <trkpt lat="43.09105" lon="1.56543">
        <ele>356.73</ele>
        <time>2019-09-04T09:07:32Z</time>
      </trkpt>
      <trkpt lat="43.09124" lon="1.56532">
        <ele>354.69</ele>
        <time>2019-09-04T09:07:49Z</time>
      </trkpt>
      <trkpt lat="43.09146" lon="1.56535">
        <ele>353.53</ele>
        <time>2019-09-04T09:08:06Z</time>
      </trkpt>
      <trkpt lat="43.09165" lon="1.56529">
        <ele>353.31</ele>
        <time>2019-09-04T09:08:22Z</time>
      </trkpt>
      <trkpt lat="43.09169" lon="1.56524">
        <ele>353.33</ele>
        <time>2019-09-04T09:08:26Z</time>
      </trkpt>
      <trkpt lat="43.09176" lon="1.56498">
        <ele>352.15</ele>
        <time>2019-09-04T09:08:42Z</time>
      </trkpt>
      <trkpt lat="43.09178" lon="1.56476">
        <ele>348.72</ele>
        <time>2019-09-04T09:08:53Z</time>
      </trkpt>
      <trkpt lat="43.09189" lon="1.56452">
        <ele>345.71</ele>
        <time>2019-09-04T09:09:09Z</time>
      </trkpt>
      <trkpt lat="43.09208" lon="1.56425">
        <ele>345.42</ele>
        <time>2019-09-04T09:09:30Z</time>
      </trkpt>
      <trkpt lat="43.09213" lon="1.56416">
        <ele>345.55</ele>
        <time>2019-09-04T09:09:37Z</time>
      </trkpt>
      <trkpt lat="43.09214" lon="1.56414">
        <ele>345.59</ele>
        <time>2019-09-04T09:09:38Z</time>
      </trkpt>
      <trkpt lat="43.09216" lon="1.56412">
        <ele>345.62</ele>
        <time>2019-09-04T09:09:40Z</time>
      </trkpt>
      <trkpt lat="43.09223" lon="1.56401">
        <ele>346.01</ele>
        <time>2019-09-04T09:09:49Z</time>
      </trkpt>
      <trkpt lat="43.09224" lon="1.56399">
        <ele>346.08</ele>
        <time>2019-09-04T09:09:50Z</time>
      </trkpt>
      <trkpt lat="43.09225" lon="1.56397">
        <ele>346.12</ele>
        <time>2019-09-04T09:09:51Z</time>
      </trkpt>
      <trkpt lat="43.09228" lon="1.56392">
        <ele>346.11</ele>
        <time>2019-09-04T09:09:55Z</time>
      </trkpt>
      <trkpt lat="43.09229" lon="1.5639">
        <ele>346.03</ele>
        <time>2019-09-04T09:09:56Z</time>
      </trkpt>
      <trkpt lat="43.0923" lon="1.56389">
        <ele>345.94</ele>
        <time>2019-09-04T09:09:57Z</time>
      </trkpt>
      <trkpt lat="43.09254" lon="1.56373">
        <ele>342.79</ele>
        <time>2019-09-04T09:10:16Z</time>
      </trkpt>
      <trkpt lat="43.09274" lon="1.56363">
        <ele>339.72</ele>
        <time>2019-09-04T09:10:31Z</time>
      </trkpt>
      <trkpt lat="43.09296" lon="1.56351">
        <ele>336.59</ele>
        <time>2019-09-04T09:10:48Z</time>
      </trkpt>
      <trkpt lat="43.09318" lon="1.56342">
        <ele>334.77</ele>
        <time>2019-09-04T09:11:06Z</time>
      </trkpt>
      <trkpt lat="43.09336" lon="1.56333">
        <ele>331.67</ele>
        <time>2019-09-04T09:11:20Z</time>
      </trkpt>
      <trkpt lat="43.09357" lon="1.56316">
        <ele>328.38</ele>
        <time>2019-09-04T09:11:37Z</time>
      </trkpt>
      <trkpt lat="43.09383" lon="1.56285">
        <ele>325.37</ele>
        <time>2019-09-04T09:12:01Z</time>
      </trkpt>
      <trkpt lat="43.09408" lon="1.5626">
        <ele>322.27</ele>
        <time>2019-09-04T09:12:23Z</time>
      </trkpt>
      <trkpt lat="43.09427" lon="1.56249">
        <ele>319.2</ele>
        <time>2019-09-04T09:12:38Z</time>
      </trkpt>
      <trkpt lat="43.09452" lon="1.5623">
        <ele>316.1</ele>
        <time>2019-09-04T09:12:58Z</time>
      </trkpt>
      <trkpt lat="43.09468" lon="1.56219">
        <ele>314.64</ele>
        <time>2019-09-04T09:13:11Z</time>
      </trkpt>
      <trkpt lat="43.09494" lon="1.56222">
        <ele>312.72</ele>
        <time>2019-09-04T09:13:30Z</time>
      </trkpt>
      <trkpt lat="43.09497" lon="1.56225">
        <ele>312.42</ele>
        <time>2019-09-04T09:13:33Z</time>
      </trkpt>
      <trkpt lat="43.09503" lon="1.56231">
        <ele>311.28</ele>
        <time>2019-09-04T09:13:41Z</time>
      </trkpt>
      <trkpt lat="43.09505" lon="1.56232">
        <ele>311.13</ele>
        <time>2019-09-04T09:13:42Z</time>
      </trkpt>
      <trkpt lat="43.09509" lon="1.56234">
        <ele>310.8</ele>
        <time>2019-09-04T09:13:44Z</time>
      </trkpt>
      <trkpt lat="43.09529" lon="1.56243">
        <ele>309.33</ele>
        <time>2019-09-04T09:13:59Z</time>
      </trkpt>
      <trkpt lat="43.09534" lon="1.56248">
        <ele>308.5</ele>
        <time>2019-09-04T09:14:16Z</time>
      </trkpt>
      <trkpt lat="43.09531" lon="1.56247">
        <ele>308.41</ele>
        <time>2019-09-04T09:14:42Z</time>
      </trkpt>
      <trkpt lat="43.09532" lon="1.56237">
        <ele>308.41</ele>
        <time>2019-09-04T09:14:47Z</time>
      </trkpt>
      <trkpt lat="43.09532" lon="1.56234">
        <ele>308.41</ele>
        <time>2019-09-04T09:14:48Z</time>
      </trkpt>
      <trkpt lat="43.09537" lon="1.56211">
        <ele>308.2</ele>
        <time>2019-09-04T09:15:01Z</time>
      </trkpt>
      <trkpt lat="43.09543" lon="1.5618">
        <ele>307.77</ele>
        <time>2019-09-04T09:15:19Z</time>
      </trkpt>
      <trkpt lat="43.09546" lon="1.56147">
        <ele>307.01</ele>
        <time>2019-09-04T09:15:37Z</time>
      </trkpt>
      <trkpt lat="43.09553" lon="1.56114">
        <ele>306.47</ele>
        <time>2019-09-04T09:15:55Z</time>
      </trkpt>
      <trkpt lat="43.09565" lon="1.56087">
        <ele>306.16</ele>
        <time>2019-09-04T09:16:13Z</time>
      </trkpt>
      <trkpt lat="43.09577" lon="1.56066">
        <ele>305.76</ele>
        <time>2019-09-04T09:16:29Z</time>
      </trkpt>
      <trkpt lat="43.09585" lon="1.56043">
        <ele>305.17</ele>
        <time>2019-09-04T09:16:42Z</time>
      </trkpt>
      <trkpt lat="43.09584" lon="1.56041">
        <ele>305.17</ele>
        <time>2019-09-04T09:16:43Z</time>
      </trkpt>
      <trkpt lat="43.09584" lon="1.56039">
        <ele>305.22</ele>
        <time>2019-09-04T09:16:44Z</time>
      </trkpt>
      <trkpt lat="43.09572" lon="1.56">
        <ele>305.37</ele>
        <time>2019-09-04T09:17:07Z</time>
      </trkpt>
      <trkpt lat="43.09572" lon="1.55966">
        <ele>304.71</ele>
        <time>2019-09-04T09:17:28Z</time>
      </trkpt>
      <trkpt lat="43.09572" lon="1.55946">
        <ele>305.14</ele>
        <time>2019-09-04T09:17:46Z</time>
      </trkpt>
      <trkpt lat="43.09573" lon="1.55943">
        <ele>305.02</ele>
        <time>2019-09-04T09:17:56Z</time>
      </trkpt>
      <trkpt lat="43.09574" lon="1.55942">
        <ele>305.01</ele>
        <time>2019-09-04T09:17:57Z</time>
      </trkpt>
      <trkpt lat="43.09574" lon="1.5594">
        <ele>304.99</ele>
        <time>2019-09-04T09:17:58Z</time>
      </trkpt>
      <trkpt lat="43.09574" lon="1.55938">
        <ele>304.97</ele>
        <time>2019-09-04T09:17:59Z</time>
      </trkpt>
      <trkpt lat="43.09574" lon="1.55936">
        <ele>304.93</ele>
        <time>2019-09-04T09:18:00Z</time>
      </trkpt>
      <trkpt lat="43.09574" lon="1.5588">
        <ele>304.56</ele>
        <time>2019-09-04T09:18:31Z</time>
      </trkpt>
      <trkpt lat="43.09568" lon="1.55833">
        <ele>304.04</ele>
        <time>2019-09-04T09:18:57Z</time>
      </trkpt>
      <trkpt lat="43.09559" lon="1.55777">
        <ele>304.38</ele>
        <time>2019-09-04T09:19:29Z</time>
      </trkpt>
      <trkpt lat="43.09548" lon="1.55735">
        <ele>304.98</ele>
        <time>2019-09-04T09:19:54Z</time>
      </trkpt>
      <trkpt lat="43.09536" lon="1.55686">
        <ele>307.17</ele>
        <time>2019-09-04T09:20:24Z</time>
      </trkpt>
      <trkpt lat="43.0952" lon="1.55637">
        <ele>310.19</ele>
        <time>2019-09-04T09:20:57Z</time>
      </trkpt>
      <trkpt lat="43.09501" lon="1.55614">
        <ele>312.01</ele>
        <time>2019-09-04T09:21:18Z</time>
      </trkpt>
      <trkpt lat="43.09481" lon="1.55594">
        <ele>313.68</ele>
        <time>2019-09-04T09:21:38Z</time>
      </trkpt>
      <trkpt lat="43.0946" lon="1.55551">
        <ele>315.65</ele>
        <time>2019-09-04T09:22:09Z</time>
      </trkpt>
      <trkpt lat="43.0944" lon="1.55503">
        <ele>317.51</ele>
        <time>2019-09-04T09:22:41Z</time>
      </trkpt>
      <trkpt lat="43.0942" lon="1.55452">
        <ele>319.29</ele>
        <time>2019-09-04T09:23:14Z</time>
      </trkpt>
      <trkpt lat="43.09405" lon="1.55416">
        <ele>320.81</ele>
        <time>2019-09-04T09:23:38Z</time>
      </trkpt>
      <trkpt lat="43.09388" lon="1.55373">
        <ele>323.02</ele>
        <time>2019-09-04T09:24:07Z</time>
      </trkpt>
      <trkpt lat="43.09383" lon="1.55365">
        <ele>323.29</ele>
        <time>2019-09-04T09:24:13Z</time>
      </trkpt>
      <trkpt lat="43.09383" lon="1.55364">
        <ele>323.32</ele>
        <time>2019-09-04T09:24:14Z</time>
      </trkpt>
      <trkpt lat="43.09375" lon="1.55342">
        <ele>324.09</ele>
        <time>2019-09-04T09:24:29Z</time>
      </trkpt>
      <trkpt lat="43.0937" lon="1.55326">
        <ele>324.75</ele>
        <time>2019-09-04T09:24:41Z</time>
      </trkpt>
      <trkpt lat="43.09354" lon="1.55293">
        <ele>325.9</ele>
        <time>2019-09-04T09:25:01Z</time>
      </trkpt>
      <trkpt lat="43.09338" lon="1.55263">
        <ele>327.36</ele>
        <time>2019-09-04T09:25:23Z</time>
      </trkpt>
      <trkpt lat="43.09327" lon="1.55245">
        <ele>328.1</ele>
        <time>2019-09-04T09:25:38Z</time>
      </trkpt>
      <trkpt lat="43.09326" lon="1.55243">
        <ele>328.13</ele>
        <time>2019-09-04T09:25:39Z</time>
      </trkpt>
      <trkpt lat="43.09321" lon="1.55231">
        <ele>328.68</ele>
        <time>2019-09-04T09:25:50Z</time>
      </trkpt>
      <trkpt lat="43.09322" lon="1.55214">
        <ele>329.05</ele>
        <time>2019-09-04T09:26:01Z</time>
      </trkpt>
      <trkpt lat="43.09319" lon="1.55203">
        <ele>330.1</ele>
        <time>2019-09-04T09:26:15Z</time>
      </trkpt>
      <trkpt lat="43.09316" lon="1.55209">
        <ele>330.21</ele>
        <time>2019-09-04T09:26:24Z</time>
      </trkpt>
      <trkpt lat="43.09318" lon="1.55214">
        <ele>329.49</ele>
        <time>2019-09-04T09:26:39Z</time>
      </trkpt>
      <trkpt lat="43.09318" lon="1.55213">
        <ele>332.84</ele>
        <time>2019-09-04T09:26:49Z</time>
      </trkpt>
      <trkpt lat="43.09317" lon="1.55213">
        <ele>330.95</ele>
        <time>2019-09-04T09:26:50Z</time>
      </trkpt>
      <trkpt lat="43.09317" lon="1.55213">
        <ele>329.24</ele>
        <time>2019-09-04T09:26:53Z</time>
      </trkpt>
      <trkpt lat="43.09317" lon="1.55213">
        <ele>329</ele>
        <time>2019-09-04T09:26:59Z</time>
      </trkpt>
      <trkpt lat="43.09316" lon="1.55213">
        <ele>329.11</ele>
        <time>2019-09-04T09:27:05Z</time>
      </trkpt>
      <trkpt lat="43.09314" lon="1.5521">
        <ele>328.95</ele>
        <time>2019-09-04T09:27:22Z</time>
      </trkpt>
      <trkpt lat="43.09315" lon="1.55211">
        <ele>328.86</ele>
        <time>2019-09-04T09:28:25Z</time>
      </trkpt>
      <trkpt lat="43.09315" lon="1.55213">
        <ele>328.61</ele>
        <time>2019-09-04T09:29:38Z</time>
      </trkpt>
      <trkpt lat="43.09316" lon="1.55211">
        <ele>328.61</ele>
        <time>2019-09-04T09:31:44Z</time>
      </trkpt>
      <trkpt lat="43.09315" lon="1.55213">
        <ele>328.61</ele>
        <time>2019-09-04T09:33:54Z</time>
      </trkpt>
      <trkpt lat="43.09316" lon="1.55214">
        <ele>328.61</ele>
        <time>2019-09-04T09:37:14Z</time>
      </trkpt>
      <trkpt lat="43.09315" lon="1.55212">
        <ele>328.61</ele>
        <time>2019-09-04T09:38:52Z</time>
      </trkpt>
      <trkpt lat="43.09315" lon="1.55211">
        <ele>328.61</ele>
        <time>2019-09-04T09:40:21Z</time>
      </trkpt>
      <trkpt lat="43.09317" lon="1.55212">
        <ele>328.61</ele>
        <time>2019-09-04T09:41:42Z</time>
      </trkpt>
      <trkpt lat="43.09318" lon="1.55212">
        <ele>328.61</ele>
        <time>2019-09-04T09:42:36Z</time>
      </trkpt>
      <trkpt lat="43.09319" lon="1.55213">
        <ele>328.61</ele>
        <time>2019-09-04T09:43:04Z</time>
      </trkpt>
      <trkpt lat="43.09319" lon="1.55213">
        <ele>328.61</ele>
        <time>2019-09-04T09:43:12Z</time>
      </trkpt>
      <trkpt lat="43.09319" lon="1.55214">
        <ele>328.61</ele>
        <time>2019-09-04T09:43:22Z</time>
      </trkpt>
      <trkpt lat="43.09319" lon="1.55213">
        <ele>328.61</ele>
        <time>2019-09-04T09:44:09Z</time>
      </trkpt>
      <trkpt lat="43.09316" lon="1.55213">
        <ele>328.61</ele>
        <time>2019-09-04T09:44:48Z</time>
      </trkpt>
      <trkpt lat="43.09316" lon="1.55214">
        <ele>328.61</ele>
        <time>2019-09-04T09:44:59Z</time>
      </trkpt>
      <trkpt lat="43.09317" lon="1.55214">
        <ele>328.61</ele>
        <time>2019-09-04T09:45:33Z</time>
      </trkpt>
      <trkpt lat="43.09316" lon="1.55214">
        <ele>328.61</ele>
        <time>2019-09-04T09:46:20Z</time>
      </trkpt>
      <trkpt lat="43.09319" lon="1.55213">
        <ele>328.61</ele>
        <time>2019-09-04T09:47:25Z</time>
      </trkpt>
      <trkpt lat="43.09319" lon="1.55211">
        <ele>328.61</ele>
        <time>2019-09-04T09:48:01Z</time>
      </trkpt>
      <trkpt lat="43.09318" lon="1.5521">
        <ele>328.61</ele>
        <time>2019-09-04T09:48:21Z</time>
      </trkpt>
      <trkpt lat="43.09316" lon="1.5521">
        <ele>328.61</ele>
        <time>2019-09-04T09:48:44Z</time>
      </trkpt>
      <trkpt lat="43.09316" lon="1.55201">
        <ele>328.61</ele>
        <time>2019-09-04T09:49:13Z</time>
      </trkpt>
      <trkpt lat="43.09318" lon="1.552">
        <ele>331.63</ele>
        <time>2019-09-04T09:49:16Z</time>
      </trkpt>
      <trkpt lat="43.0932" lon="1.55201">
        <ele>332.9</ele>
        <time>2019-09-04T09:49:19Z</time>
      </trkpt>
      <trkpt lat="43.09322" lon="1.55228">
        <ele>332.66</ele>
        <time>2019-09-04T09:49:36Z</time>
      </trkpt>
      <trkpt lat="43.09319" lon="1.55233">
        <ele>332.1</ele>
        <time>2019-09-04T09:49:40Z</time>
      </trkpt>
      <trkpt lat="43.09318" lon="1.55234">
        <ele>332.01</ele>
        <time>2019-09-04T09:49:41Z</time>
      </trkpt>
      <trkpt lat="43.09311" lon="1.5524">
        <ele>331.78</ele>
        <time>2019-09-04T09:49:48Z</time>
      </trkpt>
      <trkpt lat="43.09309" lon="1.5524">
        <ele>332.19</ele>
        <time>2019-09-04T09:49:49Z</time>
      </trkpt>
      <trkpt lat="43.09308" lon="1.55241">
        <ele>332.43</ele>
        <time>2019-09-04T09:49:50Z</time>
      </trkpt>
      <trkpt lat="43.09307" lon="1.55242">
        <ele>332.55</ele>
        <time>2019-09-04T09:49:51Z</time>
      </trkpt>
      <trkpt lat="43.09298" lon="1.55246">
        <ele>331.6</ele>
        <time>2019-09-04T09:50:09Z</time>
      </trkpt>
      <trkpt lat="43.09297" lon="1.55247">
        <ele>331.6</ele>
        <time>2019-09-04T09:50:10Z</time>
      </trkpt>
      <trkpt lat="43.09295" lon="1.55248">
        <ele>331.61</ele>
        <time>2019-09-04T09:50:11Z</time>
      </trkpt>
      <trkpt lat="43.09272" lon="1.55258">
        <ele>331.79</ele>
        <time>2019-09-04T09:50:31Z</time>
      </trkpt>
      <trkpt lat="43.09244" lon="1.5527">
        <ele>331.55</ele>
        <time>2019-09-04T09:50:53Z</time>
      </trkpt>
      <trkpt lat="43.09217" lon="1.5528">
        <ele>331.25</ele>
        <time>2019-09-04T09:51:15Z</time>
      </trkpt>
      <trkpt lat="43.09176" lon="1.55297">
        <ele>330.95</ele>
        <time>2019-09-04T09:51:49Z</time>
      </trkpt>
      <trkpt lat="43.09143" lon="1.55311">
        <ele>330.83</ele>
        <time>2019-09-04T09:52:16Z</time>
      </trkpt>
      <trkpt lat="43.0911" lon="1.55326">
        <ele>330.87</ele>
        <time>2019-09-04T09:52:43Z</time>
      </trkpt>
      <trkpt lat="43.0908" lon="1.55335">
        <ele>330.77</ele>
        <time>2019-09-04T09:53:07Z</time>
      </trkpt>
      <trkpt lat="43.09047" lon="1.55351">
        <ele>330.01</ele>
        <time>2019-09-04T09:53:32Z</time>
      </trkpt>
      <trkpt lat="43.09037" lon="1.55353">
        <ele>330</ele>
        <time>2019-09-04T09:53:41Z</time>
      </trkpt>
      <trkpt lat="43.09025" lon="1.55352">
        <ele>329.81</ele>
        <time>2019-09-04T09:53:51Z</time>
      </trkpt>
      <trkpt lat="43.09013" lon="1.55342">
        <ele>329.8</ele>
        <time>2019-09-04T09:54:04Z</time>
      </trkpt>
      <trkpt lat="43.09002" lon="1.5533">
        <ele>330.3</ele>
        <time>2019-09-04T09:54:16Z</time>
      </trkpt>
      <trkpt lat="43.09001" lon="1.55328">
        <ele>330.37</ele>
        <time>2019-09-04T09:54:17Z</time>
      </trkpt>
      <trkpt lat="43.09" lon="1.55327">
        <ele>330.42</ele>
        <time>2019-09-04T09:54:18Z</time>
      </trkpt>
      <trkpt lat="43.08996" lon="1.55324">
        <ele>330.66</ele>
        <time>2019-09-04T09:54:22Z</time>
      </trkpt>
      <trkpt lat="43.08995" lon="1.55322">
        <ele>330.74</ele>
        <time>2019-09-04T09:54:23Z</time>
      </trkpt>
      <trkpt lat="43.08993" lon="1.5532">
        <ele>330.94</ele>
        <time>2019-09-04T09:54:25Z</time>
      </trkpt>
      <trkpt lat="43.08992" lon="1.55318">
        <ele>331</ele>
        <time>2019-09-04T09:54:26Z</time>
      </trkpt>
      <trkpt lat="43.08974" lon="1.553">
        <ele>332.08</ele>
        <time>2019-09-04T09:54:44Z</time>
      </trkpt>
      <trkpt lat="43.08956" lon="1.55276">
        <ele>332.16</ele>
        <time>2019-09-04T09:55:03Z</time>
      </trkpt>
      <trkpt lat="43.08928" lon="1.55243">
        <ele>333.55</ele>
        <time>2019-09-04T09:55:30Z</time>
      </trkpt>
      <trkpt lat="43.089" lon="1.55209">
        <ele>334.19</ele>
        <time>2019-09-04T09:56:00Z</time>
      </trkpt>
      <trkpt lat="43.08867" lon="1.55169">
        <ele>335.08</ele>
        <time>2019-09-04T09:56:34Z</time>
      </trkpt>
      <trkpt lat="43.08845" lon="1.55142">
        <ele>335.62</ele>
        <time>2019-09-04T09:56:57Z</time>
      </trkpt>
      <trkpt lat="43.08833" lon="1.55128">
        <ele>335.71</ele>
        <time>2019-09-04T09:57:09Z</time>
      </trkpt>
      <trkpt lat="43.08811" lon="1.55101">
        <ele>336.34</ele>
        <time>2019-09-04T09:57:32Z</time>
      </trkpt>
      <trkpt lat="43.08793" lon="1.55079">
        <ele>336.98</ele>
        <time>2019-09-04T09:57:52Z</time>
      </trkpt>
      <trkpt lat="43.0877" lon="1.5505">
        <ele>337.39</ele>
        <time>2019-09-04T09:58:16Z</time>
      </trkpt>
      <trkpt lat="43.08752" lon="1.55029">
        <ele>338.07</ele>
        <time>2019-09-04T09:58:35Z</time>
      </trkpt>
      <trkpt lat="43.08747" lon="1.55023">
        <ele>338.37</ele>
        <time>2019-09-04T09:58:40Z</time>
      </trkpt>
      <trkpt lat="43.08746" lon="1.55022">
        <ele>338.39</ele>
        <time>2019-09-04T09:58:41Z</time>
      </trkpt>
      <trkpt lat="43.08745" lon="1.55021">
        <ele>338.4</ele>
        <time>2019-09-04T09:58:42Z</time>
      </trkpt>
      <trkpt lat="43.08733" lon="1.55007">
        <ele>338.55</ele>
        <time>2019-09-04T09:58:55Z</time>
      </trkpt>
      <trkpt lat="43.08712" lon="1.5498">
        <ele>338.49</ele>
        <time>2019-09-04T09:59:16Z</time>
      </trkpt>
      <trkpt lat="43.08711" lon="1.5498">
        <ele>338.51</ele>
        <time>2019-09-04T09:59:17Z</time>
      </trkpt>
      <trkpt lat="43.08706" lon="1.54973">
        <ele>338.96</ele>
        <time>2019-09-04T09:59:22Z</time>
      </trkpt>
      <trkpt lat="43.08705" lon="1.54972">
        <ele>339</ele>
        <time>2019-09-04T09:59:23Z</time>
      </trkpt>
      <trkpt lat="43.08692" lon="1.54958">
        <ele>339.37</ele>
        <time>2019-09-04T09:59:37Z</time>
      </trkpt>
      <trkpt lat="43.08678" lon="1.54942">
        <ele>339.77</ele>
        <time>2019-09-04T09:59:52Z</time>
      </trkpt>
      <trkpt lat="43.08666" lon="1.54928">
        <ele>339.79</ele>
        <time>2019-09-04T10:00:03Z</time>
      </trkpt>
      <trkpt lat="43.08657" lon="1.54918">
        <ele>339.61</ele>
        <time>2019-09-04T10:00:13Z</time>
      </trkpt>
      <trkpt lat="43.08647" lon="1.54906">
        <ele>339.22</ele>
        <time>2019-09-04T10:00:24Z</time>
      </trkpt>
      <trkpt lat="43.08632" lon="1.54891">
        <ele>339.06</ele>
        <time>2019-09-04T10:00:38Z</time>
      </trkpt>
      <trkpt lat="43.08631" lon="1.54889">
        <ele>339.04</ele>
        <time>2019-09-04T10:00:39Z</time>
      </trkpt>
      <trkpt lat="43.08629" lon="1.54887">
        <ele>339.04</ele>
        <time>2019-09-04T10:00:40Z</time>
      </trkpt>
      <trkpt lat="43.08628" lon="1.54886">
        <ele>339.04</ele>
        <time>2019-09-04T10:00:41Z</time>
      </trkpt>
      <trkpt lat="43.08627" lon="1.54885">
        <ele>339.04</ele>
        <time>2019-09-04T10:00:42Z</time>
      </trkpt>
      <trkpt lat="43.08613" lon="1.54869">
        <ele>339.14</ele>
        <time>2019-09-04T10:00:57Z</time>
      </trkpt>
      <trkpt lat="43.08595" lon="1.54849">
        <ele>338.73</ele>
        <time>2019-09-04T10:01:16Z</time>
      </trkpt>
      <trkpt lat="43.08594" lon="1.54848">
        <ele>338.76</ele>
        <time>2019-09-04T10:01:17Z</time>
      </trkpt>
      <trkpt lat="43.0859" lon="1.54844">
        <ele>338.83</ele>
        <time>2019-09-04T10:01:21Z</time>
      </trkpt>
      <trkpt lat="43.08587" lon="1.5484">
        <ele>338.86</ele>
        <time>2019-09-04T10:01:24Z</time>
      </trkpt>
      <trkpt lat="43.08585" lon="1.54838">
        <ele>338.9</ele>
        <time>2019-09-04T10:01:26Z</time>
      </trkpt>
      <trkpt lat="43.08582" lon="1.54835">
        <ele>338.99</ele>
        <time>2019-09-04T10:01:29Z</time>
      </trkpt>
      <trkpt lat="43.08578" lon="1.5483">
        <ele>339.01</ele>
        <time>2019-09-04T10:01:33Z</time>
      </trkpt>
      <trkpt lat="43.08574" lon="1.54827">
        <ele>338.95</ele>
        <time>2019-09-04T10:01:37Z</time>
      </trkpt>
      <trkpt lat="43.08573" lon="1.54825">
        <ele>338.9</ele>
        <time>2019-09-04T10:01:38Z</time>
      </trkpt>
      <trkpt lat="43.08559" lon="1.5481">
        <ele>338.71</ele>
        <time>2019-09-04T10:01:53Z</time>
      </trkpt>
      <trkpt lat="43.08543" lon="1.54792">
        <ele>338.93</ele>
        <time>2019-09-04T10:02:09Z</time>
      </trkpt>
      <trkpt lat="43.08527" lon="1.54774">
        <ele>339.3</ele>
        <time>2019-09-04T10:02:23Z</time>
      </trkpt>
      <trkpt lat="43.08525" lon="1.54772">
        <ele>339.31</ele>
        <time>2019-09-04T10:02:25Z</time>
      </trkpt>
      <trkpt lat="43.08524" lon="1.54771">
        <ele>339.31</ele>
        <time>2019-09-04T10:02:26Z</time>
      </trkpt>
      <trkpt lat="43.08508" lon="1.54754">
        <ele>339.6</ele>
        <time>2019-09-04T10:02:43Z</time>
      </trkpt>
      <trkpt lat="43.08507" lon="1.54753">
        <ele>339.66</ele>
        <time>2019-09-04T10:02:44Z</time>
      </trkpt>
      <trkpt lat="43.08506" lon="1.54751">
        <ele>339.72</ele>
        <time>2019-09-04T10:02:45Z</time>
      </trkpt>
      <trkpt lat="43.08505" lon="1.5475">
        <ele>339.76</ele>
        <time>2019-09-04T10:02:46Z</time>
      </trkpt>
      <trkpt lat="43.08503" lon="1.54749">
        <ele>339.8</ele>
        <time>2019-09-04T10:02:47Z</time>
      </trkpt>
      <trkpt lat="43.08502" lon="1.54748">
        <ele>339.83</ele>
        <time>2019-09-04T10:02:48Z</time>
      </trkpt>
      <trkpt lat="43.08499" lon="1.54744">
        <ele>339.91</ele>
        <time>2019-09-04T10:02:51Z</time>
      </trkpt>
      <trkpt lat="43.08479" lon="1.5472">
        <ele>340.04</ele>
        <time>2019-09-04T10:03:11Z</time>
      </trkpt>
      <trkpt lat="43.08478" lon="1.54719">
        <ele>340.03</ele>
        <time>2019-09-04T10:03:12Z</time>
      </trkpt>
      <trkpt lat="43.08475" lon="1.54714">
        <ele>339.97</ele>
        <time>2019-09-04T10:03:16Z</time>
      </trkpt>
      <trkpt lat="43.08474" lon="1.54712">
        <ele>339.93</ele>
        <time>2019-09-04T10:03:17Z</time>
      </trkpt>
      <trkpt lat="43.08473" lon="1.54711">
        <ele>339.9</ele>
        <time>2019-09-04T10:03:18Z</time>
      </trkpt>
      <trkpt lat="43.08463" lon="1.54698">
        <ele>339.94</ele>
        <time>2019-09-04T10:03:28Z</time>
      </trkpt>
      <trkpt lat="43.08462" lon="1.54697">
        <ele>339.96</ele>
        <time>2019-09-04T10:03:29Z</time>
      </trkpt>
      <trkpt lat="43.08461" lon="1.54695">
        <ele>339.97</ele>
        <time>2019-09-04T10:03:30Z</time>
      </trkpt>
      <trkpt lat="43.0846" lon="1.54694">
        <ele>339.97</ele>
        <time>2019-09-04T10:03:31Z</time>
      </trkpt>
      <trkpt lat="43.08459" lon="1.54693">
        <ele>339.97</ele>
        <time>2019-09-04T10:03:32Z</time>
      </trkpt>
      <trkpt lat="43.08436" lon="1.54662">
        <ele>339.6</ele>
        <time>2019-09-04T10:03:56Z</time>
      </trkpt>
      <trkpt lat="43.08428" lon="1.54651">
        <ele>339.62</ele>
        <time>2019-09-04T10:04:05Z</time>
      </trkpt>
      <trkpt lat="43.08426" lon="1.54647">
        <ele>339.61</ele>
        <time>2019-09-04T10:04:08Z</time>
      </trkpt>
      <trkpt lat="43.08411" lon="1.54619">
        <ele>339.62</ele>
        <time>2019-09-04T10:04:29Z</time>
      </trkpt>
      <trkpt lat="43.08397" lon="1.54591">
        <ele>340.12</ele>
        <time>2019-09-04T10:04:48Z</time>
      </trkpt>
      <trkpt lat="43.08395" lon="1.54587">
        <ele>340.15</ele>
        <time>2019-09-04T10:04:51Z</time>
      </trkpt>
      <trkpt lat="43.08394" lon="1.54586">
        <ele>340.15</ele>
        <time>2019-09-04T10:04:52Z</time>
      </trkpt>
      <trkpt lat="43.08392" lon="1.54583">
        <ele>340.18</ele>
        <time>2019-09-04T10:04:54Z</time>
      </trkpt>
      <trkpt lat="43.08372" lon="1.54538">
        <ele>341.39</ele>
        <time>2019-09-04T10:05:23Z</time>
      </trkpt>
      <trkpt lat="43.08364" lon="1.54508">
        <ele>343.11</ele>
        <time>2019-09-04T10:05:44Z</time>
      </trkpt>
      <trkpt lat="43.08347" lon="1.54461">
        <ele>343.6</ele>
        <time>2019-09-04T10:06:12Z</time>
      </trkpt>
      <trkpt lat="43.08334" lon="1.54422">
        <ele>344.49</ele>
        <time>2019-09-04T10:06:38Z</time>
      </trkpt>
      <trkpt lat="43.08324" lon="1.54382">
        <ele>346.09</ele>
        <time>2019-09-04T10:07:04Z</time>
      </trkpt>
      <trkpt lat="43.08314" lon="1.54337">
        <ele>347.96</ele>
        <time>2019-09-04T10:07:32Z</time>
      </trkpt>
      <trkpt lat="43.08298" lon="1.54313">
        <ele>349.63</ele>
        <time>2019-09-04T10:07:50Z</time>
      </trkpt>
      <trkpt lat="43.08278" lon="1.54283">
        <ele>349.76</ele>
        <time>2019-09-04T10:08:13Z</time>
      </trkpt>
      <trkpt lat="43.08264" lon="1.54257">
        <ele>350.35</ele>
        <time>2019-09-04T10:08:32Z</time>
      </trkpt>
      <trkpt lat="43.08262" lon="1.54253">
        <ele>350.6</ele>
        <time>2019-09-04T10:08:35Z</time>
      </trkpt>
      <trkpt lat="43.08262" lon="1.54252">
        <ele>350.69</ele>
        <time>2019-09-04T10:08:36Z</time>
      </trkpt>
      <trkpt lat="43.08261" lon="1.5425">
        <ele>350.78</ele>
        <time>2019-09-04T10:08:37Z</time>
      </trkpt>
      <trkpt lat="43.08247" lon="1.54216">
        <ele>351.87</ele>
        <time>2019-09-04T10:09:00Z</time>
      </trkpt>
      <trkpt lat="43.0824" lon="1.54193">
        <ele>352.55</ele>
        <time>2019-09-04T10:09:17Z</time>
      </trkpt>
      <trkpt lat="43.08239" lon="1.5419">
        <ele>352.66</ele>
        <time>2019-09-04T10:09:19Z</time>
      </trkpt>
      <trkpt lat="43.08231" lon="1.54165">
        <ele>353.03</ele>
        <time>2019-09-04T10:09:36Z</time>
      </trkpt>
      <trkpt lat="43.08224" lon="1.54145">
        <ele>353.81</ele>
        <time>2019-09-04T10:09:51Z</time>
      </trkpt>
      <trkpt lat="43.08224" lon="1.54143">
        <ele>353.89</ele>
        <time>2019-09-04T10:09:52Z</time>
      </trkpt>
      <trkpt lat="43.0822" lon="1.54137">
        <ele>354.19</ele>
        <time>2019-09-04T10:09:55Z</time>
      </trkpt>
      <trkpt lat="43.08208" lon="1.54115">
        <ele>355.15</ele>
        <time>2019-09-04T10:10:11Z</time>
      </trkpt>
      <trkpt lat="43.08197" lon="1.54094">
        <ele>355.7</ele>
        <time>2019-09-04T10:10:27Z</time>
      </trkpt>
      <trkpt lat="43.08196" lon="1.54079">
        <ele>356.17</ele>
        <time>2019-09-04T10:10:37Z</time>
      </trkpt>
      <trkpt lat="43.08196" lon="1.54078">
        <ele>356.49</ele>
        <time>2019-09-04T10:10:38Z</time>
      </trkpt>
      <trkpt lat="43.08204" lon="1.54056">
        <ele>357.3</ele>
        <time>2019-09-04T10:10:53Z</time>
      </trkpt>
      <trkpt lat="43.08206" lon="1.54053">
        <ele>357.46</ele>
        <time>2019-09-04T10:10:55Z</time>
      </trkpt>
      <trkpt lat="43.08217" lon="1.54039">
        <ele>358.23</ele>
        <time>2019-09-04T10:11:08Z</time>
      </trkpt>
      <trkpt lat="43.08227" lon="1.54017">
        <ele>359.08</ele>
        <time>2019-09-04T10:11:23Z</time>
      </trkpt>
      <trkpt lat="43.08224" lon="1.53992">
        <ele>360.13</ele>
        <time>2019-09-04T10:11:39Z</time>
      </trkpt>
      <trkpt lat="43.0822" lon="1.53974">
        <ele>360.63</ele>
        <time>2019-09-04T10:11:50Z</time>
      </trkpt>
      <trkpt lat="43.0821" lon="1.53959">
        <ele>360.92</ele>
        <time>2019-09-04T10:12:02Z</time>
      </trkpt>
      <trkpt lat="43.08198" lon="1.53955">
        <ele>361.48</ele>
        <time>2019-09-04T10:12:11Z</time>
      </trkpt>
      <trkpt lat="43.08197" lon="1.53955">
        <ele>361.54</ele>
        <time>2019-09-04T10:12:12Z</time>
      </trkpt>
      <trkpt lat="43.08172" lon="1.53948">
        <ele>362.96</ele>
        <time>2019-09-04T10:12:32Z</time>
      </trkpt>
      <trkpt lat="43.08153" lon="1.53934">
        <ele>364.14</ele>
        <time>2019-09-04T10:12:52Z</time>
      </trkpt>
      <trkpt lat="43.08131" lon="1.53913">
        <ele>365.63</ele>
        <time>2019-09-04T10:13:14Z</time>
      </trkpt>
      <trkpt lat="43.08108" lon="1.53886">
        <ele>367.2</ele>
        <time>2019-09-04T10:13:40Z</time>
      </trkpt>
      <trkpt lat="43.08081" lon="1.53857">
        <ele>369.43</ele>
        <time>2019-09-04T10:14:10Z</time>
      </trkpt>
      <trkpt lat="43.08056" lon="1.53835">
        <ele>371.17</ele>
        <time>2019-09-04T10:14:38Z</time>
      </trkpt>
      <trkpt lat="43.08035" lon="1.53811">
        <ele>373.04</ele>
        <time>2019-09-04T10:15:01Z</time>
      </trkpt>
      <trkpt lat="43.08011" lon="1.53793">
        <ele>374.67</ele>
        <time>2019-09-04T10:15:24Z</time>
      </trkpt>
      <trkpt lat="43.07991" lon="1.53767">
        <ele>376.17</ele>
        <time>2019-09-04T10:15:48Z</time>
      </trkpt>
      <trkpt lat="43.07981" lon="1.53738">
        <ele>377.69</ele>
        <time>2019-09-04T10:16:09Z</time>
      </trkpt>
      <trkpt lat="43.07974" lon="1.53706">
        <ele>379.32</ele>
        <time>2019-09-04T10:16:29Z</time>
      </trkpt>
      <trkpt lat="43.07967" lon="1.53675">
        <ele>380.25</ele>
        <time>2019-09-04T10:16:49Z</time>
      </trkpt>
      <trkpt lat="43.07961" lon="1.53656">
        <ele>381.8</ele>
        <time>2019-09-04T10:17:05Z</time>
      </trkpt>
      <trkpt lat="43.07956" lon="1.53633">
        <ele>382.42</ele>
        <time>2019-09-04T10:17:22Z</time>
      </trkpt>
      <trkpt lat="43.07954" lon="1.53624">
        <ele>382.88</ele>
        <time>2019-09-04T10:17:28Z</time>
      </trkpt>
      <trkpt lat="43.07954" lon="1.53622">
        <ele>382.97</ele>
        <time>2019-09-04T10:17:29Z</time>
      </trkpt>
      <trkpt lat="43.0795" lon="1.53603">
        <ele>383.84</ele>
        <time>2019-09-04T10:17:41Z</time>
      </trkpt>
      <trkpt lat="43.07935" lon="1.53573">
        <ele>385.27</ele>
        <time>2019-09-04T10:18:03Z</time>
      </trkpt>
      <trkpt lat="43.07919" lon="1.53546">
        <ele>386.92</ele>
        <time>2019-09-04T10:18:23Z</time>
      </trkpt>
      <trkpt lat="43.07909" lon="1.53515">
        <ele>388.36</ele>
        <time>2019-09-04T10:18:43Z</time>
      </trkpt>
      <trkpt lat="43.07901" lon="1.53495">
        <ele>389.25</ele>
        <time>2019-09-04T10:18:56Z</time>
      </trkpt>
      <trkpt lat="43.079" lon="1.53493">
        <ele>389.33</ele>
        <time>2019-09-04T10:18:57Z</time>
      </trkpt>
      <trkpt lat="43.07899" lon="1.53492">
        <ele>389.42</ele>
        <time>2019-09-04T10:18:58Z</time>
      </trkpt>
      <trkpt lat="43.07891" lon="1.53475">
        <ele>390.67</ele>
        <time>2019-09-04T10:19:15Z</time>
      </trkpt>
      <trkpt lat="43.07877" lon="1.53454">
        <ele>392.01</ele>
        <time>2019-09-04T10:19:36Z</time>
      </trkpt>
      <trkpt lat="43.07865" lon="1.53434">
        <ele>392.86</ele>
        <time>2019-09-04T10:19:54Z</time>
      </trkpt>
      <trkpt lat="43.07851" lon="1.53412">
        <ele>394.16</ele>
        <time>2019-09-04T10:20:14Z</time>
      </trkpt>
      <trkpt lat="43.07835" lon="1.53395">
        <ele>396.01</ele>
        <time>2019-09-04T10:20:32Z</time>
      </trkpt>
      <trkpt lat="43.07813" lon="1.53373">
        <ele>397.39</ele>
        <time>2019-09-04T10:20:51Z</time>
      </trkpt>
      <trkpt lat="43.07797" lon="1.53357">
        <ele>398.51</ele>
        <time>2019-09-04T10:21:08Z</time>
      </trkpt>
      <trkpt lat="43.07783" lon="1.5333">
        <ele>399.78</ele>
        <time>2019-09-04T10:21:28Z</time>
      </trkpt>
      <trkpt lat="43.0779" lon="1.53311">
        <ele>401.01</ele>
        <time>2019-09-04T10:21:47Z</time>
      </trkpt>
      <trkpt lat="43.0782" lon="1.53321">
        <ele>401.73</ele>
        <time>2019-09-04T10:22:06Z</time>
      </trkpt>
      <trkpt lat="43.07838" lon="1.53333">
        <ele>403.72</ele>
        <time>2019-09-04T10:22:24Z</time>
      </trkpt>
      <trkpt lat="43.07858" lon="1.53353">
        <ele>404.43</ele>
        <time>2019-09-04T10:22:44Z</time>
      </trkpt>
      <trkpt lat="43.07876" lon="1.53377">
        <ele>406.19</ele>
        <time>2019-09-04T10:23:07Z</time>
      </trkpt>
      <trkpt lat="43.07902" lon="1.53396">
        <ele>407.87</ele>
        <time>2019-09-04T10:23:35Z</time>
      </trkpt>
      <trkpt lat="43.07921" lon="1.53407">
        <ele>409.11</ele>
        <time>2019-09-04T10:23:53Z</time>
      </trkpt>
      <trkpt lat="43.07942" lon="1.53418">
        <ele>410.48</ele>
        <time>2019-09-04T10:24:14Z</time>
      </trkpt>
      <trkpt lat="43.07967" lon="1.53425">
        <ele>411.79</ele>
        <time>2019-09-04T10:24:33Z</time>
      </trkpt>
      <trkpt lat="43.07987" lon="1.53435">
        <ele>412.81</ele>
        <time>2019-09-04T10:24:50Z</time>
      </trkpt>
      <trkpt lat="43.08002" lon="1.53452">
        <ele>413.74</ele>
        <time>2019-09-04T10:25:08Z</time>
      </trkpt>
      <trkpt lat="43.08013" lon="1.5347">
        <ele>415.11</ele>
        <time>2019-09-04T10:25:25Z</time>
      </trkpt>
      <trkpt lat="43.08026" lon="1.53448">
        <ele>415.98</ele>
        <time>2019-09-04T10:25:43Z</time>
      </trkpt>
      <trkpt lat="43.08011" lon="1.53428">
        <ele>417.17</ele>
        <time>2019-09-04T10:25:59Z</time>
      </trkpt>
      <trkpt lat="43.07994" lon="1.53407">
        <ele>418.22</ele>
        <time>2019-09-04T10:26:17Z</time>
      </trkpt>
      <trkpt lat="43.07983" lon="1.5339">
        <ele>419.11</ele>
        <time>2019-09-04T10:26:33Z</time>
      </trkpt>
      <trkpt lat="43.07978" lon="1.53382">
        <ele>419.48</ele>
        <time>2019-09-04T10:26:39Z</time>
      </trkpt>
      <trkpt lat="43.07965" lon="1.53362">
        <ele>420.28</ele>
        <time>2019-09-04T10:26:54Z</time>
      </trkpt>
      <trkpt lat="43.07952" lon="1.53342">
        <ele>421.47</ele>
        <time>2019-09-04T10:27:09Z</time>
      </trkpt>
      <trkpt lat="43.07938" lon="1.53322">
        <ele>422.67</ele>
        <time>2019-09-04T10:27:27Z</time>
      </trkpt>
      <trkpt lat="43.07921" lon="1.53301">
        <ele>424.35</ele>
        <time>2019-09-04T10:27:48Z</time>
      </trkpt>
      <trkpt lat="43.0791" lon="1.53283">
        <ele>425.53</ele>
        <time>2019-09-04T10:28:03Z</time>
      </trkpt>
      <trkpt lat="43.07896" lon="1.53264">
        <ele>427.15</ele>
        <time>2019-09-04T10:28:20Z</time>
      </trkpt>
      <trkpt lat="43.07887" lon="1.53248">
        <ele>428.11</ele>
        <time>2019-09-04T10:28:36Z</time>
      </trkpt>
      <trkpt lat="43.07882" lon="1.5324">
        <ele>428.6</ele>
        <time>2019-09-04T10:28:43Z</time>
      </trkpt>
      <trkpt lat="43.07881" lon="1.53239">
        <ele>428.67</ele>
        <time>2019-09-04T10:28:44Z</time>
      </trkpt>
      <trkpt lat="43.07873" lon="1.53219">
        <ele>429.67</ele>
        <time>2019-09-04T10:28:58Z</time>
      </trkpt>
      <trkpt lat="43.07871" lon="1.53193">
        <ele>430.62</ele>
        <time>2019-09-04T10:29:14Z</time>
      </trkpt>
      <trkpt lat="43.07874" lon="1.53172">
        <ele>431.76</ele>
        <time>2019-09-04T10:29:28Z</time>
      </trkpt>
      <trkpt lat="43.07881" lon="1.53155">
        <ele>432.69</ele>
        <time>2019-09-04T10:29:41Z</time>
      </trkpt>
      <trkpt lat="43.0789" lon="1.53134">
        <ele>433.22</ele>
        <time>2019-09-04T10:29:58Z</time>
      </trkpt>
      <trkpt lat="43.07904" lon="1.53111">
        <ele>433.61</ele>
        <time>2019-09-04T10:30:12Z</time>
      </trkpt>
      <trkpt lat="43.07907" lon="1.53084">
        <ele>434.68</ele>
        <time>2019-09-04T10:30:30Z</time>
      </trkpt>
      <trkpt lat="43.07901" lon="1.53054">
        <ele>435.86</ele>
        <time>2019-09-04T10:30:47Z</time>
      </trkpt>
      <trkpt lat="43.07897" lon="1.53038">
        <ele>436.86</ele>
        <time>2019-09-04T10:30:58Z</time>
      </trkpt>
      <trkpt lat="43.07893" lon="1.53011">
        <ele>438.12</ele>
        <time>2019-09-04T10:31:17Z</time>
      </trkpt>
      <trkpt lat="43.07892" lon="1.52985">
        <ele>439.34</ele>
        <time>2019-09-04T10:31:35Z</time>
      </trkpt>
      <trkpt lat="43.07893" lon="1.52964">
        <ele>439.77</ele>
        <time>2019-09-04T10:31:48Z</time>
      </trkpt>
      <trkpt lat="43.07892" lon="1.52941">
        <ele>441.14</ele>
        <time>2019-09-04T10:32:04Z</time>
      </trkpt>
      <trkpt lat="43.07888" lon="1.52916">
        <ele>442.28</ele>
        <time>2019-09-04T10:32:20Z</time>
      </trkpt>
      <trkpt lat="43.07887" lon="1.529">
        <ele>443.58</ele>
        <time>2019-09-04T10:32:32Z</time>
      </trkpt>
      <trkpt lat="43.07887" lon="1.52871">
        <ele>444.65</ele>
        <time>2019-09-04T10:32:50Z</time>
      </trkpt>
      <trkpt lat="43.07893" lon="1.52842">
        <ele>445.99</ele>
        <time>2019-09-04T10:33:09Z</time>
      </trkpt>
      <trkpt lat="43.07906" lon="1.52823">
        <ele>446.78</ele>
        <time>2019-09-04T10:33:24Z</time>
      </trkpt>
      <trkpt lat="43.07907" lon="1.52799">
        <ele>447.58</ele>
        <time>2019-09-04T10:33:40Z</time>
      </trkpt>
      <trkpt lat="43.07888" lon="1.52796">
        <ele>448.38</ele>
        <time>2019-09-04T10:33:56Z</time>
      </trkpt>
      <trkpt lat="43.07887" lon="1.52797">
        <ele>448.43</ele>
        <time>2019-09-04T10:33:57Z</time>
      </trkpt>
      <trkpt lat="43.07877" lon="1.52811">
        <ele>448.69</ele>
        <time>2019-09-04T10:34:06Z</time>
      </trkpt>
      <trkpt lat="43.07868" lon="1.52828">
        <ele>449.3</ele>
        <time>2019-09-04T10:34:19Z</time>
      </trkpt>
      <trkpt lat="43.07853" lon="1.52851">
        <ele>450.12</ele>
        <time>2019-09-04T10:34:39Z</time>
      </trkpt>
      <trkpt lat="43.07842" lon="1.5288">
        <ele>451.54</ele>
        <time>2019-09-04T10:34:59Z</time>
      </trkpt>
      <trkpt lat="43.07835" lon="1.52905">
        <ele>452.51</ele>
        <time>2019-09-04T10:35:14Z</time>
      </trkpt>
      <trkpt lat="43.07827" lon="1.5293">
        <ele>453.65</ele>
        <time>2019-09-04T10:35:33Z</time>
      </trkpt>
      <trkpt lat="43.07811" lon="1.52955">
        <ele>454.88</ele>
        <time>2019-09-04T10:35:54Z</time>
      </trkpt>
      <trkpt lat="43.07787" lon="1.52953">
        <ele>455.84</ele>
        <time>2019-09-04T10:36:13Z</time>
      </trkpt>
      <trkpt lat="43.07775" lon="1.52926">
        <ele>457.03</ele>
        <time>2019-09-04T10:36:31Z</time>
      </trkpt>
      <trkpt lat="43.07761" lon="1.52895">
        <ele>458.57</ele>
        <time>2019-09-04T10:36:54Z</time>
      </trkpt>
      <trkpt lat="43.07746" lon="1.52879">
        <ele>459.64</ele>
        <time>2019-09-04T10:37:10Z</time>
      </trkpt>
      <trkpt lat="43.07731" lon="1.52868">
        <ele>461</ele>
        <time>2019-09-04T10:37:25Z</time>
      </trkpt>
      <trkpt lat="43.07714" lon="1.52854">
        <ele>462.01</ele>
        <time>2019-09-04T10:37:43Z</time>
      </trkpt>
      <trkpt lat="43.07694" lon="1.52836">
        <ele>463.3</ele>
        <time>2019-09-04T10:38:02Z</time>
      </trkpt>
      <trkpt lat="43.07686" lon="1.52825">
        <ele>463.8</ele>
        <time>2019-09-04T10:38:10Z</time>
      </trkpt>
      <trkpt lat="43.07673" lon="1.52807">
        <ele>464.89</ele>
        <time>2019-09-04T10:38:25Z</time>
      </trkpt>
      <trkpt lat="43.07662" lon="1.52791">
        <ele>465.86</ele>
        <time>2019-09-04T10:38:41Z</time>
      </trkpt>
      <trkpt lat="43.07648" lon="1.52772">
        <ele>467.29</ele>
        <time>2019-09-04T10:39:01Z</time>
      </trkpt>
      <trkpt lat="43.0763" lon="1.52761">
        <ele>468.8</ele>
        <time>2019-09-04T10:39:20Z</time>
      </trkpt>
      <trkpt lat="43.07613" lon="1.52756">
        <ele>470.08</ele>
        <time>2019-09-04T10:39:39Z</time>
      </trkpt>
      <trkpt lat="43.07588" lon="1.52745">
        <ele>471.71</ele>
        <time>2019-09-04T10:39:59Z</time>
      </trkpt>
      <trkpt lat="43.07571" lon="1.52733">
        <ele>472.95</ele>
        <time>2019-09-04T10:40:16Z</time>
      </trkpt>
      <trkpt lat="43.07551" lon="1.5272">
        <ele>474.24</ele>
        <time>2019-09-04T10:40:35Z</time>
      </trkpt>
      <trkpt lat="43.07528" lon="1.52721">
        <ele>475.14</ele>
        <time>2019-09-04T10:40:54Z</time>
      </trkpt>
      <trkpt lat="43.07527" lon="1.52721">
        <ele>475.1</ele>
        <time>2019-09-04T10:40:55Z</time>
      </trkpt>
      <trkpt lat="43.07511" lon="1.52725">
        <ele>476.7</ele>
        <time>2019-09-04T10:41:10Z</time>
      </trkpt>
      <trkpt lat="43.07489" lon="1.52727">
        <ele>477.68</ele>
        <time>2019-09-04T10:41:29Z</time>
      </trkpt>
      <trkpt lat="43.07472" lon="1.52733">
        <ele>478.89</ele>
        <time>2019-09-04T10:41:46Z</time>
      </trkpt>
      <trkpt lat="43.07455" lon="1.52734">
        <ele>480.05</ele>
        <time>2019-09-04T10:42:02Z</time>
      </trkpt>
      <trkpt lat="43.07454" lon="1.52713">
        <ele>481.07</ele>
        <time>2019-09-04T10:42:19Z</time>
      </trkpt>
      <trkpt lat="43.07458" lon="1.52712">
        <ele>481.37</ele>
        <time>2019-09-04T10:42:25Z</time>
      </trkpt>
      <trkpt lat="43.07475" lon="1.52704">
        <ele>482.19</ele>
        <time>2019-09-04T10:42:42Z</time>
      </trkpt>
      <trkpt lat="43.07497" lon="1.52687">
        <ele>483.15</ele>
        <time>2019-09-04T10:42:59Z</time>
      </trkpt>
      <trkpt lat="43.07508" lon="1.52676">
        <ele>484.16</ele>
        <time>2019-09-04T10:43:15Z</time>
      </trkpt>
      <trkpt lat="43.07526" lon="1.52657">
        <ele>484.77</ele>
        <time>2019-09-04T10:43:30Z</time>
      </trkpt>
      <trkpt lat="43.07537" lon="1.5264">
        <ele>486.34</ele>
        <time>2019-09-04T10:43:45Z</time>
      </trkpt>
      <trkpt lat="43.07542" lon="1.52619">
        <ele>487.11</ele>
        <time>2019-09-04T10:43:58Z</time>
      </trkpt>
      <trkpt lat="43.07546" lon="1.52597">
        <ele>487.9</ele>
        <time>2019-09-04T10:44:14Z</time>
      </trkpt>
      <trkpt lat="43.07545" lon="1.52575">
        <ele>489.26</ele>
        <time>2019-09-04T10:44:32Z</time>
      </trkpt>
      <trkpt lat="43.07533" lon="1.52575">
        <ele>490.06</ele>
        <time>2019-09-04T10:44:48Z</time>
      </trkpt>
      <trkpt lat="43.07529" lon="1.5258">
        <ele>490.27</ele>
        <time>2019-09-04T10:44:51Z</time>
      </trkpt>
      <trkpt lat="43.07515" lon="1.5261">
        <ele>491.32</ele>
        <time>2019-09-04T10:45:09Z</time>
      </trkpt>
      <trkpt lat="43.075" lon="1.52623">
        <ele>491.98</ele>
        <time>2019-09-04T10:45:24Z</time>
      </trkpt>
      <trkpt lat="43.07479" lon="1.52632">
        <ele>492.8</ele>
        <time>2019-09-04T10:45:43Z</time>
      </trkpt>
      <trkpt lat="43.07464" lon="1.52619">
        <ele>494.41</ele>
        <time>2019-09-04T10:46:01Z</time>
      </trkpt>
      <trkpt lat="43.07446" lon="1.52589">
        <ele>495.91</ele>
        <time>2019-09-04T10:46:22Z</time>
      </trkpt>
      <trkpt lat="43.07428" lon="1.52574">
        <ele>497.2</ele>
        <time>2019-09-04T10:46:41Z</time>
      </trkpt>
      <trkpt lat="43.07416" lon="1.52565">
        <ele>498</ele>
        <time>2019-09-04T10:46:53Z</time>
      </trkpt>
      <trkpt lat="43.07413" lon="1.52563">
        <ele>498.33</ele>
        <time>2019-09-04T10:46:56Z</time>
      </trkpt>
      <trkpt lat="43.07412" lon="1.52561">
        <ele>498.42</ele>
        <time>2019-09-04T10:46:57Z</time>
      </trkpt>
      <trkpt lat="43.0739" lon="1.52535">
        <ele>499.77</ele>
        <time>2019-09-04T10:47:19Z</time>
      </trkpt>
      <trkpt lat="43.07376" lon="1.52494">
        <ele>501.63</ele>
        <time>2019-09-04T10:47:45Z</time>
      </trkpt>
      <trkpt lat="43.07365" lon="1.52456">
        <ele>503.21</ele>
        <time>2019-09-04T10:48:09Z</time>
      </trkpt>
      <trkpt lat="43.07362" lon="1.52439">
        <ele>504.64</ele>
        <time>2019-09-04T10:48:24Z</time>
      </trkpt>
      <trkpt lat="43.07362" lon="1.52427">
        <ele>505.4</ele>
        <time>2019-09-04T10:48:33Z</time>
      </trkpt>
      <trkpt lat="43.07363" lon="1.52392">
        <ele>507.27</ele>
        <time>2019-09-04T10:48:53Z</time>
      </trkpt>
      <trkpt lat="43.0736" lon="1.52366">
        <ele>508.79</ele>
        <time>2019-09-04T10:49:12Z</time>
      </trkpt>
      <trkpt lat="43.07356" lon="1.52343">
        <ele>510.14</ele>
        <time>2019-09-04T10:49:30Z</time>
      </trkpt>
      <trkpt lat="43.07355" lon="1.52318">
        <ele>511.86</ele>
        <time>2019-09-04T10:49:49Z</time>
      </trkpt>
      <trkpt lat="43.07355" lon="1.52316">
        <ele>512.87</ele>
        <time>2019-09-04T10:50:11Z</time>
      </trkpt>
      <trkpt lat="43.07359" lon="1.52316">
        <ele>512.87</ele>
        <time>2019-09-04T10:50:37Z</time>
      </trkpt>
      <trkpt lat="43.07361" lon="1.52315">
        <ele>512.84</ele>
        <time>2019-09-04T10:50:59Z</time>
      </trkpt>
      <trkpt lat="43.07365" lon="1.52313">
        <ele>512.84</ele>
        <time>2019-09-04T10:51:24Z</time>
      </trkpt>
      <trkpt lat="43.07367" lon="1.52314">
        <ele>512.84</ele>
        <time>2019-09-04T10:51:55Z</time>
      </trkpt>
      <trkpt lat="43.07365" lon="1.52315">
        <ele>512.84</ele>
        <time>2019-09-04T10:52:24Z</time>
      </trkpt>
      <trkpt lat="43.07365" lon="1.52316">
        <ele>512.84</ele>
        <time>2019-09-04T10:52:57Z</time>
      </trkpt>
      <trkpt lat="43.07366" lon="1.52316">
        <ele>512.84</ele>
        <time>2019-09-04T10:53:31Z</time>
      </trkpt>
      <trkpt lat="43.07364" lon="1.52314">
        <ele>512.84</ele>
        <time>2019-09-04T10:54:13Z</time>
      </trkpt>
      <trkpt lat="43.07364" lon="1.52316">
        <ele>512.84</ele>
        <time>2019-09-04T10:54:43Z</time>
      </trkpt>
      <trkpt lat="43.07366" lon="1.52317">
        <ele>512.84</ele>
        <time>2019-09-04T10:55:30Z</time>
      </trkpt>
      <trkpt lat="43.07367" lon="1.5232">
        <ele>512.84</ele>
        <time>2019-09-04T10:56:11Z</time>
      </trkpt>
      <trkpt lat="43.07367" lon="1.52317">
        <ele>512.84</ele>
        <time>2019-09-04T10:56:37Z</time>
      </trkpt>
      <trkpt lat="43.07366" lon="1.52325">
        <ele>512.84</ele>
        <time>2019-09-04T10:57:16Z</time>
      </trkpt>
      <trkpt lat="43.07367" lon="1.52323">
        <ele>512.84</ele>
        <time>2019-09-04T10:57:33Z</time>
      </trkpt>
      <trkpt lat="43.07368" lon="1.52319">
        <ele>512.84</ele>
        <time>2019-09-04T10:58:15Z</time>
      </trkpt>
      <trkpt lat="43.07366" lon="1.52318">
        <ele>512.84</ele>
        <time>2019-09-04T10:58:19Z</time>
      </trkpt>
      <trkpt lat="43.07364" lon="1.52316">
        <ele>512.84</ele>
        <time>2019-09-04T10:58:40Z</time>
      </trkpt>
      <trkpt lat="43.07363" lon="1.52319">
        <ele>512.84</ele>
        <time>2019-09-04T10:59:10Z</time>
      </trkpt>
      <trkpt lat="43.07362" lon="1.5232">
        <ele>512.84</ele>
        <time>2019-09-04T10:59:37Z</time>
      </trkpt>
      <trkpt lat="43.07363" lon="1.52317">
        <ele>512.84</ele>
        <time>2019-09-04T11:00:07Z</time>
      </trkpt>
      <trkpt lat="43.07366" lon="1.52316">
        <ele>512.84</ele>
        <time>2019-09-04T11:00:25Z</time>
      </trkpt>
      <trkpt lat="43.07368" lon="1.52317">
        <ele>512.84</ele>
        <time>2019-09-04T11:00:38Z</time>
      </trkpt>
      <trkpt lat="43.07366" lon="1.52321">
        <ele>512.84</ele>
        <time>2019-09-04T11:01:14Z</time>
      </trkpt>
      <trkpt lat="43.07369" lon="1.5232">
        <ele>512.84</ele>
        <time>2019-09-04T11:02:15Z</time>
      </trkpt>
      <trkpt lat="43.0737" lon="1.5232">
        <ele>512.84</ele>
        <time>2019-09-04T11:02:43Z</time>
      </trkpt>
      <trkpt lat="43.0737" lon="1.52318">
        <ele>512.84</ele>
        <time>2019-09-04T11:03:11Z</time>
      </trkpt>
      <trkpt lat="43.07371" lon="1.52316">
        <ele>512.84</ele>
        <time>2019-09-04T11:03:58Z</time>
      </trkpt>
      <trkpt lat="43.07366" lon="1.52302">
        <ele>516.02</ele>
        <time>2019-09-04T11:04:26Z</time>
      </trkpt>
      <trkpt lat="43.07361" lon="1.52277">
        <ele>517.86</ele>
        <time>2019-09-04T11:04:43Z</time>
      </trkpt>
      <trkpt lat="43.07362" lon="1.52246">
        <ele>519.07</ele>
        <time>2019-09-04T11:05:00Z</time>
      </trkpt>
      <trkpt lat="43.07368" lon="1.52215">
        <ele>520.42</ele>
        <time>2019-09-04T11:05:18Z</time>
      </trkpt>
      <trkpt lat="43.07374" lon="1.52187">
        <ele>521.89</ele>
        <time>2019-09-04T11:05:35Z</time>
      </trkpt>
      <trkpt lat="43.07375" lon="1.52169">
        <ele>522.73</ele>
        <time>2019-09-04T11:05:45Z</time>
      </trkpt>
      <trkpt lat="43.07374" lon="1.52167">
        <ele>522.8</ele>
        <time>2019-09-04T11:05:46Z</time>
      </trkpt>
      <trkpt lat="43.07374" lon="1.52165">
        <ele>522.88</ele>
        <time>2019-09-04T11:05:47Z</time>
      </trkpt>
      <trkpt lat="43.0737" lon="1.52134">
        <ele>524.06</ele>
        <time>2019-09-04T11:06:05Z</time>
      </trkpt>
      <trkpt lat="43.07364" lon="1.52113">
        <ele>525.07</ele>
        <time>2019-09-04T11:06:20Z</time>
      </trkpt>
      <trkpt lat="43.07355" lon="1.52087">
        <ele>526.37</ele>
        <time>2019-09-04T11:06:38Z</time>
      </trkpt>
      <trkpt lat="43.07351" lon="1.52068">
        <ele>527.37</ele>
        <time>2019-09-04T11:06:50Z</time>
      </trkpt>
      <trkpt lat="43.07348" lon="1.5203">
        <ele>529.19</ele>
        <time>2019-09-04T11:07:11Z</time>
      </trkpt>
      <trkpt lat="43.0735" lon="1.52005">
        <ele>530.76</ele>
        <time>2019-09-04T11:07:29Z</time>
      </trkpt>
      <trkpt lat="43.07354" lon="1.51992">
        <ele>531.19</ele>
        <time>2019-09-04T11:07:39Z</time>
      </trkpt>
      <trkpt lat="43.07358" lon="1.51972">
        <ele>531.72</ele>
        <time>2019-09-04T11:07:51Z</time>
      </trkpt>
      <trkpt lat="43.07363" lon="1.51944">
        <ele>531.17</ele>
        <time>2019-09-04T11:08:07Z</time>
      </trkpt>
      <trkpt lat="43.07371" lon="1.51912">
        <ele>529.47</ele>
        <time>2019-09-04T11:08:27Z</time>
      </trkpt>
      <trkpt lat="43.07363" lon="1.51888">
        <ele>528.14</ele>
        <time>2019-09-04T11:08:43Z</time>
      </trkpt>
      <trkpt lat="43.07345" lon="1.51902">
        <ele>527.46</ele>
        <time>2019-09-04T11:08:59Z</time>
      </trkpt>
      <trkpt lat="43.07332" lon="1.51923">
        <ele>525.96</ele>
        <time>2019-09-04T11:09:14Z</time>
      </trkpt>
      <trkpt lat="43.073" lon="1.51952">
        <ele>523.62</ele>
        <time>2019-09-04T11:09:42Z</time>
      </trkpt>
      <trkpt lat="43.07281" lon="1.5196">
        <ele>522.02</ele>
        <time>2019-09-04T11:09:59Z</time>
      </trkpt>
      <trkpt lat="43.07281" lon="1.51958">
        <ele>521.94</ele>
        <time>2019-09-04T11:10:00Z</time>
      </trkpt>
      <trkpt lat="43.0728" lon="1.51956">
        <ele>521.84</ele>
        <time>2019-09-04T11:10:01Z</time>
      </trkpt>
      <trkpt lat="43.07281" lon="1.51954">
        <ele>521.71</ele>
        <time>2019-09-04T11:10:02Z</time>
      </trkpt>
      <trkpt lat="43.07281" lon="1.51953">
        <ele>521.6</ele>
        <time>2019-09-04T11:10:03Z</time>
      </trkpt>
      <trkpt lat="43.07281" lon="1.51951">
        <ele>521.5</ele>
        <time>2019-09-04T11:10:04Z</time>
      </trkpt>
      <trkpt lat="43.07282" lon="1.51949">
        <ele>521.4</ele>
        <time>2019-09-04T11:10:05Z</time>
      </trkpt>
      <trkpt lat="43.07282" lon="1.51947">
        <ele>521.31</ele>
        <time>2019-09-04T11:10:06Z</time>
      </trkpt>
      <trkpt lat="43.07296" lon="1.51921">
        <ele>519.93</ele>
        <time>2019-09-04T11:10:23Z</time>
      </trkpt>
      <trkpt lat="43.07306" lon="1.51866">
        <ele>517.42</ele>
        <time>2019-09-04T11:10:52Z</time>
      </trkpt>
      <trkpt lat="43.07314" lon="1.51816">
        <ele>514.78</ele>
        <time>2019-09-04T11:11:19Z</time>
      </trkpt>
      <trkpt lat="43.07318" lon="1.51785">
        <ele>513.26</ele>
        <time>2019-09-04T11:11:43Z</time>
      </trkpt>
      <trkpt lat="43.07319" lon="1.51785">
        <ele>513.65</ele>
        <time>2019-09-04T11:12:35Z</time>
      </trkpt>
      <trkpt lat="43.07319" lon="1.51785">
        <ele>513.91</ele>
        <time>2019-09-04T11:12:44Z</time>
      </trkpt>
      <trkpt lat="43.07319" lon="1.51784">
        <ele>513.78</ele>
        <time>2019-09-04T11:13:04Z</time>
      </trkpt>
      <trkpt lat="43.0732" lon="1.51784">
        <ele>513.78</ele>
        <time>2019-09-04T11:13:51Z</time>
      </trkpt>
      <trkpt lat="43.0732" lon="1.51784">
        <ele>513.78</ele>
        <time>2019-09-04T11:14:45Z</time>
      </trkpt>
      <trkpt lat="43.0732" lon="1.51784">
        <ele>513.78</ele>
        <time>2019-09-04T11:15:07Z</time>
      </trkpt>
      <trkpt lat="43.07319" lon="1.51786">
        <ele>513.78</ele>
        <time>2019-09-04T11:15:37Z</time>
      </trkpt>
      <trkpt lat="43.0732" lon="1.51786">
        <ele>513.78</ele>
        <time>2019-09-04T11:16:08Z</time>
      </trkpt>
      <trkpt lat="43.0732" lon="1.51785">
        <ele>513.78</ele>
        <time>2019-09-04T11:16:46Z</time>
      </trkpt>
      <trkpt lat="43.0732" lon="1.51786">
        <ele>513.78</ele>
        <time>2019-09-04T11:17:16Z</time>
      </trkpt>
      <trkpt lat="43.07321" lon="1.51787">
        <ele>513.78</ele>
        <time>2019-09-04T11:17:48Z</time>
      </trkpt>
      <trkpt lat="43.07319" lon="1.51787">
        <ele>513.78</ele>
        <time>2019-09-04T11:18:16Z</time>
      </trkpt>
      <trkpt lat="43.07318" lon="1.51787">
        <ele>513.78</ele>
        <time>2019-09-04T11:18:59Z</time>
      </trkpt>
      <trkpt lat="43.07318" lon="1.51786">
        <ele>513.78</ele>
        <time>2019-09-04T11:19:47Z</time>
      </trkpt>
      <trkpt lat="43.07318" lon="1.51786">
        <ele>513.78</ele>
        <time>2019-09-04T11:20:25Z</time>
      </trkpt>
      <trkpt lat="43.07319" lon="1.51785">
        <ele>513.78</ele>
        <time>2019-09-04T11:20:31Z</time>
      </trkpt>
      <trkpt lat="43.07319" lon="1.51784">
        <ele>513.78</ele>
        <time>2019-09-04T11:20:32Z</time>
      </trkpt>
      <trkpt lat="43.07319" lon="1.51783">
        <ele>513.78</ele>
        <time>2019-09-04T11:20:33Z</time>
      </trkpt>
      <trkpt lat="43.0732" lon="1.51781">
        <ele>513.78</ele>
        <time>2019-09-04T11:20:34Z</time>
      </trkpt>
      <trkpt lat="43.0732" lon="1.51779">
        <ele>513.78</ele>
        <time>2019-09-04T11:20:35Z</time>
      </trkpt>
      <trkpt lat="43.07324" lon="1.51752">
        <ele>512.81</ele>
        <time>2019-09-04T11:20:54Z</time>
      </trkpt>
      <trkpt lat="43.07324" lon="1.51751">
        <ele>512.84</ele>
        <time>2019-09-04T11:20:55Z</time>
      </trkpt>
      <trkpt lat="43.07325" lon="1.5175">
        <ele>512.86</ele>
        <time>2019-09-04T11:20:56Z</time>
      </trkpt>
      <trkpt lat="43.07325" lon="1.51748">
        <ele>512.87</ele>
        <time>2019-09-04T11:20:57Z</time>
      </trkpt>
      <trkpt lat="43.07325" lon="1.51746">
        <ele>512.88</ele>
        <time>2019-09-04T11:20:58Z</time>
      </trkpt>
      <trkpt lat="43.07326" lon="1.51744">
        <ele>512.85</ele>
        <time>2019-09-04T11:20:59Z</time>
      </trkpt>
      <trkpt lat="43.07326" lon="1.51742">
        <ele>512.73</ele>
        <time>2019-09-04T11:21:00Z</time>
      </trkpt>
      <trkpt lat="43.0733" lon="1.51698">
        <ele>510.1</ele>
        <time>2019-09-04T11:21:23Z</time>
      </trkpt>
      <trkpt lat="43.07333" lon="1.51655">
        <ele>507.72</ele>
        <time>2019-09-04T11:21:46Z</time>
      </trkpt>
      <trkpt lat="43.0733" lon="1.51618">
        <ele>506.62</ele>
        <time>2019-09-04T11:22:06Z</time>
      </trkpt>
      <trkpt lat="43.07324" lon="1.5156">
        <ele>504.56</ele>
        <time>2019-09-04T11:22:35Z</time>
      </trkpt>
      <trkpt lat="43.07315" lon="1.51498">
        <ele>502.34</ele>
        <time>2019-09-04T11:23:08Z</time>
      </trkpt>
      <trkpt lat="43.07308" lon="1.51446">
        <ele>500.41</ele>
        <time>2019-09-04T11:23:36Z</time>
      </trkpt>
      <trkpt lat="43.07305" lon="1.51399">
        <ele>499.22</ele>
        <time>2019-09-04T11:24:01Z</time>
      </trkpt>
      <trkpt lat="43.073" lon="1.51336">
        <ele>498.12</ele>
        <time>2019-09-04T11:24:35Z</time>
      </trkpt>
      <trkpt lat="43.07295" lon="1.51281">
        <ele>495.63</ele>
        <time>2019-09-04T11:25:04Z</time>
      </trkpt>
      <trkpt lat="43.07289" lon="1.51224">
        <ele>492.56</ele>
        <time>2019-09-04T11:25:35Z</time>
      </trkpt>
      <trkpt lat="43.07284" lon="1.5117">
        <ele>489.5</ele>
        <time>2019-09-04T11:26:03Z</time>
      </trkpt>
      <trkpt lat="43.07279" lon="1.51131">
        <ele>486.4</ele>
        <time>2019-09-04T11:26:24Z</time>
      </trkpt>
      <trkpt lat="43.07258" lon="1.51094">
        <ele>485</ele>
        <time>2019-09-04T11:26:46Z</time>
      </trkpt>
      <trkpt lat="43.07241" lon="1.5108">
        <ele>484.08</ele>
        <time>2019-09-04T11:27:01Z</time>
      </trkpt>
      <trkpt lat="43.07237" lon="1.51062">
        <ele>484.52</ele>
        <time>2019-09-04T11:27:14Z</time>
      </trkpt>
      <trkpt lat="43.07236" lon="1.51059">
        <ele>484.59</ele>
        <time>2019-09-04T11:27:15Z</time>
      </trkpt>
      <trkpt lat="43.07239" lon="1.51032">
        <ele>485.48</ele>
        <time>2019-09-04T11:27:30Z</time>
      </trkpt>
      <trkpt lat="43.07244" lon="1.51011">
        <ele>486.21</ele>
        <time>2019-09-04T11:27:42Z</time>
      </trkpt>
      <trkpt lat="43.07247" lon="1.50987">
        <ele>487.18</ele>
        <time>2019-09-04T11:27:55Z</time>
      </trkpt>
      <trkpt lat="43.07247" lon="1.50985">
        <ele>487.26</ele>
        <time>2019-09-04T11:27:56Z</time>
      </trkpt>
      <trkpt lat="43.07249" lon="1.50951">
        <ele>488.48</ele>
        <time>2019-09-04T11:28:14Z</time>
      </trkpt>
      <trkpt lat="43.07251" lon="1.50928">
        <ele>489.18</ele>
        <time>2019-09-04T11:28:29Z</time>
      </trkpt>
      <trkpt lat="43.07251" lon="1.50917">
        <ele>489.71</ele>
        <time>2019-09-04T11:28:35Z</time>
      </trkpt>
      <trkpt lat="43.07251" lon="1.50903">
        <ele>490.31</ele>
        <time>2019-09-04T11:28:43Z</time>
      </trkpt>
      <trkpt lat="43.0725" lon="1.50869">
        <ele>491.18</ele>
        <time>2019-09-04T11:28:59Z</time>
      </trkpt>
      <trkpt lat="43.07247" lon="1.50844">
        <ele>492.47</ele>
        <time>2019-09-04T11:29:16Z</time>
      </trkpt>
      <trkpt lat="43.07246" lon="1.50843">
        <ele>492.55</ele>
        <time>2019-09-04T11:29:17Z</time>
      </trkpt>
      <trkpt lat="43.07232" lon="1.50823">
        <ele>493.76</ele>
        <time>2019-09-04T11:29:35Z</time>
      </trkpt>
      <trkpt lat="43.07221" lon="1.50819">
        <ele>494.38</ele>
        <time>2019-09-04T11:29:44Z</time>
      </trkpt>
      <trkpt lat="43.07202" lon="1.50808">
        <ele>495.41</ele>
        <time>2019-09-04T11:30:01Z</time>
      </trkpt>
      <trkpt lat="43.07177" lon="1.50785">
        <ele>496.6</ele>
        <time>2019-09-04T11:30:23Z</time>
      </trkpt>
      <trkpt lat="43.07161" lon="1.50768">
        <ele>497.63</ele>
        <time>2019-09-04T11:30:40Z</time>
      </trkpt>
      <trkpt lat="43.07138" lon="1.50752">
        <ele>498.94</ele>
        <time>2019-09-04T11:30:59Z</time>
      </trkpt>
      <trkpt lat="43.07117" lon="1.5074">
        <ele>496.44</ele>
        <time>2019-09-04T11:31:17Z</time>
      </trkpt>
      <trkpt lat="43.07116" lon="1.50739">
        <ele>496.32</ele>
        <time>2019-09-04T11:31:18Z</time>
      </trkpt>
      <trkpt lat="43.07115" lon="1.50738">
        <ele>496.23</ele>
        <time>2019-09-04T11:31:19Z</time>
      </trkpt>
      <trkpt lat="43.07114" lon="1.50737">
        <ele>496.15</ele>
        <time>2019-09-04T11:31:20Z</time>
      </trkpt>
      <trkpt lat="43.07113" lon="1.50736">
        <ele>496.05</ele>
        <time>2019-09-04T11:31:21Z</time>
      </trkpt>
      <trkpt lat="43.07107" lon="1.50715">
        <ele>494.3</ele>
        <time>2019-09-04T11:31:36Z</time>
      </trkpt>
      <trkpt lat="43.07107" lon="1.50698">
        <ele>493.05</ele>
        <time>2019-09-04T11:31:45Z</time>
      </trkpt>
      <trkpt lat="43.07105" lon="1.50672">
        <ele>491.29</ele>
        <time>2019-09-04T11:31:58Z</time>
      </trkpt>
      <trkpt lat="43.07106" lon="1.5067">
        <ele>491.19</ele>
        <time>2019-09-04T11:31:59Z</time>
      </trkpt>
      <trkpt lat="43.07106" lon="1.50668">
        <ele>491.07</ele>
        <time>2019-09-04T11:32:00Z</time>
      </trkpt>
      <trkpt lat="43.07106" lon="1.50667">
        <ele>490.95</ele>
        <time>2019-09-04T11:32:01Z</time>
      </trkpt>
      <trkpt lat="43.07103" lon="1.5064">
        <ele>489.37</ele>
        <time>2019-09-04T11:32:14Z</time>
      </trkpt>
      <trkpt lat="43.07102" lon="1.50638">
        <ele>489.04</ele>
        <time>2019-09-04T11:32:15Z</time>
      </trkpt>
      <trkpt lat="43.071" lon="1.50637">
        <ele>488.89</ele>
        <time>2019-09-04T11:32:16Z</time>
      </trkpt>
      <trkpt lat="43.07099" lon="1.50637">
        <ele>488.75</ele>
        <time>2019-09-04T11:32:17Z</time>
      </trkpt>
      <trkpt lat="43.07097" lon="1.50637">
        <ele>488.62</ele>
        <time>2019-09-04T11:32:18Z</time>
      </trkpt>
      <trkpt lat="43.07096" lon="1.50637">
        <ele>488.46</ele>
        <time>2019-09-04T11:32:19Z</time>
      </trkpt>
      <trkpt lat="43.07094" lon="1.50638">
        <ele>488.27</ele>
        <time>2019-09-04T11:32:20Z</time>
      </trkpt>
      <trkpt lat="43.07093" lon="1.50639">
        <ele>488.08</ele>
        <time>2019-09-04T11:32:21Z</time>
      </trkpt>
      <trkpt lat="43.07092" lon="1.50641">
        <ele>487.9</ele>
        <time>2019-09-04T11:32:22Z</time>
      </trkpt>
      <trkpt lat="43.07091" lon="1.50642">
        <ele>487.72</ele>
        <time>2019-09-04T11:32:23Z</time>
      </trkpt>
      <trkpt lat="43.07091" lon="1.50644">
        <ele>487.52</ele>
        <time>2019-09-04T11:32:24Z</time>
      </trkpt>
      <trkpt lat="43.0709" lon="1.50646">
        <ele>487.33</ele>
        <time>2019-09-04T11:32:25Z</time>
      </trkpt>
      <trkpt lat="43.07089" lon="1.50678">
        <ele>484.85</ele>
        <time>2019-09-04T11:32:43Z</time>
      </trkpt>
      <trkpt lat="43.07089" lon="1.50679">
        <ele>484.02</ele>
        <time>2019-09-04T11:32:51Z</time>
      </trkpt>
      <trkpt lat="43.07089" lon="1.50681">
        <ele>484.01</ele>
        <time>2019-09-04T11:32:52Z</time>
      </trkpt>
      <trkpt lat="43.07089" lon="1.50683">
        <ele>483.97</ele>
        <time>2019-09-04T11:32:53Z</time>
      </trkpt>
      <trkpt lat="43.0709" lon="1.50689">
        <ele>483.63</ele>
        <time>2019-09-04T11:32:57Z</time>
      </trkpt>
      <trkpt lat="43.0709" lon="1.50691">
        <ele>483.51</ele>
        <time>2019-09-04T11:32:58Z</time>
      </trkpt>
      <trkpt lat="43.07077" lon="1.50724">
        <ele>480.66</ele>
        <time>2019-09-04T11:33:17Z</time>
      </trkpt>
      <trkpt lat="43.07059" lon="1.50728">
        <ele>478.31</ele>
        <time>2019-09-04T11:33:31Z</time>
      </trkpt>
      <trkpt lat="43.07041" lon="1.50734">
        <ele>476.45</ele>
        <time>2019-09-04T11:33:46Z</time>
      </trkpt>
      <trkpt lat="43.07039" lon="1.50735">
        <ele>476.35</ele>
        <time>2019-09-04T11:33:47Z</time>
      </trkpt>
      <trkpt lat="43.07027" lon="1.50738">
        <ele>475.52</ele>
        <time>2019-09-04T11:33:55Z</time>
      </trkpt>
      <trkpt lat="43.07" lon="1.50749">
        <ele>473.02</ele>
        <time>2019-09-04T11:34:15Z</time>
      </trkpt>
      <trkpt lat="43.06994" lon="1.50751">
        <ele>471.41</ele>
        <time>2019-09-04T11:34:34Z</time>
      </trkpt>
      <trkpt lat="43.06993" lon="1.50752">
        <ele>471.23</ele>
        <time>2019-09-04T11:34:57Z</time>
      </trkpt>
      <trkpt lat="43.06986" lon="1.50758">
        <ele>471.37</ele>
        <time>2019-09-04T11:35:07Z</time>
      </trkpt>
      <trkpt lat="43.06985" lon="1.50759">
        <ele>471.33</ele>
        <time>2019-09-04T11:35:08Z</time>
      </trkpt>
      <trkpt lat="43.06978" lon="1.50764">
        <ele>470.81</ele>
        <time>2019-09-04T11:35:13Z</time>
      </trkpt>
      <trkpt lat="43.06947" lon="1.50783">
        <ele>468.03</ele>
        <time>2019-09-04T11:35:35Z</time>
      </trkpt>
      <trkpt lat="43.06926" lon="1.50777">
        <ele>465.58</ele>
        <time>2019-09-04T11:35:52Z</time>
      </trkpt>
      <trkpt lat="43.06905" lon="1.5075">
        <ele>462.85</ele>
        <time>2019-09-04T11:36:14Z</time>
      </trkpt>
      <trkpt lat="43.06905" lon="1.50748">
        <ele>462.2</ele>
        <time>2019-09-04T11:36:33Z</time>
      </trkpt>
      <trkpt lat="43.06903" lon="1.50749">
        <ele>462.11</ele>
        <time>2019-09-04T11:36:38Z</time>
      </trkpt>
      <trkpt lat="43.06902" lon="1.50749">
        <ele>462.1</ele>
        <time>2019-09-04T11:36:39Z</time>
      </trkpt>
      <trkpt lat="43.069" lon="1.50748">
        <ele>462.13</ele>
        <time>2019-09-04T11:36:40Z</time>
      </trkpt>
      <trkpt lat="43.06899" lon="1.50748">
        <ele>462.2</ele>
        <time>2019-09-04T11:36:41Z</time>
      </trkpt>
      <trkpt lat="43.06898" lon="1.50747">
        <ele>462.25</ele>
        <time>2019-09-04T11:36:42Z</time>
      </trkpt>
      <trkpt lat="43.06867" lon="1.50747">
        <ele>459.97</ele>
        <time>2019-09-04T11:37:05Z</time>
      </trkpt>
      <trkpt lat="43.06839" lon="1.50747">
        <ele>456.97</ele>
        <time>2019-09-04T11:37:26Z</time>
      </trkpt>
      <trkpt lat="43.06824" lon="1.50744">
        <ele>455.74</ele>
        <time>2019-09-04T11:37:38Z</time>
      </trkpt>
      <trkpt lat="43.06824" lon="1.50742">
        <ele>455.62</ele>
        <time>2019-09-04T11:37:39Z</time>
      </trkpt>
      <trkpt lat="43.06827" lon="1.5073">
        <ele>454.74</ele>
        <time>2019-09-04T11:37:46Z</time>
      </trkpt>
      <trkpt lat="43.06835" lon="1.50706">
        <ele>451.54</ele>
        <time>2019-09-04T11:38:01Z</time>
      </trkpt>
      <trkpt lat="43.0684" lon="1.50691">
        <ele>448.4</ele>
        <time>2019-09-04T11:38:11Z</time>
      </trkpt>
      <trkpt lat="43.06841" lon="1.50683">
        <ele>445.58</ele>
        <time>2019-09-04T11:38:23Z</time>
      </trkpt>
      <trkpt lat="43.06845" lon="1.50677">
        <ele>443.29</ele>
        <time>2019-09-04T11:38:39Z</time>
      </trkpt>
      <trkpt lat="43.06859" lon="1.5068">
        <ele>440.61</ele>
        <time>2019-09-04T11:38:51Z</time>
      </trkpt>
      <trkpt lat="43.06884" lon="1.50674">
        <ele>438.09</ele>
        <time>2019-09-04T11:39:08Z</time>
      </trkpt>
      <trkpt lat="43.06916" lon="1.50658">
        <ele>435.47</ele>
        <time>2019-09-04T11:39:31Z</time>
      </trkpt>
      <trkpt lat="43.06934" lon="1.50632">
        <ele>432.46</ele>
        <time>2019-09-04T11:39:50Z</time>
      </trkpt>
      <trkpt lat="43.06932" lon="1.50593">
        <ele>430.13</ele>
        <time>2019-09-04T11:40:11Z</time>
      </trkpt>
      <trkpt lat="43.06916" lon="1.50564">
        <ele>428.51</ele>
        <time>2019-09-04T11:40:30Z</time>
      </trkpt>
      <trkpt lat="43.06898" lon="1.50535">
        <ele>425.7</ele>
        <time>2019-09-04T11:40:51Z</time>
      </trkpt>
      <trkpt lat="43.06877" lon="1.50508">
        <ele>423.21</ele>
        <time>2019-09-04T11:41:11Z</time>
      </trkpt>
      <trkpt lat="43.06858" lon="1.50478">
        <ele>421</ele>
        <time>2019-09-04T11:41:31Z</time>
      </trkpt>
      <trkpt lat="43.06851" lon="1.50441">
        <ele>418.39</ele>
        <time>2019-09-04T11:41:50Z</time>
      </trkpt>
      <trkpt lat="43.06855" lon="1.50428">
        <ele>417.31</ele>
        <time>2019-09-04T11:41:58Z</time>
      </trkpt>
      <trkpt lat="43.06855" lon="1.50426">
        <ele>417.23</ele>
        <time>2019-09-04T11:41:59Z</time>
      </trkpt>
      <trkpt lat="43.06856" lon="1.50425">
        <ele>417.15</ele>
        <time>2019-09-04T11:42:00Z</time>
      </trkpt>
      <trkpt lat="43.06857" lon="1.50423">
        <ele>417.08</ele>
        <time>2019-09-04T11:42:01Z</time>
      </trkpt>
      <trkpt lat="43.06857" lon="1.50422">
        <ele>417</ele>
        <time>2019-09-04T11:42:02Z</time>
      </trkpt>
      <trkpt lat="43.06858" lon="1.5042">
        <ele>416.93</ele>
        <time>2019-09-04T11:42:03Z</time>
      </trkpt>
      <trkpt lat="43.06859" lon="1.50418">
        <ele>416.85</ele>
        <time>2019-09-04T11:42:04Z</time>
      </trkpt>
      <trkpt lat="43.06859" lon="1.50384">
        <ele>414.19</ele>
        <time>2019-09-04T11:42:23Z</time>
      </trkpt>
      <trkpt lat="43.0684" lon="1.50353">
        <ele>412.02</ele>
        <time>2019-09-04T11:42:44Z</time>
      </trkpt>
      <trkpt lat="43.06818" lon="1.50321">
        <ele>408.99</ele>
        <time>2019-09-04T11:43:07Z</time>
      </trkpt>
      <trkpt lat="43.06799" lon="1.50287">
        <ele>405.8</ele>
        <time>2019-09-04T11:43:29Z</time>
      </trkpt>
      <trkpt lat="43.06789" lon="1.50256">
        <ele>403.78</ele>
        <time>2019-09-04T11:43:48Z</time>
      </trkpt>
      <trkpt lat="43.06775" lon="1.50221">
        <ele>400.93</ele>
        <time>2019-09-04T11:44:09Z</time>
      </trkpt>
      <trkpt lat="43.06761" lon="1.50203">
        <ele>399.36</ele>
        <time>2019-09-04T11:44:25Z</time>
      </trkpt>
      <trkpt lat="43.06742" lon="1.50191">
        <ele>396.58</ele>
        <time>2019-09-04T11:44:42Z</time>
      </trkpt>
      <trkpt lat="43.06726" lon="1.50176">
        <ele>395.23</ele>
        <time>2019-09-04T11:44:58Z</time>
      </trkpt>
      <trkpt lat="43.0672" lon="1.50171">
        <ele>395</ele>
        <time>2019-09-04T11:45:02Z</time>
      </trkpt>
      <trkpt lat="43.06718" lon="1.5017">
        <ele>394.73</ele>
        <time>2019-09-04T11:45:03Z</time>
      </trkpt>
      <trkpt lat="43.06717" lon="1.50169">
        <ele>394.49</ele>
        <time>2019-09-04T11:45:04Z</time>
      </trkpt>
      <trkpt lat="43.06714" lon="1.50167">
        <ele>393.91</ele>
        <time>2019-09-04T11:45:07Z</time>
      </trkpt>
      <trkpt lat="43.06714" lon="1.50167">
        <ele>393.57</ele>
        <time>2019-09-04T11:45:13Z</time>
      </trkpt>
      <trkpt lat="43.06726" lon="1.50184">
        <ele>394.42</ele>
        <time>2019-09-04T11:45:30Z</time>
      </trkpt>
      <trkpt lat="43.06741" lon="1.50178">
        <ele>395.16</ele>
        <time>2019-09-04T11:45:46Z</time>
      </trkpt>
      <trkpt lat="43.06742" lon="1.50176">
        <ele>395.11</ele>
        <time>2019-09-04T11:45:47Z</time>
      </trkpt>
      <trkpt lat="43.06743" lon="1.50175">
        <ele>395.05</ele>
        <time>2019-09-04T11:45:48Z</time>
      </trkpt>
      <trkpt lat="43.06756" lon="1.50147">
        <ele>392.62</ele>
        <time>2019-09-04T11:46:07Z</time>
      </trkpt>
      <trkpt lat="43.06763" lon="1.50131">
        <ele>391.5</ele>
        <time>2019-09-04T11:46:17Z</time>
      </trkpt>
      <trkpt lat="43.06764" lon="1.50129">
        <ele>391.51</ele>
        <time>2019-09-04T11:46:18Z</time>
      </trkpt>
      <trkpt lat="43.06764" lon="1.50127">
        <ele>391.57</ele>
        <time>2019-09-04T11:46:19Z</time>
      </trkpt>
      <trkpt lat="43.06765" lon="1.50125">
        <ele>391.7</ele>
        <time>2019-09-04T11:46:20Z</time>
      </trkpt>
      <trkpt lat="43.06769" lon="1.5012">
        <ele>391.89</ele>
        <time>2019-09-04T11:46:24Z</time>
      </trkpt>
      <trkpt lat="43.0677" lon="1.50119">
        <ele>391.73</ele>
        <time>2019-09-04T11:46:25Z</time>
      </trkpt>
      <trkpt lat="43.0677" lon="1.50118">
        <ele>391.49</ele>
        <time>2019-09-04T11:46:26Z</time>
      </trkpt>
      <trkpt lat="43.06771" lon="1.50117">
        <ele>391.24</ele>
        <time>2019-09-04T11:46:27Z</time>
      </trkpt>
      <trkpt lat="43.06781" lon="1.50105">
        <ele>389.36</ele>
        <time>2019-09-04T11:46:39Z</time>
      </trkpt>
      <trkpt lat="43.06791" lon="1.5008">
        <ele>387.78</ele>
        <time>2019-09-04T11:46:54Z</time>
      </trkpt>
      <trkpt lat="43.06796" lon="1.5007">
        <ele>386.68</ele>
        <time>2019-09-04T11:47:14Z</time>
      </trkpt>
      <trkpt lat="43.068" lon="1.5006">
        <ele>386.14</ele>
        <time>2019-09-04T11:47:27Z</time>
      </trkpt>
      <trkpt lat="43.06809" lon="1.50039">
        <ele>385.52</ele>
        <time>2019-09-04T11:47:42Z</time>
      </trkpt>
      <trkpt lat="43.0681" lon="1.50037">
        <ele>385.49</ele>
        <time>2019-09-04T11:47:43Z</time>
      </trkpt>
      <trkpt lat="43.06821" lon="1.50018">
        <ele>384.33</ele>
        <time>2019-09-04T11:47:59Z</time>
      </trkpt>
      <trkpt lat="43.06831" lon="1.49998">
        <ele>383.59</ele>
        <time>2019-09-04T11:48:13Z</time>
      </trkpt>
      <trkpt lat="43.06835" lon="1.49987">
        <ele>382.97</ele>
        <time>2019-09-04T11:48:26Z</time>
      </trkpt>
      <trkpt lat="43.0684" lon="1.49976">
        <ele>382.69</ele>
        <time>2019-09-04T11:48:45Z</time>
      </trkpt>
      <trkpt lat="43.0684" lon="1.49975">
        <ele>382.67</ele>
        <time>2019-09-04T11:48:46Z</time>
      </trkpt>
      <trkpt lat="43.06845" lon="1.49966">
        <ele>382.25</ele>
        <time>2019-09-04T11:49:00Z</time>
      </trkpt>
      <trkpt lat="43.0685" lon="1.49957">
        <ele>381.78</ele>
        <time>2019-09-04T11:49:15Z</time>
      </trkpt>
      <trkpt lat="43.06858" lon="1.49944">
        <ele>381.44</ele>
        <time>2019-09-04T11:49:26Z</time>
      </trkpt>
      <trkpt lat="43.06859" lon="1.49942">
        <ele>381.4</ele>
        <time>2019-09-04T11:49:27Z</time>
      </trkpt>
      <trkpt lat="43.06865" lon="1.4993">
        <ele>380.91</ele>
        <time>2019-09-04T11:49:35Z</time>
      </trkpt>
      <trkpt lat="43.06874" lon="1.4989">
        <ele>379.96</ele>
        <time>2019-09-04T11:49:57Z</time>
      </trkpt>
      <trkpt lat="43.06883" lon="1.4986">
        <ele>379.83</ele>
        <time>2019-09-04T11:50:17Z</time>
      </trkpt>
      <trkpt lat="43.06892" lon="1.49836">
        <ele>379.9</ele>
        <time>2019-09-04T11:50:34Z</time>
      </trkpt>
      <trkpt lat="43.06893" lon="1.49826">
        <ele>380</ele>
        <time>2019-09-04T11:50:41Z</time>
      </trkpt>
      <trkpt lat="43.06897" lon="1.49797">
        <ele>379.6</ele>
        <time>2019-09-04T11:50:57Z</time>
      </trkpt>
      <trkpt lat="43.069" lon="1.49768">
        <ele>377.81</ele>
        <time>2019-09-04T11:51:14Z</time>
      </trkpt>
      <trkpt lat="43.06901" lon="1.49766">
        <ele>377.7</ele>
        <time>2019-09-04T11:51:15Z</time>
      </trkpt>
      <trkpt lat="43.06903" lon="1.49735">
        <ele>375.67</ele>
        <time>2019-09-04T11:51:32Z</time>
      </trkpt>
      <trkpt lat="43.06902" lon="1.49699">
        <ele>373.75</ele>
        <time>2019-09-04T11:51:51Z</time>
      </trkpt>
      <trkpt lat="43.06902" lon="1.49667">
        <ele>372.08</ele>
        <time>2019-09-04T11:52:10Z</time>
      </trkpt>
      <trkpt lat="43.06903" lon="1.49662">
        <ele>371.72</ele>
        <time>2019-09-04T11:52:13Z</time>
      </trkpt>
      <trkpt lat="43.06905" lon="1.49629">
        <ele>369.5</ele>
        <time>2019-09-04T11:52:32Z</time>
      </trkpt>
      <trkpt lat="43.06907" lon="1.49593">
        <ele>368.82</ele>
        <time>2019-09-04T11:52:51Z</time>
      </trkpt>
      <trkpt lat="43.06909" lon="1.49555">
        <ele>367.6</ele>
        <time>2019-09-04T11:53:12Z</time>
      </trkpt>
      <trkpt lat="43.06905" lon="1.4952">
        <ele>366.8</ele>
        <time>2019-09-04T11:53:32Z</time>
      </trkpt>
      <trkpt lat="43.0691" lon="1.49489">
        <ele>366.46</ele>
        <time>2019-09-04T11:53:51Z</time>
      </trkpt>
      <trkpt lat="43.06916" lon="1.49466">
        <ele>366.08</ele>
        <time>2019-09-04T11:54:08Z</time>
      </trkpt>
      <trkpt lat="43.06918" lon="1.49442">
        <ele>365.17</ele>
        <time>2019-09-04T11:54:21Z</time>
      </trkpt>
      <trkpt lat="43.06918" lon="1.49439">
        <ele>364.92</ele>
        <time>2019-09-04T11:54:23Z</time>
      </trkpt>
      <trkpt lat="43.06919" lon="1.49437">
        <ele>364.8</ele>
        <time>2019-09-04T11:54:24Z</time>
      </trkpt>
      <trkpt lat="43.06922" lon="1.49413">
        <ele>362.65</ele>
        <time>2019-09-04T11:54:40Z</time>
      </trkpt>
      <trkpt lat="43.06923" lon="1.49407">
        <ele>362.28</ele>
        <time>2019-09-04T11:54:43Z</time>
      </trkpt>
      <trkpt lat="43.06923" lon="1.49406">
        <ele>362.16</ele>
        <time>2019-09-04T11:54:44Z</time>
      </trkpt>
      <trkpt lat="43.06924" lon="1.49404">
        <ele>362.03</ele>
        <time>2019-09-04T11:54:45Z</time>
      </trkpt>
      <trkpt lat="43.06924" lon="1.49402">
        <ele>361.9</ele>
        <time>2019-09-04T11:54:46Z</time>
      </trkpt>
      <trkpt lat="43.06924" lon="1.494">
        <ele>361.78</ele>
        <time>2019-09-04T11:54:47Z</time>
      </trkpt>
      <trkpt lat="43.06927" lon="1.49361">
        <ele>359.92</ele>
        <time>2019-09-04T11:55:07Z</time>
      </trkpt>
      <trkpt lat="43.06938" lon="1.49331">
        <ele>356.86</ele>
        <time>2019-09-04T11:55:24Z</time>
      </trkpt>
      <trkpt lat="43.06944" lon="1.49325">
        <ele>355.71</ele>
        <time>2019-09-04T11:55:30Z</time>
      </trkpt>
      <trkpt lat="43.06945" lon="1.49325">
        <ele>355.63</ele>
        <time>2019-09-04T11:55:31Z</time>
      </trkpt>
      <trkpt lat="43.06947" lon="1.49324">
        <ele>355.67</ele>
        <time>2019-09-04T11:55:32Z</time>
      </trkpt>
      <trkpt lat="43.06948" lon="1.49323">
        <ele>355.7</ele>
        <time>2019-09-04T11:55:33Z</time>
      </trkpt>
      <trkpt lat="43.06949" lon="1.49322">
        <ele>355.66</ele>
        <time>2019-09-04T11:55:34Z</time>
      </trkpt>
      <trkpt lat="43.06954" lon="1.49305">
        <ele>352.62</ele>
        <time>2019-09-04T11:55:45Z</time>
      </trkpt>
      <trkpt lat="43.06939" lon="1.49284">
        <ele>349.4</ele>
        <time>2019-09-04T11:56:00Z</time>
      </trkpt>
      <trkpt lat="43.06923" lon="1.49261">
        <ele>346.27</ele>
        <time>2019-09-04T11:56:17Z</time>
      </trkpt>
      <trkpt lat="43.06901" lon="1.49231">
        <ele>343.39</ele>
        <time>2019-09-04T11:56:40Z</time>
      </trkpt>
      <trkpt lat="43.06892" lon="1.49198">
        <ele>340.71</ele>
        <time>2019-09-04T11:57:00Z</time>
      </trkpt>
      <trkpt lat="43.069" lon="1.49185">
        <ele>340.02</ele>
        <time>2019-09-04T11:57:11Z</time>
      </trkpt>
      <trkpt lat="43.069" lon="1.49183">
        <ele>339.98</ele>
        <time>2019-09-04T11:57:12Z</time>
      </trkpt>
      <trkpt lat="43.06915" lon="1.49158">
        <ele>339.54</ele>
        <time>2019-09-04T11:57:30Z</time>
      </trkpt>
      <trkpt lat="43.06927" lon="1.49133">
        <ele>338.8</ele>
        <time>2019-09-04T11:57:47Z</time>
      </trkpt>
      <trkpt lat="43.06935" lon="1.49116">
        <ele>338.48</ele>
        <time>2019-09-04T11:58:00Z</time>
      </trkpt>
      <trkpt lat="43.0694" lon="1.49107">
        <ele>338.06</ele>
        <time>2019-09-04T11:58:36Z</time>
      </trkpt>
      <trkpt lat="43.06941" lon="1.49106">
        <ele>338.06</ele>
        <time>2019-09-04T11:58:37Z</time>
      </trkpt>
      <trkpt lat="43.06943" lon="1.49105">
        <ele>338.03</ele>
        <time>2019-09-04T11:58:38Z</time>
      </trkpt>
      <trkpt lat="43.06944" lon="1.49104">
        <ele>337.92</ele>
        <time>2019-09-04T11:58:39Z</time>
      </trkpt>
      <trkpt lat="43.06945" lon="1.49103">
        <ele>337.82</ele>
        <time>2019-09-04T11:58:40Z</time>
      </trkpt>
      <trkpt lat="43.06946" lon="1.49102">
        <ele>337.78</ele>
        <time>2019-09-04T11:58:41Z</time>
      </trkpt>
      <trkpt lat="43.06947" lon="1.49101">
        <ele>337.75</ele>
        <time>2019-09-04T11:58:42Z</time>
      </trkpt>
      <trkpt lat="43.06961" lon="1.49076">
        <ele>337.68</ele>
        <time>2019-09-04T11:59:00Z</time>
      </trkpt>
      <trkpt lat="43.06975" lon="1.49047">
        <ele>337.51</ele>
        <time>2019-09-04T11:59:20Z</time>
      </trkpt>
      <trkpt lat="43.06991" lon="1.49027">
        <ele>338.2</ele>
        <time>2019-09-04T11:59:37Z</time>
      </trkpt>
      <trkpt lat="43.0701" lon="1.49015">
        <ele>339.28</ele>
        <time>2019-09-04T11:59:54Z</time>
      </trkpt>
      <trkpt lat="43.07021" lon="1.49005">
        <ele>339.72</ele>
        <time>2019-09-04T12:00:09Z</time>
      </trkpt>
      <trkpt lat="43.07021" lon="1.49004">
        <ele>339.73</ele>
        <time>2019-09-04T12:00:10Z</time>
      </trkpt>
      <trkpt lat="43.07022" lon="1.49002">
        <ele>339.75</ele>
        <time>2019-09-04T12:00:11Z</time>
      </trkpt>
      <trkpt lat="43.07023" lon="1.49001">
        <ele>339.79</ele>
        <time>2019-09-04T12:00:12Z</time>
      </trkpt>
      <trkpt lat="43.07028" lon="1.48983">
        <ele>339.52</ele>
        <time>2019-09-04T12:00:23Z</time>
      </trkpt>
      <trkpt lat="43.07029" lon="1.48977">
        <ele>339.3</ele>
        <time>2019-09-04T12:00:26Z</time>
      </trkpt>
      <trkpt lat="43.0703" lon="1.48965">
        <ele>338.25</ele>
        <time>2019-09-04T12:00:34Z</time>
      </trkpt>
      <trkpt lat="43.07033" lon="1.48941">
        <ele>336.47</ele>
        <time>2019-09-04T12:00:46Z</time>
      </trkpt>
      <trkpt lat="43.07034" lon="1.4894">
        <ele>336.38</ele>
        <time>2019-09-04T12:00:47Z</time>
      </trkpt>
      <trkpt lat="43.07035" lon="1.48938">
        <ele>336.29</ele>
        <time>2019-09-04T12:00:48Z</time>
      </trkpt>
      <trkpt lat="43.07036" lon="1.48938">
        <ele>336.24</ele>
        <time>2019-09-04T12:00:49Z</time>
      </trkpt>
      <trkpt lat="43.07037" lon="1.48937">
        <ele>336.21</ele>
        <time>2019-09-04T12:00:50Z</time>
      </trkpt>
      <trkpt lat="43.07052" lon="1.48931">
        <ele>335.85</ele>
        <time>2019-09-04T12:01:05Z</time>
      </trkpt>
      <trkpt lat="43.07056" lon="1.48929">
        <ele>330.86</ele>
        <time>2019-09-04T12:01:10Z</time>
      </trkpt>
      <trkpt lat="43.07057" lon="1.48928">
        <ele>333.37</ele>
        <time>2019-09-04T12:01:11Z</time>
      </trkpt>
      <trkpt lat="43.07077" lon="1.48918">
        <ele>335.96</ele>
        <time>2019-09-04T12:01:29Z</time>
      </trkpt>
      <trkpt lat="43.07078" lon="1.48918">
        <ele>335.96</ele>
        <time>2019-09-04T12:01:49Z</time>
      </trkpt>
      <trkpt lat="43.07077" lon="1.48917">
        <ele>335.96</ele>
        <time>2019-09-04T12:02:08Z</time>
      </trkpt>
      <trkpt lat="43.07076" lon="1.48917">
        <ele>335.96</ele>
        <time>2019-09-04T12:02:33Z</time>
      </trkpt>
      <trkpt lat="43.07078" lon="1.48916">
        <ele>335.96</ele>
        <time>2019-09-04T12:03:02Z</time>
      </trkpt>
      <trkpt lat="43.07079" lon="1.48918">
        <ele>335.96</ele>
        <time>2019-09-04T12:03:29Z</time>
      </trkpt>
      <trkpt lat="43.07081" lon="1.48918">
        <ele>335.96</ele>
        <time>2019-09-04T12:03:59Z</time>
      </trkpt>
      <trkpt lat="43.0708" lon="1.48918">
        <ele>335.96</ele>
        <time>2019-09-04T12:04:24Z</time>
      </trkpt>
      <trkpt lat="43.07079" lon="1.48916">
        <ele>335.96</ele>
        <time>2019-09-04T12:04:53Z</time>
      </trkpt>
      <trkpt lat="43.07077" lon="1.48917">
        <ele>335.96</ele>
        <time>2019-09-04T12:05:39Z</time>
      </trkpt>
      <trkpt lat="43.07081" lon="1.48915">
        <ele>335.96</ele>
        <time>2019-09-04T12:06:57Z</time>
      </trkpt>
      <trkpt lat="43.07081" lon="1.48913">
        <ele>335.96</ele>
        <time>2019-09-04T12:07:25Z</time>
      </trkpt>
      <trkpt lat="43.0708" lon="1.48916">
        <ele>335.96</ele>
        <time>2019-09-04T12:08:17Z</time>
      </trkpt>
      <trkpt lat="43.0708" lon="1.48916">
        <ele>335.96</ele>
        <time>2019-09-04T12:09:03Z</time>
      </trkpt>
      <trkpt lat="43.07078" lon="1.48916">
        <ele>335.96</ele>
        <time>2019-09-04T12:09:48Z</time>
      </trkpt>
      <trkpt lat="43.07077" lon="1.48915">
        <ele>335.96</ele>
        <time>2019-09-04T12:10:10Z</time>
      </trkpt>
      <trkpt lat="43.07077" lon="1.48914">
        <ele>335.96</ele>
        <time>2019-09-04T12:10:49Z</time>
      </trkpt>
      <trkpt lat="43.07079" lon="1.48915">
        <ele>335.96</ele>
        <time>2019-09-04T12:11:16Z</time>
      </trkpt>
      <trkpt lat="43.07077" lon="1.48914">
        <ele>335.96</ele>
        <time>2019-09-04T12:11:43Z</time>
      </trkpt>
      <trkpt lat="43.07076" lon="1.48915">
        <ele>335.96</ele>
        <time>2019-09-04T12:12:35Z</time>
      </trkpt>
      <trkpt lat="43.07077" lon="1.48917">
        <ele>335.96</ele>
        <time>2019-09-04T12:13:18Z</time>
      </trkpt>
      <trkpt lat="43.07078" lon="1.48914">
        <ele>335.96</ele>
        <time>2019-09-04T12:13:52Z</time>
      </trkpt>
      <trkpt lat="43.07077" lon="1.48913">
        <ele>335.96</ele>
        <time>2019-09-04T12:14:21Z</time>
      </trkpt>
      <trkpt lat="43.07078" lon="1.4891">
        <ele>335.96</ele>
        <time>2019-09-04T12:15:04Z</time>
      </trkpt>
      <trkpt lat="43.07078" lon="1.4891">
        <ele>335.96</ele>
        <time>2019-09-04T12:15:32Z</time>
      </trkpt>
      <trkpt lat="43.07078" lon="1.48914">
        <ele>335.96</ele>
        <time>2019-09-04T12:16:19Z</time>
      </trkpt>
      <trkpt lat="43.07078" lon="1.48914">
        <ele>335.96</ele>
        <time>2019-09-04T12:17:00Z</time>
      </trkpt>
      <trkpt lat="43.0708" lon="1.48917">
        <ele>335.96</ele>
        <time>2019-09-04T12:17:50Z</time>
      </trkpt>
      <trkpt lat="43.07079" lon="1.48916">
        <ele>335.96</ele>
        <time>2019-09-04T12:18:58Z</time>
      </trkpt>
      <trkpt lat="43.07078" lon="1.48919">
        <ele>335.96</ele>
        <time>2019-09-04T12:19:36Z</time>
      </trkpt>
      <trkpt lat="43.07078" lon="1.48922">
        <ele>335.96</ele>
        <time>2019-09-04T12:20:14Z</time>
      </trkpt>
      <trkpt lat="43.0708" lon="1.4892">
        <ele>335.96</ele>
        <time>2019-09-04T12:20:50Z</time>
      </trkpt>
      <trkpt lat="43.0708" lon="1.48917">
        <ele>335.96</ele>
        <time>2019-09-04T12:21:51Z</time>
      </trkpt>
      <trkpt lat="43.07079" lon="1.48917">
        <ele>335.96</ele>
        <time>2019-09-04T12:23:06Z</time>
      </trkpt>
      <trkpt lat="43.07078" lon="1.48916">
        <ele>335.96</ele>
        <time>2019-09-04T12:23:42Z</time>
      </trkpt>
      <trkpt lat="43.07078" lon="1.48916">
        <ele>335.96</ele>
        <time>2019-09-04T12:24:16Z</time>
      </trkpt>
      <trkpt lat="43.07079" lon="1.48917">
        <ele>335.96</ele>
        <time>2019-09-04T12:24:52Z</time>
      </trkpt>
      <trkpt lat="43.0708" lon="1.48918">
        <ele>335.96</ele>
        <time>2019-09-04T12:25:37Z</time>
      </trkpt>
      <trkpt lat="43.07081" lon="1.48919">
        <ele>335.96</ele>
        <time>2019-09-04T12:26:34Z</time>
      </trkpt>
      <trkpt lat="43.07081" lon="1.48919">
        <ele>335.96</ele>
        <time>2019-09-04T12:26:58Z</time>
      </trkpt>
      <trkpt lat="43.0708" lon="1.48921">
        <ele>335.96</ele>
        <time>2019-09-04T12:27:23Z</time>
      </trkpt>
      <trkpt lat="43.0708" lon="1.48919">
        <ele>335.96</ele>
        <time>2019-09-04T12:27:45Z</time>
      </trkpt>
      <trkpt lat="43.07079" lon="1.48919">
        <ele>335.96</ele>
        <time>2019-09-04T12:28:12Z</time>
      </trkpt>
      <trkpt lat="43.07078" lon="1.48918">
        <ele>335.96</ele>
        <time>2019-09-04T12:28:38Z</time>
      </trkpt>
      <trkpt lat="43.07081" lon="1.48915">
        <ele>335.96</ele>
        <time>2019-09-04T12:29:13Z</time>
      </trkpt>
      <trkpt lat="43.07081" lon="1.48915">
        <ele>335.96</ele>
        <time>2019-09-04T12:29:45Z</time>
      </trkpt>
      <trkpt lat="43.07081" lon="1.48915">
        <ele>335.96</ele>
        <time>2019-09-04T12:30:27Z</time>
      </trkpt>
      <trkpt lat="43.0708" lon="1.48918">
        <ele>335.96</ele>
        <time>2019-09-04T12:31:07Z</time>
      </trkpt>
      <trkpt lat="43.0708" lon="1.48916">
        <ele>335.96</ele>
        <time>2019-09-04T12:31:44Z</time>
      </trkpt>
      <trkpt lat="43.07079" lon="1.48915">
        <ele>335.96</ele>
        <time>2019-09-04T12:32:15Z</time>
      </trkpt>
      <trkpt lat="43.0708" lon="1.48915">
        <ele>335.96</ele>
        <time>2019-09-04T12:32:51Z</time>
      </trkpt>
      <trkpt lat="43.0708" lon="1.48916">
        <ele>335.96</ele>
        <time>2019-09-04T12:33:25Z</time>
      </trkpt>
      <trkpt lat="43.07083" lon="1.48917">
        <ele>335.96</ele>
        <time>2019-09-04T12:33:56Z</time>
      </trkpt>
      <trkpt lat="43.07083" lon="1.48915">
        <ele>335.96</ele>
        <time>2019-09-04T12:34:39Z</time>
      </trkpt>
      <trkpt lat="43.07082" lon="1.48914">
        <ele>335.96</ele>
        <time>2019-09-04T12:35:15Z</time>
      </trkpt>
      <trkpt lat="43.07083" lon="1.48919">
        <ele>335.96</ele>
        <time>2019-09-04T12:35:45Z</time>
      </trkpt>
      <trkpt lat="43.07082" lon="1.48916">
        <ele>335.96</ele>
        <time>2019-09-04T12:36:06Z</time>
      </trkpt>
      <trkpt lat="43.0708" lon="1.48917">
        <ele>335.96</ele>
        <time>2019-09-04T12:36:26Z</time>
      </trkpt>
      <trkpt lat="43.07078" lon="1.48919">
        <ele>335.96</ele>
        <time>2019-09-04T12:36:55Z</time>
      </trkpt>
      <trkpt lat="43.07076" lon="1.48922">
        <ele>335.96</ele>
        <time>2019-09-04T12:37:23Z</time>
      </trkpt>
      <trkpt lat="43.07078" lon="1.48919">
        <ele>335.96</ele>
        <time>2019-09-04T12:37:45Z</time>
      </trkpt>
      <trkpt lat="43.07077" lon="1.48917">
        <ele>335.96</ele>
        <time>2019-09-04T12:38:08Z</time>
      </trkpt>
      <trkpt lat="43.07074" lon="1.48917">
        <ele>335.96</ele>
        <time>2019-09-04T12:38:36Z</time>
      </trkpt>
      <trkpt lat="43.07074" lon="1.48922">
        <ele>335.97</ele>
        <time>2019-09-04T12:39:09Z</time>
      </trkpt>
      <trkpt lat="43.07062" lon="1.48924">
        <ele>335.97</ele>
        <time>2019-09-04T12:39:25Z</time>
      </trkpt>
      <trkpt lat="43.07058" lon="1.48926">
        <ele>336.04</ele>
        <time>2019-09-04T12:39:29Z</time>
      </trkpt>
      <trkpt lat="43.07043" lon="1.48931">
        <ele>335.75</ele>
        <time>2019-09-04T12:39:43Z</time>
      </trkpt>
      <trkpt lat="43.0703" lon="1.48934">
        <ele>335.36</ele>
        <time>2019-09-04T12:39:53Z</time>
      </trkpt>
      <trkpt lat="43.07029" lon="1.48931">
        <ele>335.2</ele>
        <time>2019-09-04T12:39:55Z</time>
      </trkpt>
      <trkpt lat="43.07023" lon="1.48894">
        <ele>333.94</ele>
        <time>2019-09-04T12:40:16Z</time>
      </trkpt>
      <trkpt lat="43.07018" lon="1.48855">
        <ele>331.38</ele>
        <time>2019-09-04T12:40:40Z</time>
      </trkpt>
      <trkpt lat="43.07017" lon="1.48851">
        <ele>330.72</ele>
        <time>2019-09-04T12:40:51Z</time>
      </trkpt>
      <trkpt lat="43.07016" lon="1.48847">
        <ele>330.67</ele>
        <time>2019-09-04T12:40:53Z</time>
      </trkpt>
      <trkpt lat="43.07013" lon="1.48821">
        <ele>329.36</ele>
        <time>2019-09-04T12:41:10Z</time>
      </trkpt>
      <trkpt lat="43.07012" lon="1.48818">
        <ele>329.44</ele>
        <time>2019-09-04T12:41:24Z</time>
      </trkpt>
      <trkpt lat="43.07013" lon="1.48816">
        <ele>329.39</ele>
        <time>2019-09-04T12:41:39Z</time>
      </trkpt>
      <trkpt lat="43.07011" lon="1.4881">
        <ele>329.4</ele>
        <time>2019-09-04T12:41:42Z</time>
      </trkpt>
      <trkpt lat="43.07011" lon="1.48808">
        <ele>329.27</ele>
        <time>2019-09-04T12:41:43Z</time>
      </trkpt>
      <trkpt lat="43.0701" lon="1.48806">
        <ele>329.18</ele>
        <time>2019-09-04T12:41:44Z</time>
      </trkpt>
      <trkpt lat="43.0701" lon="1.48804">
        <ele>329.08</ele>
        <time>2019-09-04T12:41:45Z</time>
      </trkpt>
      <trkpt lat="43.07009" lon="1.48802">
        <ele>328.98</ele>
        <time>2019-09-04T12:41:46Z</time>
      </trkpt>
      <trkpt lat="43.07009" lon="1.488">
        <ele>328.89</ele>
        <time>2019-09-04T12:41:47Z</time>
      </trkpt>
      <trkpt lat="43.07004" lon="1.48758">
        <ele>327.03</ele>
        <time>2019-09-04T12:42:10Z</time>
      </trkpt>
      <trkpt lat="43.06998" lon="1.48719">
        <ele>325.6</ele>
        <time>2019-09-04T12:42:30Z</time>
      </trkpt>
      <trkpt lat="43.06995" lon="1.48689">
        <ele>326.39</ele>
        <time>2019-09-04T12:42:48Z</time>
      </trkpt>
      <trkpt lat="43.0699" lon="1.48652">
        <ele>326.12</ele>
        <time>2019-09-04T12:43:08Z</time>
      </trkpt>
      <trkpt lat="43.06986" lon="1.48624">
        <ele>326.71</ele>
        <time>2019-09-04T12:43:24Z</time>
      </trkpt>
      <trkpt lat="43.06976" lon="1.48599">
        <ele>327.65</ele>
        <time>2019-09-04T12:43:40Z</time>
      </trkpt>
      <trkpt lat="43.06975" lon="1.48599">
        <ele>327.81</ele>
        <time>2019-09-04T12:43:41Z</time>
      </trkpt>
      <trkpt lat="43.06974" lon="1.48598">
        <ele>327.76</ele>
        <time>2019-09-04T12:43:42Z</time>
      </trkpt>
      <trkpt lat="43.06973" lon="1.48598">
        <ele>327.93</ele>
        <time>2019-09-04T12:43:43Z</time>
      </trkpt>
      <trkpt lat="43.06972" lon="1.48598">
        <ele>328.09</ele>
        <time>2019-09-04T12:43:44Z</time>
      </trkpt>
      <trkpt lat="43.06951" lon="1.48597">
        <ele>328.34</ele>
        <time>2019-09-04T12:44:00Z</time>
      </trkpt>
      <trkpt lat="43.06926" lon="1.48596">
        <ele>328.42</ele>
        <time>2019-09-04T12:44:19Z</time>
      </trkpt>
      <trkpt lat="43.06905" lon="1.4859">
        <ele>328.61</ele>
        <time>2019-09-04T12:44:36Z</time>
      </trkpt>
      <trkpt lat="43.06903" lon="1.4859">
        <ele>328.63</ele>
        <time>2019-09-04T12:44:38Z</time>
      </trkpt>
      <trkpt lat="43.06901" lon="1.4859">
        <ele>328.63</ele>
        <time>2019-09-04T12:44:39Z</time>
      </trkpt>
      <trkpt lat="43.06878" lon="1.48585">
        <ele>328.86</ele>
        <time>2019-09-04T12:44:58Z</time>
      </trkpt>
      <trkpt lat="43.06853" lon="1.48582">
        <ele>328.99</ele>
        <time>2019-09-04T12:45:18Z</time>
      </trkpt>
      <trkpt lat="43.06831" lon="1.48578">
        <ele>329.42</ele>
        <time>2019-09-04T12:45:35Z</time>
      </trkpt>
      <trkpt lat="43.06814" lon="1.48566">
        <ele>329.22</ele>
        <time>2019-09-04T12:45:51Z</time>
      </trkpt>
      <trkpt lat="43.06813" lon="1.48564">
        <ele>330.91</ele>
        <time>2019-09-04T12:45:54Z</time>
      </trkpt>
      <trkpt lat="43.06802" lon="1.48546">
        <ele>331.25</ele>
        <time>2019-09-04T12:46:11Z</time>
      </trkpt>
      <trkpt lat="43.0679" lon="1.48532">
        <ele>331.97</ele>
        <time>2019-09-04T12:46:27Z</time>
      </trkpt>
      <trkpt lat="43.06773" lon="1.48514">
        <ele>331.97</ele>
        <time>2019-09-04T12:46:46Z</time>
      </trkpt>
      <trkpt lat="43.06757" lon="1.48495">
        <ele>331.97</ele>
        <time>2019-09-04T12:47:06Z</time>
      </trkpt>
      <trkpt lat="43.06752" lon="1.48488">
        <ele>339.33</ele>
        <time>2019-09-04T12:47:14Z</time>
      </trkpt>
      <trkpt lat="43.06743" lon="1.48464">
        <ele>342.14</ele>
        <time>2019-09-04T12:47:33Z</time>
      </trkpt>
      <trkpt lat="43.0674" lon="1.4844">
        <ele>345.16</ele>
        <time>2019-09-04T12:47:50Z</time>
      </trkpt>
      <trkpt lat="43.0675" lon="1.48416">
        <ele>347.02</ele>
        <time>2019-09-04T12:48:07Z</time>
      </trkpt>
      <trkpt lat="43.06755" lon="1.48408">
        <ele>347.35</ele>
        <time>2019-09-04T12:48:13Z</time>
      </trkpt>
      <trkpt lat="43.0676" lon="1.48378">
        <ele>346.91</ele>
        <time>2019-09-04T12:48:30Z</time>
      </trkpt>
      <trkpt lat="43.06758" lon="1.48343">
        <ele>346.09</ele>
        <time>2019-09-04T12:48:50Z</time>
      </trkpt>
      <trkpt lat="43.06758" lon="1.4829">
        <ele>343.5</ele>
        <time>2019-09-04T12:49:18Z</time>
      </trkpt>
      <trkpt lat="43.06758" lon="1.48286">
        <ele>342.8</ele>
        <time>2019-09-04T12:49:24Z</time>
      </trkpt>
      <trkpt lat="43.06758" lon="1.48281">
        <ele>342.66</ele>
        <time>2019-09-04T12:49:27Z</time>
      </trkpt>
      <trkpt lat="43.06758" lon="1.48279">
        <ele>342.62</ele>
        <time>2019-09-04T12:49:28Z</time>
      </trkpt>
      <trkpt lat="43.06758" lon="1.48219">
        <ele>339.73</ele>
        <time>2019-09-04T12:50:00Z</time>
      </trkpt>
      <trkpt lat="43.06758" lon="1.48167">
        <ele>336.68</ele>
        <time>2019-09-04T12:50:27Z</time>
      </trkpt>
      <trkpt lat="43.06758" lon="1.48117">
        <ele>334.45</ele>
        <time>2019-09-04T12:50:53Z</time>
      </trkpt>
      <trkpt lat="43.0676" lon="1.48079">
        <ele>332.65</ele>
        <time>2019-09-04T12:51:14Z</time>
      </trkpt>
      <trkpt lat="43.06767" lon="1.48046">
        <ele>331.09</ele>
        <time>2019-09-04T12:51:34Z</time>
      </trkpt>
      <trkpt lat="43.06781" lon="1.48007">
        <ele>329.24</ele>
        <time>2019-09-04T12:51:57Z</time>
      </trkpt>
      <trkpt lat="43.06797" lon="1.47966">
        <ele>327.97</ele>
        <time>2019-09-04T12:52:21Z</time>
      </trkpt>
      <trkpt lat="43.06821" lon="1.47925">
        <ele>327.26</ele>
        <time>2019-09-04T12:52:49Z</time>
      </trkpt>
      <trkpt lat="43.06848" lon="1.47902">
        <ele>327.01</ele>
        <time>2019-09-04T12:53:14Z</time>
      </trkpt>
      <trkpt lat="43.06873" lon="1.4789">
        <ele>326.76</ele>
        <time>2019-09-04T12:53:33Z</time>
      </trkpt>
      <trkpt lat="43.06902" lon="1.47879">
        <ele>326.33</ele>
        <time>2019-09-04T12:53:56Z</time>
      </trkpt>
      <trkpt lat="43.06932" lon="1.4786">
        <ele>326.33</ele>
        <time>2019-09-04T12:54:20Z</time>
      </trkpt>
      <trkpt lat="43.06955" lon="1.47825">
        <ele>325.08</ele>
        <time>2019-09-04T12:54:45Z</time>
      </trkpt>
      <trkpt lat="43.06977" lon="1.47786">
        <ele>323.84</ele>
        <time>2019-09-04T12:55:11Z</time>
      </trkpt>
      <trkpt lat="43.06995" lon="1.47745">
        <ele>322.79</ele>
        <time>2019-09-04T12:55:37Z</time>
      </trkpt>
      <trkpt lat="43.06995" lon="1.47705">
        <ele>322.3</ele>
        <time>2019-09-04T12:55:58Z</time>
      </trkpt>
      <trkpt lat="43.06993" lon="1.47691">
        <ele>322.31</ele>
        <time>2019-09-04T12:56:06Z</time>
      </trkpt>
      <trkpt lat="43.06992" lon="1.47686">
        <ele>322.36</ele>
        <time>2019-09-04T12:56:09Z</time>
      </trkpt>
      <trkpt lat="43.06987" lon="1.47659">
        <ele>321.94</ele>
        <time>2019-09-04T12:56:25Z</time>
      </trkpt>
      <trkpt lat="43.06979" lon="1.47614">
        <ele>321.72</ele>
        <time>2019-09-04T12:56:51Z</time>
      </trkpt>
      <trkpt lat="43.06968" lon="1.47556">
        <ele>322.51</ele>
        <time>2019-09-04T12:57:24Z</time>
      </trkpt>
      <trkpt lat="43.06966" lon="1.4751">
        <ele>322.96</ele>
        <time>2019-09-04T12:57:51Z</time>
      </trkpt>
      <trkpt lat="43.06978" lon="1.47472">
        <ele>324.16</ele>
        <time>2019-09-04T12:58:15Z</time>
      </trkpt>
      <trkpt lat="43.07" lon="1.47449">
        <ele>325.49</ele>
        <time>2019-09-04T12:58:39Z</time>
      </trkpt>
      <trkpt lat="43.07004" lon="1.47446">
        <ele>325.7</ele>
        <time>2019-09-04T12:58:43Z</time>
      </trkpt>
      <trkpt lat="43.07009" lon="1.47443">
        <ele>325.97</ele>
        <time>2019-09-04T12:58:47Z</time>
      </trkpt>
      <trkpt lat="43.07027" lon="1.47427">
        <ele>327</ele>
        <time>2019-09-04T12:59:05Z</time>
      </trkpt>
      <trkpt lat="43.07042" lon="1.47405">
        <ele>328.14</ele>
        <time>2019-09-04T12:59:23Z</time>
      </trkpt>
      <trkpt lat="43.07054" lon="1.4737">
        <ele>328.93</ele>
        <time>2019-09-04T12:59:45Z</time>
      </trkpt>
      <trkpt lat="43.07055" lon="1.47365">
        <ele>329</ele>
        <time>2019-09-04T12:59:48Z</time>
      </trkpt>
      <trkpt lat="43.07056" lon="1.47364">
        <ele>329.04</ele>
        <time>2019-09-04T12:59:49Z</time>
      </trkpt>
      <trkpt lat="43.07057" lon="1.47363">
        <ele>329.1</ele>
        <time>2019-09-04T12:59:50Z</time>
      </trkpt>
      <trkpt lat="43.07058" lon="1.47362">
        <ele>329.14</ele>
        <time>2019-09-04T12:59:51Z</time>
      </trkpt>
      <trkpt lat="43.07059" lon="1.47361">
        <ele>329.19</ele>
        <time>2019-09-04T12:59:52Z</time>
      </trkpt>
      <trkpt lat="43.07056" lon="1.47283">
        <ele>327.6</ele>
        <time>2019-09-04T13:15:38Z</time>
      </trkpt>
      <trkpt lat="43.07048" lon="1.47196">
        <ele>330</ele>
        <time>2019-09-04T13:15:56Z</time>
      </trkpt>
      <trkpt lat="43.07074" lon="1.47105">
        <ele>334.5</ele>
        <time>2019-09-04T13:16:15Z</time>
      </trkpt>
      <trkpt lat="43.07076" lon="1.4699">
        <ele>337.6</ele>
        <time>2019-09-04T13:16:16Z</time>
      </trkpt>
      <trkpt lat="43.07064" lon="1.46889">
        <ele>337.1</ele>
        <time>2019-09-04T13:16:17Z</time>
      </trkpt>
      <trkpt lat="43.07099" lon="1.46746">
        <ele>342.2</ele>
        <time>2019-09-04T13:16:19Z</time>
      </trkpt>
      <trkpt lat="43.0716" lon="1.46694">
        <ele>346.7</ele>
        <time>2019-09-04T13:16:33Z</time>
      </trkpt>
      <trkpt lat="43.0717" lon="1.46592">
        <ele>351.9</ele>
        <time>2019-09-04T13:16:48Z</time>
      </trkpt>
      <trkpt lat="43.07219" lon="1.46446">
        <ele>354.9</ele>
        <time>2019-09-04T13:16:56Z</time>
      </trkpt>
      <trkpt lat="43.0726" lon="1.46338">
        <ele>360.8</ele>
        <time>2019-09-04T13:17:01Z</time>
      </trkpt>
      <trkpt lat="43.0728" lon="1.4622">
        <ele>367.9</ele>
        <time>2019-09-04T13:17:02Z</time>
      </trkpt>
      <trkpt lat="43.07288" lon="1.46094">
        <ele>372.8</ele>
        <time>2019-09-04T13:17:24Z</time>
      </trkpt>
      <trkpt lat="43.07288" lon="1.46052">
        <ele>374.3</ele>
        <time>2019-09-04T13:17:41Z</time>
      </trkpt>
      <trkpt lat="43.07297" lon="1.46043">
        <ele>369.92</ele>
        <time>2019-09-04T13:17:57Z</time>
      </trkpt>
      <trkpt lat="43.07289" lon="1.46033">
        <ele>369.77</ele>
        <time>2019-09-04T13:18:18Z</time>
      </trkpt>
      <trkpt lat="43.07287" lon="1.46021">
        <ele>369.82</ele>
        <time>2019-09-04T13:18:36Z</time>
      </trkpt>
      <trkpt lat="43.07286" lon="1.4602">
        <ele>369.84</ele>
        <time>2019-09-04T13:18:56Z</time>
      </trkpt>
      <trkpt lat="43.07286" lon="1.46018">
        <ele>369.84</ele>
        <time>2019-09-04T13:19:08Z</time>
      </trkpt>
      <trkpt lat="43.07285" lon="1.46015">
        <ele>369.86</ele>
        <time>2019-09-04T13:19:27Z</time>
      </trkpt>
      <trkpt lat="43.07281" lon="1.46003">
        <ele>370.25</ele>
        <time>2019-09-04T13:19:46Z</time>
      </trkpt>
      <trkpt lat="43.07283" lon="1.46018">
        <ele>370.82</ele>
        <time>2019-09-04T13:20:05Z</time>
      </trkpt>
      <trkpt lat="43.07281" lon="1.46005">
        <ele>370.73</ele>
        <time>2019-09-04T13:20:26Z</time>
      </trkpt>
      <trkpt lat="43.07279" lon="1.45997">
        <ele>370.85</ele>
        <time>2019-09-04T13:20:45Z</time>
      </trkpt>
      <trkpt lat="43.07279" lon="1.45994">
        <ele>370.82</ele>
        <time>2019-09-04T13:21:02Z</time>
      </trkpt>
      <trkpt lat="43.07272" lon="1.45954">
        <ele>371.25</ele>
        <time>2019-09-04T13:21:05Z</time>
      </trkpt>
      <trkpt lat="43.0727" lon="1.45924">
        <ele>371.8</ele>
        <time>2019-09-04T13:21:22Z</time>
      </trkpt>
      <trkpt lat="43.07269" lon="1.45894">
        <ele>372.35</ele>
        <time>2019-09-04T13:21:44Z</time>
      </trkpt>
      <trkpt lat="43.07273" lon="1.45862">
        <ele>372.75</ele>
        <time>2019-09-04T13:22:03Z</time>
      </trkpt>
      <trkpt lat="43.07283" lon="1.45833">
        <ele>372.99</ele>
        <time>2019-09-04T13:22:24Z</time>
      </trkpt>
      <trkpt lat="43.07292" lon="1.45801">
        <ele>373.63</ele>
        <time>2019-09-04T13:22:46Z</time>
      </trkpt>
      <trkpt lat="43.07297" lon="1.45783">
        <ele>373.82</ele>
        <time>2019-09-04T13:23:10Z</time>
      </trkpt>
      <trkpt lat="43.07299" lon="1.45747">
        <ele>374.52</ele>
        <time>2019-09-04T13:23:32Z</time>
      </trkpt>
      <trkpt lat="43.07308" lon="1.45715">
        <ele>375.15</ele>
        <time>2019-09-04T13:24:07Z</time>
      </trkpt>
      <trkpt lat="43.07317" lon="1.45687">
        <ele>375.34</ele>
        <time>2019-09-04T13:24:30Z</time>
      </trkpt>
      <trkpt lat="43.07329" lon="1.45655">
        <ele>375.99</ele>
        <time>2019-09-04T13:24:33Z</time>
      </trkpt>
      <trkpt lat="43.0733" lon="1.45625">
        <ele>376.55</ele>
        <time>2019-09-04T13:24:52Z</time>
      </trkpt>
      <trkpt lat="43.07325" lon="1.45597">
        <ele>376.51</ele>
        <time>2019-09-04T13:25:08Z</time>
      </trkpt>
      <trkpt lat="43.07324" lon="1.45591">
        <ele>376.68</ele>
        <time>2019-09-04T13:25:18Z</time>
      </trkpt>
      <trkpt lat="43.07321" lon="1.45569">
        <ele>377.7</ele>
        <time>2019-09-04T13:25:33Z</time>
      </trkpt>
      <trkpt lat="43.07312" lon="1.45563">
        <ele>379.79</ele>
        <time>2019-09-04T13:25:49Z</time>
      </trkpt>
      <trkpt lat="43.07304" lon="1.45556">
        <ele>382.9</ele>
        <time>2019-09-04T13:26:09Z</time>
      </trkpt>
      <trkpt lat="43.07289" lon="1.45544">
        <ele>385.68</ele>
        <time>2019-09-04T13:26:28Z</time>
      </trkpt>
      <trkpt lat="43.07276" lon="1.45521">
        <ele>388.34</ele>
        <time>2019-09-04T13:26:50Z</time>
      </trkpt>
      <trkpt lat="43.07267" lon="1.45508">
        <ele>391.23</ele>
        <time>2019-09-04T13:27:09Z</time>
      </trkpt>
      <trkpt lat="43.07268" lon="1.45501">
        <ele>392.94</ele>
        <time>2019-09-04T13:27:25Z</time>
      </trkpt>
      <trkpt lat="43.07276" lon="1.45499">
        <ele>392.78</ele>
        <time>2019-09-04T13:27:45Z</time>
      </trkpt>
      <trkpt lat="43.07266" lon="1.45497">
        <ele>393.69</ele>
        <time>2019-09-04T13:28:13Z</time>
      </trkpt>
      <trkpt lat="43.07264" lon="1.45496">
        <ele>393.69</ele>
        <time>2019-09-04T13:28:52Z</time>
      </trkpt>
      <trkpt lat="43.07254" lon="1.45486">
        <ele>393.69</ele>
        <time>2019-09-04T13:29:08Z</time>
      </trkpt>
      <trkpt lat="43.07244" lon="1.45476">
        <ele>397.65</ele>
        <time>2019-09-04T13:29:26Z</time>
      </trkpt>
      <trkpt lat="43.07238" lon="1.45469">
        <ele>400.68</ele>
        <time>2019-09-04T13:29:40Z</time>
      </trkpt>
      <trkpt lat="43.07233" lon="1.45463">
        <ele>403.71</ele>
        <time>2019-09-04T13:29:57Z</time>
      </trkpt>
      <trkpt lat="43.07227" lon="1.45454">
        <ele>406.75</ele>
        <time>2019-09-04T13:30:02Z</time>
      </trkpt>
      <trkpt lat="43.07219" lon="1.45442">
        <ele>409.82</ele>
        <time>2019-09-04T13:30:17Z</time>
      </trkpt>
      <trkpt lat="43.07219" lon="1.45427">
        <ele>412.83</ele>
        <time>2019-09-04T13:30:21Z</time>
      </trkpt>
      <trkpt lat="43.07206" lon="1.45439">
        <ele>415.61</ele>
        <time>2019-09-04T13:30:40Z</time>
      </trkpt>
      <trkpt lat="43.07198" lon="1.45438">
        <ele>418.7</ele>
        <time>2019-09-04T13:30:53Z</time>
      </trkpt>
      <trkpt lat="43.07192" lon="1.45439">
        <ele>421.71</ele>
        <time>2019-09-04T13:31:08Z</time>
      </trkpt>
      <trkpt lat="43.07182" lon="1.45445">
        <ele>424.77</ele>
        <time>2019-09-04T13:31:25Z</time>
      </trkpt>
      <trkpt lat="43.0718" lon="1.45441">
        <ele>425.63</ele>
        <time>2019-09-04T13:31:39Z</time>
      </trkpt>
      <trkpt lat="43.07176" lon="1.45442">
        <ele>425.97</ele>
        <time>2019-09-04T13:31:56Z</time>
      </trkpt>
      <trkpt lat="43.07165" lon="1.45437">
        <ele>429.01</ele>
        <time>2019-09-04T13:32:10Z</time>
      </trkpt>
      <trkpt lat="43.07153" lon="1.45432">
        <ele>432.11</ele>
        <time>2019-09-04T13:32:26Z</time>
      </trkpt>
      <trkpt lat="43.07139" lon="1.45425">
        <ele>434.63</ele>
        <time>2019-09-04T13:32:44Z</time>
      </trkpt>
      <trkpt lat="43.07121" lon="1.45416">
        <ele>435.99</ele>
        <time>2019-09-04T13:33:03Z</time>
      </trkpt>
      <trkpt lat="43.07116" lon="1.4541">
        <ele>436.12</ele>
        <time>2019-09-04T13:33:19Z</time>
      </trkpt>
      <trkpt lat="43.07103" lon="1.45402">
        <ele>435.57</ele>
        <time>2019-09-04T13:33:28Z</time>
      </trkpt>
      <trkpt lat="43.07099" lon="1.454">
        <ele>434.31</ele>
        <time>2019-09-04T13:33:49Z</time>
      </trkpt>
      <trkpt lat="43.07084" lon="1.45385">
        <ele>434.36</ele>
        <time>2019-09-04T13:34:12Z</time>
      </trkpt>
      <trkpt lat="43.07083" lon="1.45366">
        <ele>437.18</ele>
        <time>2019-09-04T13:34:28Z</time>
      </trkpt>
      <trkpt lat="43.07089" lon="1.4535">
        <ele>439.66</ele>
        <time>2019-09-04T13:34:43Z</time>
      </trkpt>
      <trkpt lat="43.07094" lon="1.45333">
        <ele>442.61</ele>
        <time>2019-09-04T13:34:59Z</time>
      </trkpt>
      <trkpt lat="43.07096" lon="1.4532">
        <ele>445.44</ele>
        <time>2019-09-04T13:35:22Z</time>
      </trkpt>
      <trkpt lat="43.07099" lon="1.45301">
        <ele>448.1</ele>
        <time>2019-09-04T13:35:44Z</time>
      </trkpt>
      <trkpt lat="43.07105" lon="1.45288">
        <ele>450.29</ele>
        <time>2019-09-04T13:35:59Z</time>
      </trkpt>
      <trkpt lat="43.07101" lon="1.4528">
        <ele>453.48</ele>
        <time>2019-09-04T13:36:19Z</time>
      </trkpt>
      <trkpt lat="43.07087" lon="1.45298">
        <ele>455.44</ele>
        <time>2019-09-04T13:36:37Z</time>
      </trkpt>
      <trkpt lat="43.07076" lon="1.45302">
        <ele>458.06</ele>
        <time>2019-09-04T13:36:53Z</time>
      </trkpt>
      <trkpt lat="43.07062" lon="1.45313">
        <ele>461.08</ele>
        <time>2019-09-04T13:37:08Z</time>
      </trkpt>
      <trkpt lat="43.07055" lon="1.45325">
        <ele>461.56</ele>
        <time>2019-09-04T13:37:26Z</time>
      </trkpt>
      <trkpt lat="43.07043" lon="1.45345">
        <ele>460.22</ele>
        <time>2019-09-04T13:37:43Z</time>
      </trkpt>
      <trkpt lat="43.07023" lon="1.45361">
        <ele>463.02</ele>
        <time>2019-09-04T13:38:03Z</time>
      </trkpt>
      <trkpt lat="43.07016" lon="1.45364">
        <ele>466.16</ele>
        <time>2019-09-04T13:38:22Z</time>
      </trkpt>
      <trkpt lat="43.07001" lon="1.4537">
        <ele>469.16</ele>
        <time>2019-09-04T13:38:39Z</time>
      </trkpt>
      <trkpt lat="43.06991" lon="1.45377">
        <ele>471.83</ele>
        <time>2019-09-04T13:38:46Z</time>
      </trkpt>
      <trkpt lat="43.06969" lon="1.45391">
        <ele>474.1</ele>
        <time>2019-09-04T13:38:47Z</time>
      </trkpt>
      <trkpt lat="43.06945" lon="1.45395">
        <ele>474.12</ele>
        <time>2019-09-04T13:39:05Z</time>
      </trkpt>
      <trkpt lat="43.06928" lon="1.45398">
        <ele>474.28</ele>
        <time>2019-09-04T13:39:21Z</time>
      </trkpt>
      <trkpt lat="43.06908" lon="1.45402">
        <ele>475.68</ele>
        <time>2019-09-04T13:39:37Z</time>
      </trkpt>
      <trkpt lat="43.0689" lon="1.4541">
        <ele>477.7</ele>
        <time>2019-09-04T13:39:57Z</time>
      </trkpt>
      <trkpt lat="43.06873" lon="1.45417">
        <ele>477.96</ele>
        <time>2019-09-04T13:40:15Z</time>
      </trkpt>
      <trkpt lat="43.06859" lon="1.45408">
        <ele>477.83</ele>
        <time>2019-09-04T13:40:31Z</time>
      </trkpt>
      <trkpt lat="43.06867" lon="1.45388">
        <ele>477.62</ele>
        <time>2019-09-04T13:40:59Z</time>
      </trkpt>
      <trkpt lat="43.06876" lon="1.45367">
        <ele>477.59</ele>
        <time>2019-09-04T13:41:24Z</time>
      </trkpt>
      <trkpt lat="43.06881" lon="1.45341">
        <ele>477.89</ele>
        <time>2019-09-04T13:41:40Z</time>
      </trkpt>
      <trkpt lat="43.06891" lon="1.45321">
        <ele>477.89</ele>
        <time>2019-09-04T13:41:57Z</time>
      </trkpt>
      <trkpt lat="43.06896" lon="1.45298">
        <ele>477.89</ele>
        <time>2019-09-04T13:42:12Z</time>
      </trkpt>
      <trkpt lat="43.06899" lon="1.45288">
        <ele>481.34</ele>
        <time>2019-09-04T13:42:24Z</time>
      </trkpt>
      <trkpt lat="43.06899" lon="1.45287">
        <ele>481.4</ele>
        <time>2019-09-04T13:42:31Z</time>
      </trkpt>
      <trkpt lat="43.06907" lon="1.45266">
        <ele>482.81</ele>
        <time>2019-09-04T13:42:46Z</time>
      </trkpt>
      <trkpt lat="43.06913" lon="1.45245">
        <ele>484.26</ele>
        <time>2019-09-04T13:42:55Z</time>
      </trkpt>
      <trkpt lat="43.06914" lon="1.45229">
        <ele>484.64</ele>
        <time>2019-09-04T13:43:12Z</time>
      </trkpt>
      <trkpt lat="43.06922" lon="1.45214">
        <ele>485.66</ele>
        <time>2019-09-04T13:43:31Z</time>
      </trkpt>
      <trkpt lat="43.06929" lon="1.4519">
        <ele>486.79</ele>
        <time>2019-09-04T13:43:52Z</time>
      </trkpt>
      <trkpt lat="43.06933" lon="1.45175">
        <ele>488.15</ele>
        <time>2019-09-04T13:44:08Z</time>
      </trkpt>
      <trkpt lat="43.06933" lon="1.45173">
        <ele>488.53</ele>
        <time>2019-09-04T13:44:25Z</time>
      </trkpt>
      <trkpt lat="43.06936" lon="1.4516">
        <ele>488.64</ele>
        <time>2019-09-04T13:44:43Z</time>
      </trkpt>
      <trkpt lat="43.06943" lon="1.4514">
        <ele>489.41</ele>
        <time>2019-09-04T13:45:00Z</time>
      </trkpt>
      <trkpt lat="43.06951" lon="1.45117">
        <ele>490.23</ele>
        <time>2019-09-04T13:45:11Z</time>
      </trkpt>
      <trkpt lat="43.06955" lon="1.45104">
        <ele>490.79</ele>
        <time>2019-09-04T13:45:21Z</time>
      </trkpt>
      <trkpt lat="43.06961" lon="1.4509">
        <ele>491.21</ele>
        <time>2019-09-04T13:45:40Z</time>
      </trkpt>
      <trkpt lat="43.06964" lon="1.45081">
        <ele>491.66</ele>
        <time>2019-09-04T13:45:54Z</time>
      </trkpt>
      <trkpt lat="43.06971" lon="1.45062">
        <ele>493.01</ele>
        <time>2019-09-04T13:46:13Z</time>
      </trkpt>
      <trkpt lat="43.06973" lon="1.45049">
        <ele>492.82</ele>
        <time>2019-09-04T13:46:28Z</time>
      </trkpt>
      <trkpt lat="43.06978" lon="1.45025">
        <ele>493.49</ele>
        <time>2019-09-04T13:46:49Z</time>
      </trkpt>
      <trkpt lat="43.06986" lon="1.45006">
        <ele>494.95</ele>
        <time>2019-09-04T13:47:11Z</time>
      </trkpt>
      <trkpt lat="43.06994" lon="1.44974">
        <ele>496.54</ele>
        <time>2019-09-04T13:47:32Z</time>
      </trkpt>
      <trkpt lat="43.06999" lon="1.44954">
        <ele>498.48</ele>
        <time>2019-09-04T13:47:49Z</time>
      </trkpt>
      <trkpt lat="43.07006" lon="1.44936">
        <ele>501.08</ele>
        <time>2019-09-04T13:48:05Z</time>
      </trkpt>
      <trkpt lat="43.07014" lon="1.44909">
        <ele>502.76</ele>
        <time>2019-09-04T13:48:23Z</time>
      </trkpt>
      <trkpt lat="43.07017" lon="1.44885">
        <ele>503.68</ele>
        <time>2019-09-04T13:48:45Z</time>
      </trkpt>
      <trkpt lat="43.07017" lon="1.44864">
        <ele>504.05</ele>
        <time>2019-09-04T13:49:02Z</time>
      </trkpt>
      <trkpt lat="43.07018" lon="1.44849">
        <ele>504.19</ele>
        <time>2019-09-04T13:49:21Z</time>
      </trkpt>
      <trkpt lat="43.07026" lon="1.44821">
        <ele>505.41</ele>
        <time>2019-09-04T13:49:37Z</time>
      </trkpt>
      <trkpt lat="43.07028" lon="1.44804">
        <ele>505.82</ele>
        <time>2019-09-04T13:49:54Z</time>
      </trkpt>
      <trkpt lat="43.0703" lon="1.44778">
        <ele>505.44</ele>
        <time>2019-09-04T13:50:13Z</time>
      </trkpt>
      <trkpt lat="43.0703" lon="1.44757">
        <ele>505.19</ele>
        <time>2019-09-04T13:50:31Z</time>
      </trkpt>
      <trkpt lat="43.0704" lon="1.44726">
        <ele>506.71</ele>
        <time>2019-09-04T13:50:47Z</time>
      </trkpt>
      <trkpt lat="43.07044" lon="1.44699">
        <ele>509.39</ele>
        <time>2019-09-04T13:51:04Z</time>
      </trkpt>
      <trkpt lat="43.07051" lon="1.44672">
        <ele>511.96</ele>
        <time>2019-09-04T13:51:21Z</time>
      </trkpt>
      <trkpt lat="43.07053" lon="1.4465">
        <ele>515.1</ele>
        <time>2019-09-04T13:51:37Z</time>
      </trkpt>
      <trkpt lat="43.07043" lon="1.44633">
        <ele>514.72</ele>
        <time>2019-09-04T13:51:53Z</time>
      </trkpt>
      <trkpt lat="43.07044" lon="1.44613">
        <ele>513.88</ele>
        <time>2019-09-04T13:52:09Z</time>
      </trkpt>
      <trkpt lat="43.07052" lon="1.44588">
        <ele>516.82</ele>
        <time>2019-09-04T13:52:24Z</time>
      </trkpt>
      <trkpt lat="43.07059" lon="1.44568">
        <ele>519.88</ele>
        <time>2019-09-04T13:52:32Z</time>
      </trkpt>
      <trkpt lat="43.07064" lon="1.4454">
        <ele>521.72</ele>
        <time>2019-09-04T13:52:47Z</time>
      </trkpt>
      <trkpt lat="43.0707" lon="1.44526">
        <ele>523.7</ele>
        <time>2019-09-04T13:53:01Z</time>
      </trkpt>
      <trkpt lat="43.07077" lon="1.44505">
        <ele>525.01</ele>
        <time>2019-09-04T13:53:16Z</time>
      </trkpt>
      <trkpt lat="43.07088" lon="1.44482">
        <ele>525.13</ele>
        <time>2019-09-04T13:53:32Z</time>
      </trkpt>
      <trkpt lat="43.07096" lon="1.44456">
        <ele>525.47</ele>
        <time>2019-09-04T13:53:46Z</time>
      </trkpt>
      <trkpt lat="43.07093" lon="1.44437">
        <ele>524.84</ele>
        <time>2019-09-04T13:54:02Z</time>
      </trkpt>
      <trkpt lat="43.07077" lon="1.44414">
        <ele>521.96</ele>
        <time>2019-09-04T13:54:14Z</time>
      </trkpt>
      <trkpt lat="43.07084" lon="1.44393">
        <ele>520.86</ele>
        <time>2019-09-04T13:54:32Z</time>
      </trkpt>
      <trkpt lat="43.07093" lon="1.44371">
        <ele>520.41</ele>
        <time>2019-09-04T13:54:53Z</time>
      </trkpt>
      <trkpt lat="43.07101" lon="1.44347">
        <ele>519.15</ele>
        <time>2019-09-04T13:55:12Z</time>
      </trkpt>
      <trkpt lat="43.071" lon="1.44317">
        <ele>516</ele>
        <time>2019-09-04T13:55:30Z</time>
      </trkpt>
      <trkpt lat="43.07098" lon="1.44293">
        <ele>512.88</ele>
        <time>2019-09-04T13:55:48Z</time>
      </trkpt>
      <trkpt lat="43.07095" lon="1.4428">
        <ele>511.55</ele>
        <time>2019-09-04T13:56:03Z</time>
      </trkpt>
      <trkpt lat="43.07083" lon="1.44261">
        <ele>508.81</ele>
        <time>2019-09-04T13:56:22Z</time>
      </trkpt>
      <trkpt lat="43.07073" lon="1.44242">
        <ele>507.28</ele>
        <time>2019-09-04T13:56:41Z</time>
      </trkpt>
      <trkpt lat="43.07064" lon="1.44225">
        <ele>504.82</ele>
        <time>2019-09-04T13:57:03Z</time>
      </trkpt>
      <trkpt lat="43.07053" lon="1.44205">
        <ele>501.99</ele>
        <time>2019-09-04T13:57:19Z</time>
      </trkpt>
      <trkpt lat="43.07042" lon="1.44187">
        <ele>499.88</ele>
        <time>2019-09-04T13:57:37Z</time>
      </trkpt>
      <trkpt lat="43.07031" lon="1.44163">
        <ele>496.78</ele>
        <time>2019-09-04T13:57:57Z</time>
      </trkpt>
      <trkpt lat="43.07026" lon="1.44154">
        <ele>493.59</ele>
        <time>2019-09-04T13:58:14Z</time>
      </trkpt>
      <trkpt lat="43.07029" lon="1.44134">
        <ele>492.83</ele>
        <time>2019-09-04T13:58:29Z</time>
      </trkpt>
      <trkpt lat="43.07032" lon="1.44103">
        <ele>493.62</ele>
        <time>2019-09-04T13:58:46Z</time>
      </trkpt>
      <trkpt lat="43.07035" lon="1.44074">
        <ele>493.76</ele>
        <time>2019-09-04T13:59:04Z</time>
      </trkpt>
      <trkpt lat="43.07039" lon="1.4405">
        <ele>494.51</ele>
        <time>2019-09-04T13:59:06Z</time>
      </trkpt>
      <trkpt lat="43.07043" lon="1.44023">
        <ele>495.43</ele>
        <time>2019-09-04T13:59:22Z</time>
      </trkpt>
      <trkpt lat="43.07047" lon="1.44002">
        <ele>495.98</ele>
        <time>2019-09-04T13:59:48Z</time>
      </trkpt>
      <trkpt lat="43.07052" lon="1.43973">
        <ele>495.97</ele>
        <time>2019-09-04T14:00:06Z</time>
      </trkpt>
      <trkpt lat="43.07058" lon="1.43952">
        <ele>497.71</ele>
        <time>2019-09-04T14:00:25Z</time>
      </trkpt>
      <trkpt lat="43.07067" lon="1.43919">
        <ele>497.99</ele>
        <time>2019-09-04T14:00:43Z</time>
      </trkpt>
      <trkpt lat="43.07075" lon="1.43897">
        <ele>497.87</ele>
        <time>2019-09-04T14:00:56Z</time>
      </trkpt>
      <trkpt lat="43.07084" lon="1.43872">
        <ele>497.87</ele>
        <time>2019-09-04T14:01:12Z</time>
      </trkpt>
      <trkpt lat="43.0709" lon="1.43841">
        <ele>497.49</ele>
        <time>2019-09-04T14:01:29Z</time>
      </trkpt>
      <trkpt lat="43.07089" lon="1.43835">
        <ele>497.68</ele>
        <time>2019-09-04T14:01:47Z</time>
      </trkpt>
      <trkpt lat="43.07094" lon="1.43824">
        <ele>497.51</ele>
        <time>2019-09-04T14:02:01Z</time>
      </trkpt>
      <trkpt lat="43.07096" lon="1.43805">
        <ele>497.44</ele>
        <time>2019-09-04T14:02:13Z</time>
      </trkpt>
      <trkpt lat="43.07098" lon="1.43787">
        <ele>498.31</ele>
        <time>2019-09-04T14:02:30Z</time>
      </trkpt>
      <trkpt lat="43.07098" lon="1.43783">
        <ele>497.51</ele>
        <time>2019-09-04T14:02:44Z</time>
      </trkpt>
      <trkpt lat="43.07099" lon="1.43763">
        <ele>497.95</ele>
        <time>2019-09-04T14:02:59Z</time>
      </trkpt>
      <trkpt lat="43.07102" lon="1.4375">
        <ele>497.17</ele>
        <time>2019-09-04T14:03:14Z</time>
      </trkpt>
      <trkpt lat="43.07106" lon="1.43736">
        <ele>496.99</ele>
        <time>2019-09-04T14:03:30Z</time>
      </trkpt>
      <trkpt lat="43.07113" lon="1.43711">
        <ele>495.87</ele>
        <time>2019-09-04T14:03:44Z</time>
      </trkpt>
      <trkpt lat="43.07119" lon="1.43685">
        <ele>494.7</ele>
        <time>2019-09-04T14:04:02Z</time>
      </trkpt>
      <trkpt lat="43.07122" lon="1.43664">
        <ele>492.94</ele>
        <time>2019-09-04T14:04:18Z</time>
      </trkpt>
      <trkpt lat="43.07128" lon="1.43642">
        <ele>491.77</ele>
        <time>2019-09-04T14:04:31Z</time>
      </trkpt>
      <trkpt lat="43.07133" lon="1.43619">
        <ele>491.38</ele>
        <time>2019-09-04T14:04:49Z</time>
      </trkpt>
      <trkpt lat="43.07135" lon="1.43594">
        <ele>492.56</ele>
        <time>2019-09-04T14:05:09Z</time>
      </trkpt>
      <trkpt lat="43.07136" lon="1.43575">
        <ele>493.71</ele>
        <time>2019-09-04T14:05:27Z</time>
      </trkpt>
      <trkpt lat="43.07137" lon="1.4356">
        <ele>493.91</ele>
        <time>2019-09-04T14:05:38Z</time>
      </trkpt>
      <trkpt lat="43.07144" lon="1.43535">
        <ele>494.08</ele>
        <time>2019-09-04T14:05:44Z</time>
      </trkpt>
      <trkpt lat="43.07146" lon="1.43514">
        <ele>494.45</ele>
        <time>2019-09-04T14:05:47Z</time>
      </trkpt>
      <trkpt lat="43.07152" lon="1.43507">
        <ele>494.18</ele>
        <time>2019-09-04T14:06:06Z</time>
      </trkpt>
      <trkpt lat="43.07163" lon="1.43501">
        <ele>492.23</ele>
        <time>2019-09-04T14:06:22Z</time>
      </trkpt>
      <trkpt lat="43.07173" lon="1.43501">
        <ele>489.19</ele>
        <time>2019-09-04T14:06:39Z</time>
      </trkpt>
      <trkpt lat="43.0718" lon="1.43501">
        <ele>486.11</ele>
        <time>2019-09-04T14:06:43Z</time>
      </trkpt>
      <trkpt lat="43.07192" lon="1.43505">
        <ele>483.97</ele>
        <time>2019-09-04T14:06:56Z</time>
      </trkpt>
      <trkpt lat="43.07208" lon="1.43512">
        <ele>480.74</ele>
        <time>2019-09-04T14:07:01Z</time>
      </trkpt>
      <trkpt lat="43.07214" lon="1.43517">
        <ele>477.26</ele>
        <time>2019-09-04T14:07:18Z</time>
      </trkpt>
      <trkpt lat="43.07235" lon="1.43506">
        <ele>476.16</ele>
        <time>2019-09-04T14:07:31Z</time>
      </trkpt>
      <trkpt lat="43.07249" lon="1.43479">
        <ele>475.96</ele>
        <time>2019-09-04T14:07:45Z</time>
      </trkpt>
      <trkpt lat="43.07259" lon="1.43456">
        <ele>476.21</ele>
        <time>2019-09-04T14:08:07Z</time>
      </trkpt>
      <trkpt lat="43.07265" lon="1.43442">
        <ele>477.58</ele>
        <time>2019-09-04T14:08:27Z</time>
      </trkpt>
      <trkpt lat="43.07269" lon="1.43433">
        <ele>477.84</ele>
        <time>2019-09-04T14:08:45Z</time>
      </trkpt>
      <trkpt lat="43.07272" lon="1.43427">
        <ele>477.87</ele>
        <time>2019-09-04T14:09:04Z</time>
      </trkpt>
      <trkpt lat="43.07279" lon="1.43398">
        <ele>477.09</ele>
        <time>2019-09-04T14:09:18Z</time>
      </trkpt>
      <trkpt lat="43.07284" lon="1.43374">
        <ele>476.75</ele>
        <time>2019-09-04T14:09:35Z</time>
      </trkpt>
      <trkpt lat="43.07293" lon="1.43351">
        <ele>476.87</ele>
        <time>2019-09-04T14:09:36Z</time>
      </trkpt>
      <trkpt lat="43.07295" lon="1.43344">
        <ele>477.26</ele>
        <time>2019-09-04T14:09:45Z</time>
      </trkpt>
      <trkpt lat="43.07298" lon="1.43319">
        <ele>478.3</ele>
        <time>2019-09-04T14:09:57Z</time>
      </trkpt>
      <trkpt lat="43.07295" lon="1.43312">
        <ele>478.34</ele>
        <time>2019-09-04T14:10:01Z</time>
      </trkpt>
      <trkpt lat="43.0729" lon="1.43307">
        <ele>478.32</ele>
        <time>2019-09-04T14:10:02Z</time>
      </trkpt>
      <trkpt lat="43.07288" lon="1.43305">
        <ele>478.46</ele>
        <time>2019-09-04T14:10:04Z</time>
      </trkpt>
      <trkpt lat="43.07275" lon="1.43307">
        <ele>477.96</ele>
        <time>2019-09-04T14:10:05Z</time>
      </trkpt>
      <trkpt lat="43.07256" lon="1.43327">
        <ele>480.53</ele>
        <time>2019-09-04T14:10:06Z</time>
      </trkpt>
      <trkpt lat="43.0724" lon="1.43344">
        <ele>483.6</ele>
        <time>2019-09-04T14:10:07Z</time>
      </trkpt>
      <trkpt lat="43.07225" lon="1.4336">
        <ele>486.27</ele>
        <time>2019-09-04T14:10:18Z</time>
      </trkpt>
      <trkpt lat="43.07212" lon="1.43348">
        <ele>489.03</ele>
        <time>2019-09-04T14:10:34Z</time>
      </trkpt>
      <trkpt lat="43.07211" lon="1.43328">
        <ele>490.83</ele>
        <time>2019-09-04T14:10:42Z</time>
      </trkpt>
      <trkpt lat="43.07202" lon="1.43321">
        <ele>490.15</ele>
        <time>2019-09-04T14:10:43Z</time>
      </trkpt>
      <trkpt lat="43.07201" lon="1.43322">
        <ele>490.07</ele>
        <time>2019-09-04T14:10:51Z</time>
      </trkpt>
      <trkpt lat="43.07191" lon="1.43326">
        <ele>486.75</ele>
        <time>2019-09-04T14:10:58Z</time>
      </trkpt>
      <trkpt lat="43.0718" lon="1.43335">
        <ele>483.47</ele>
        <time>2019-09-04T14:11:05Z</time>
      </trkpt>
      <trkpt lat="43.07174" lon="1.43338">
        <ele>482.27</ele>
        <time>2019-09-04T14:11:09Z</time>
      </trkpt>
      <trkpt lat="43.07173" lon="1.43338">
        <ele>482</ele>
        <time>2019-09-04T14:11:22Z</time>
      </trkpt>
      <trkpt lat="43.07171" lon="1.43336">
        <ele>481.47</ele>
        <time>2019-09-04T14:11:39Z</time>
      </trkpt>
      <trkpt lat="43.0717" lon="1.43335">
        <ele>481.23</ele>
        <time>2019-09-04T14:11:50Z</time>
      </trkpt>
      <trkpt lat="43.0717" lon="1.43333">
        <ele>480.99</ele>
        <time>2019-09-04T14:11:52Z</time>
      </trkpt>
      <trkpt lat="43.0717" lon="1.43331">
        <ele>480.77</ele>
        <time>2019-09-04T14:11:53Z</time>
      </trkpt>
      <trkpt lat="43.07172" lon="1.43316">
        <ele>477.75</ele>
        <time>2019-09-04T14:12:02Z</time>
      </trkpt>
      <trkpt lat="43.0718" lon="1.43288">
        <ele>474.67</ele>
        <time>2019-09-04T14:12:04Z</time>
      </trkpt>
      <trkpt lat="43.07182" lon="1.43273">
        <ele>473.36</ele>
        <time>2019-09-04T14:12:18Z</time>
      </trkpt>
      <trkpt lat="43.07182" lon="1.43272">
        <ele>473.2</ele>
        <time>2019-09-04T14:12:26Z</time>
      </trkpt>
      <trkpt lat="43.07184" lon="1.43259">
        <ele>471.75</ele>
        <time>2019-09-04T14:12:37Z</time>
      </trkpt>
      <trkpt lat="43.07186" lon="1.43247">
        <ele>470.22</ele>
        <time>2019-09-04T14:12:52Z</time>
      </trkpt>
      <trkpt lat="43.07188" lon="1.43236">
        <ele>468.29</ele>
        <time>2019-09-04T14:13:07Z</time>
      </trkpt>
      <trkpt lat="43.0719" lon="1.43228">
        <ele>467.5</ele>
        <time>2019-09-04T14:13:24Z</time>
      </trkpt>
      <trkpt lat="43.07192" lon="1.43203">
        <ele>465.11</ele>
        <time>2019-09-04T14:13:39Z</time>
      </trkpt>
      <trkpt lat="43.07197" lon="1.43174">
        <ele>462.17</ele>
        <time>2019-09-04T14:13:54Z</time>
      </trkpt>
      <trkpt lat="43.07199" lon="1.43155">
        <ele>459.07</ele>
        <time>2019-09-04T14:13:55Z</time>
      </trkpt>
      <trkpt lat="43.07197" lon="1.43153">
        <ele>458.44</ele>
        <time>2019-09-04T14:13:58Z</time>
      </trkpt>
      <trkpt lat="43.07196" lon="1.43152">
        <ele>458.14</ele>
        <time>2019-09-04T14:13:59Z</time>
      </trkpt>
      <trkpt lat="43.07189" lon="1.43158">
        <ele>456.14</ele>
        <time>2019-09-04T14:14:00Z</time>
      </trkpt>
      <trkpt lat="43.07188" lon="1.43161">
        <ele>455.93</ele>
        <time>2019-09-04T14:14:02Z</time>
      </trkpt>
      <trkpt lat="43.07178" lon="1.43178">
        <ele>456.79</ele>
        <time>2019-09-04T14:14:17Z</time>
      </trkpt>
      <trkpt lat="43.07171" lon="1.43189">
        <ele>455.85</ele>
        <time>2019-09-04T14:14:21Z</time>
      </trkpt>
      <trkpt lat="43.07161" lon="1.43204">
        <ele>454.88</ele>
        <time>2019-09-04T14:14:22Z</time>
      </trkpt>
      <trkpt lat="43.07149" lon="1.43228">
        <ele>453.56</ele>
        <time>2019-09-04T14:14:37Z</time>
      </trkpt>
      <trkpt lat="43.07139" lon="1.43247">
        <ele>452.46</ele>
        <time>2019-09-04T14:14:52Z</time>
      </trkpt>
      <trkpt lat="43.07126" lon="1.43273">
        <ele>452.4</ele>
        <time>2019-09-04T14:14:58Z</time>
      </trkpt>
      <trkpt lat="43.07117" lon="1.43294">
        <ele>451.31</ele>
        <time>2019-09-04T14:14:59Z</time>
      </trkpt>
      <trkpt lat="43.07106" lon="1.43308">
        <ele>450.14</ele>
        <time>2019-09-04T14:15:00Z</time>
      </trkpt>
      <trkpt lat="43.07106" lon="1.43306">
        <ele>450.03</ele>
        <time>2019-09-04T14:15:15Z</time>
      </trkpt>
      <trkpt lat="43.07106" lon="1.43302">
        <ele>449.74</ele>
        <time>2019-09-04T14:15:33Z</time>
      </trkpt>
      <trkpt lat="43.07107" lon="1.433">
        <ele>449.59</ele>
        <time>2019-09-04T14:15:48Z</time>
      </trkpt>
      <trkpt lat="43.07107" lon="1.43299">
        <ele>449.41</ele>
        <time>2019-09-04T14:15:55Z</time>
      </trkpt>
      <trkpt lat="43.07108" lon="1.43296">
        <ele>449.1</ele>
        <time>2019-09-04T14:16:05Z</time>
      </trkpt>
      <trkpt lat="43.07112" lon="1.43272">
        <ele>446.82</ele>
        <time>2019-09-04T14:16:20Z</time>
      </trkpt>
      <trkpt lat="43.07113" lon="1.43264">
        <ele>445.66</ele>
        <time>2019-09-04T14:16:34Z</time>
      </trkpt>
      <trkpt lat="43.07114" lon="1.43262">
        <ele>445.41</ele>
        <time>2019-09-04T14:16:42Z</time>
      </trkpt>
      <trkpt lat="43.07116" lon="1.43232">
        <ele>442.05</ele>
        <time>2019-09-04T14:16:43Z</time>
      </trkpt>
      <trkpt lat="43.0712" lon="1.43204">
        <ele>439.04</ele>
        <time>2019-09-04T14:16:58Z</time>
      </trkpt>
      <trkpt lat="43.07121" lon="1.43193">
        <ele>437.74</ele>
        <time>2019-09-04T14:17:08Z</time>
      </trkpt>
      <trkpt lat="43.07122" lon="1.43191">
        <ele>437.58</ele>
        <time>2019-09-04T14:17:09Z</time>
      </trkpt>
      <trkpt lat="43.07122" lon="1.43189">
        <ele>437.43</ele>
        <time>2019-09-04T14:17:10Z</time>
      </trkpt>
      <trkpt lat="43.07123" lon="1.43161">
        <ele>434.42</ele>
        <time>2019-09-04T14:17:11Z</time>
      </trkpt>
      <trkpt lat="43.07128" lon="1.43133">
        <ele>431.93</ele>
        <time>2019-09-04T14:17:12Z</time>
      </trkpt>
      <trkpt lat="43.07132" lon="1.43107">
        <ele>429.56</ele>
        <time>2019-09-04T14:17:29Z</time>
      </trkpt>
      <trkpt lat="43.07136" lon="1.43097">
        <ele>428.55</ele>
        <time>2019-09-04T14:17:46Z</time>
      </trkpt>
      <trkpt lat="43.0714" lon="1.43082">
        <ele>427.07</ele>
        <time>2019-09-04T14:18:02Z</time>
      </trkpt>
      <trkpt lat="43.07145" lon="1.43059">
        <ele>424.3</ele>
        <time>2019-09-04T14:18:20Z</time>
      </trkpt>
      <trkpt lat="43.07142" lon="1.43032">
        <ele>423.93</ele>
        <time>2019-09-04T14:18:43Z</time>
      </trkpt>
      <trkpt lat="43.07139" lon="1.43017">
        <ele>422.42</ele>
        <time>2019-09-04T14:18:49Z</time>
      </trkpt>
      <trkpt lat="43.07138" lon="1.43015">
        <ele>421.98</ele>
        <time>2019-09-04T14:19:06Z</time>
      </trkpt>
      <trkpt lat="43.07134" lon="1.43008">
        <ele>419.66</ele>
        <time>2019-09-04T14:19:21Z</time>
      </trkpt>
      <trkpt lat="43.0713" lon="1.43003">
        <ele>419.39</ele>
        <time>2019-09-04T14:19:24Z</time>
      </trkpt>
      <trkpt lat="43.07129" lon="1.43001">
        <ele>419.36</ele>
        <time>2019-09-04T14:19:34Z</time>
      </trkpt>
      <trkpt lat="43.07128" lon="1.42999">
        <ele>419.32</ele>
        <time>2019-09-04T14:19:42Z</time>
      </trkpt>
      <trkpt lat="43.07127" lon="1.42998">
        <ele>419.18</ele>
        <time>2019-09-04T14:19:57Z</time>
      </trkpt>
      <trkpt lat="43.07126" lon="1.42997">
        <ele>418.93</ele>
        <time>2019-09-04T14:20:14Z</time>
      </trkpt>
      <trkpt lat="43.07109" lon="1.4298">
        <ele>415.89</ele>
        <time>2019-09-04T14:20:32Z</time>
      </trkpt>
      <trkpt lat="43.0709" lon="1.42968">
        <ele>412.78</ele>
        <time>2019-09-04T14:20:47Z</time>
      </trkpt>
      <trkpt lat="43.07072" lon="1.42956">
        <ele>409.63</ele>
        <time>2019-09-04T14:21:04Z</time>
      </trkpt>
      <trkpt lat="43.07052" lon="1.42943">
        <ele>407.62</ele>
        <time>2019-09-04T14:21:21Z</time>
      </trkpt>
      <trkpt lat="43.07025" lon="1.42928">
        <ele>406.83</ele>
        <time>2019-09-04T14:21:40Z</time>
      </trkpt>
      <trkpt lat="43.07019" lon="1.42922">
        <ele>406.83</ele>
        <time>2019-09-04T14:21:54Z</time>
      </trkpt>
      <trkpt lat="43.06999" lon="1.42907">
        <ele>407.7</ele>
        <time>2019-09-04T14:22:14Z</time>
      </trkpt>
      <trkpt lat="43.06985" lon="1.4289">
        <ele>408.03</ele>
        <time>2019-09-04T14:22:25Z</time>
      </trkpt>
      <trkpt lat="43.06982" lon="1.42886">
        <ele>408.24</ele>
        <time>2019-09-04T14:22:26Z</time>
      </trkpt>
      <trkpt lat="43.06978" lon="1.42873">
        <ele>409.44</ele>
        <time>2019-09-04T14:22:40Z</time>
      </trkpt>
      <trkpt lat="43.06975" lon="1.42862">
        <ele>410</ele>
        <time>2019-09-04T14:22:57Z</time>
      </trkpt>
      <trkpt lat="43.06965" lon="1.42846">
        <ele>412.35</ele>
        <time>2019-09-04T14:23:08Z</time>
      </trkpt>
      <trkpt lat="43.06946" lon="1.42834">
        <ele>413.4</ele>
        <time>2019-09-04T14:23:26Z</time>
      </trkpt>
      <trkpt lat="43.06925" lon="1.42819">
        <ele>414.71</ele>
        <time>2019-09-04T14:23:43Z</time>
      </trkpt>
      <trkpt lat="43.06918" lon="1.42798">
        <ele>416.05</ele>
        <time>2019-09-04T14:24:00Z</time>
      </trkpt>
      <trkpt lat="43.06921" lon="1.4277">
        <ele>417.97</ele>
        <time>2019-09-04T14:24:11Z</time>
      </trkpt>
      <trkpt lat="43.06927" lon="1.42744">
        <ele>419.36</ele>
        <time>2019-09-04T14:24:28Z</time>
      </trkpt>
      <trkpt lat="43.06926" lon="1.42713">
        <ele>421.02</ele>
        <time>2019-09-04T14:24:42Z</time>
      </trkpt>
      <trkpt lat="43.06929" lon="1.42695">
        <ele>422.13</ele>
        <time>2019-09-04T14:24:58Z</time>
      </trkpt>
      <trkpt lat="43.06934" lon="1.42667">
        <ele>423.93</ele>
        <time>2019-09-04T14:25:16Z</time>
      </trkpt>
      <trkpt lat="43.06938" lon="1.42652">
        <ele>424.77</ele>
        <time>2019-09-04T14:25:31Z</time>
      </trkpt>
      <trkpt lat="43.06939" lon="1.4265">
        <ele>424.84</ele>
        <time>2019-09-04T14:25:48Z</time>
      </trkpt>
      <trkpt lat="43.06944" lon="1.42632">
        <ele>426.16</ele>
        <time>2019-09-04T14:26:03Z</time>
      </trkpt>
      <trkpt lat="43.06948" lon="1.42601">
        <ele>427.48</ele>
        <time>2019-09-04T14:26:09Z</time>
      </trkpt>
      <trkpt lat="43.0695" lon="1.42582">
        <ele>428.47</ele>
        <time>2019-09-04T14:26:25Z</time>
      </trkpt>
      <trkpt lat="43.06952" lon="1.42559">
        <ele>429.9</ele>
        <time>2019-09-04T14:26:43Z</time>
      </trkpt>
      <trkpt lat="43.0695" lon="1.42531">
        <ele>431.31</ele>
        <time>2019-09-04T14:26:47Z</time>
      </trkpt>
      <trkpt lat="43.06947" lon="1.42505">
        <ele>432.58</ele>
        <time>2019-09-04T14:26:48Z</time>
      </trkpt>
      <trkpt lat="43.06946" lon="1.4249">
        <ele>433.61</ele>
        <time>2019-09-04T14:26:49Z</time>
      </trkpt>
      <trkpt lat="43.06938" lon="1.42463">
        <ele>434.69</ele>
        <time>2019-09-04T14:27:09Z</time>
      </trkpt>
      <trkpt lat="43.06932" lon="1.42441">
        <ele>435.91</ele>
        <time>2019-09-04T14:27:29Z</time>
      </trkpt>
      <trkpt lat="43.06933" lon="1.42417">
        <ele>437.07</ele>
        <time>2019-09-04T14:27:45Z</time>
      </trkpt>
      <trkpt lat="43.06932" lon="1.42392">
        <ele>438.73</ele>
        <time>2019-09-04T14:28:02Z</time>
      </trkpt>
      <trkpt lat="43.06933" lon="1.42371">
        <ele>440.48</ele>
        <time>2019-09-04T14:28:21Z</time>
      </trkpt>
      <trkpt lat="43.06931" lon="1.42344">
        <ele>441.85</ele>
        <time>2019-09-04T14:28:40Z</time>
      </trkpt>
      <trkpt lat="43.0693" lon="1.42322">
        <ele>443.42</ele>
        <time>2019-09-04T14:28:46Z</time>
      </trkpt>
      <trkpt lat="43.0693" lon="1.42312">
        <ele>443.92</ele>
        <time>2019-09-04T14:28:47Z</time>
      </trkpt>
      <trkpt lat="43.06929" lon="1.42283">
        <ele>444.63</ele>
        <time>2019-09-04T14:28:48Z</time>
      </trkpt>
      <trkpt lat="43.06925" lon="1.42252">
        <ele>444.82</ele>
        <time>2019-09-04T14:29:03Z</time>
      </trkpt>
      <trkpt lat="43.06924" lon="1.42246">
        <ele>444.4</ele>
        <time>2019-09-04T14:29:18Z</time>
      </trkpt>
      <trkpt lat="43.06923" lon="1.42245">
        <ele>444.65</ele>
        <time>2019-09-04T14:29:34Z</time>
      </trkpt>
      <trkpt lat="43.06922" lon="1.42243">
        <ele>445.03</ele>
        <time>2019-09-04T14:29:51Z</time>
      </trkpt>
      <trkpt lat="43.06902" lon="1.42221">
        <ele>443.87</ele>
        <time>2019-09-04T14:30:00Z</time>
      </trkpt>
      <trkpt lat="43.06881" lon="1.42205">
        <ele>444.31</ele>
        <time>2019-09-04T14:30:16Z</time>
      </trkpt>
      <trkpt lat="43.06877" lon="1.42181">
        <ele>444.85</ele>
        <time>2019-09-04T14:30:34Z</time>
      </trkpt>
      <trkpt lat="43.06876" lon="1.42151">
        <ele>446.3</ele>
        <time>2019-09-04T14:30:50Z</time>
      </trkpt>
      <trkpt lat="43.06873" lon="1.42119">
        <ele>447.64</ele>
        <time>2019-09-04T14:31:10Z</time>
      </trkpt>
      <trkpt lat="43.0687" lon="1.42088">
        <ele>449.07</ele>
        <time>2019-09-04T14:31:25Z</time>
      </trkpt>
      <trkpt lat="43.06869" lon="1.42078">
        <ele>449.5</ele>
        <time>2019-09-04T14:31:37Z</time>
      </trkpt>
      <trkpt lat="43.06868" lon="1.42076">
        <ele>449.56</ele>
        <time>2019-09-04T14:31:49Z</time>
      </trkpt>
      <trkpt lat="43.06868" lon="1.42074">
        <ele>449.62</ele>
        <time>2019-09-04T14:32:03Z</time>
      </trkpt>
      <trkpt lat="43.06863" lon="1.42052">
        <ele>450.55</ele>
        <time>2019-09-04T14:32:19Z</time>
      </trkpt>
      <trkpt lat="43.06857" lon="1.42031">
        <ele>451.73</ele>
        <time>2019-09-04T14:32:33Z</time>
      </trkpt>
      <trkpt lat="43.0685" lon="1.4201">
        <ele>453.67</ele>
        <time>2019-09-04T14:32:47Z</time>
      </trkpt>
      <trkpt lat="43.06845" lon="1.41986">
        <ele>456.43</ele>
        <time>2019-09-04T14:33:04Z</time>
      </trkpt>
      <trkpt lat="43.06844" lon="1.41973">
        <ele>457.64</ele>
        <time>2019-09-04T14:33:21Z</time>
      </trkpt>
      <trkpt lat="43.06842" lon="1.41948">
        <ele>459.78</ele>
        <time>2019-09-04T14:33:40Z</time>
      </trkpt>
      <trkpt lat="43.06838" lon="1.41918">
        <ele>461.28</ele>
        <time>2019-09-04T14:33:52Z</time>
      </trkpt>
      <trkpt lat="43.06836" lon="1.41893">
        <ele>462.61</ele>
        <time>2019-09-04T14:34:05Z</time>
      </trkpt>
      <trkpt lat="43.06832" lon="1.41865">
        <ele>465.41</ele>
        <time>2019-09-04T14:34:07Z</time>
      </trkpt>
      <trkpt lat="43.0683" lon="1.41841">
        <ele>467.56</ele>
        <time>2019-09-04T14:34:23Z</time>
      </trkpt>
      <trkpt lat="43.06829" lon="1.41823">
        <ele>468.68</ele>
        <time>2019-09-04T14:34:25Z</time>
      </trkpt>
      <trkpt lat="43.06827" lon="1.41805">
        <ele>470.11</ele>
        <time>2019-09-04T14:34:29Z</time>
      </trkpt>
      <trkpt lat="43.06824" lon="1.41789">
        <ele>471.95</ele>
        <time>2019-09-04T14:34:45Z</time>
      </trkpt>
      <trkpt lat="43.06824" lon="1.41768">
        <ele>473.9</ele>
        <time>2019-09-04T14:35:01Z</time>
      </trkpt>
      <trkpt lat="43.06823" lon="1.41749">
        <ele>475.75</ele>
        <time>2019-09-04T14:35:19Z</time>
      </trkpt>
      <trkpt lat="43.06819" lon="1.41726">
        <ele>477.27</ele>
        <time>2019-09-04T14:35:35Z</time>
      </trkpt>
      <trkpt lat="43.06812" lon="1.417">
        <ele>479.06</ele>
        <time>2019-09-04T14:35:51Z</time>
      </trkpt>
      <trkpt lat="43.06806" lon="1.41675">
        <ele>480.4</ele>
        <time>2019-09-04T14:36:04Z</time>
      </trkpt>
      <trkpt lat="43.06803" lon="1.41644">
        <ele>482.9</ele>
        <time>2019-09-04T14:36:18Z</time>
      </trkpt>
      <trkpt lat="43.068" lon="1.41624">
        <ele>483.75</ele>
        <time>2019-09-04T14:36:34Z</time>
      </trkpt>
      <trkpt lat="43.068" lon="1.41603">
        <ele>482.96</ele>
        <time>2019-09-04T14:36:55Z</time>
      </trkpt>
      <trkpt lat="43.068" lon="1.416">
        <ele>482.81</ele>
        <time>2019-09-04T14:37:12Z</time>
      </trkpt>
      <trkpt lat="43.06807" lon="1.41575">
        <ele>481.29</ele>
        <time>2019-09-04T14:37:33Z</time>
      </trkpt>
      <trkpt lat="43.06808" lon="1.41571">
        <ele>481.09</ele>
        <time>2019-09-04T14:37:45Z</time>
      </trkpt>
      <trkpt lat="43.0681" lon="1.41564">
        <ele>480.67</ele>
        <time>2019-09-04T14:38:02Z</time>
      </trkpt>
      <trkpt lat="43.06816" lon="1.41537">
        <ele>479.27</ele>
        <time>2019-09-04T14:38:20Z</time>
      </trkpt>
      <trkpt lat="43.06823" lon="1.41513">
        <ele>476.74</ele>
        <time>2019-09-04T14:38:40Z</time>
      </trkpt>
      <trkpt lat="43.06826" lon="1.41477">
        <ele>473.58</ele>
        <time>2019-09-04T14:38:57Z</time>
      </trkpt>
      <trkpt lat="43.06827" lon="1.41445">
        <ele>471.67</ele>
        <time>2019-09-04T14:39:12Z</time>
      </trkpt>
      <trkpt lat="43.06828" lon="1.4142">
        <ele>470.63</ele>
        <time>2019-09-04T14:39:25Z</time>
      </trkpt>
      <trkpt lat="43.06825" lon="1.41395">
        <ele>470.18</ele>
        <time>2019-09-04T14:39:41Z</time>
      </trkpt>
      <trkpt lat="43.06819" lon="1.41383">
        <ele>469.86</ele>
        <time>2019-09-04T14:39:54Z</time>
      </trkpt>
      <trkpt lat="43.06817" lon="1.41406">
        <ele>467.29</ele>
        <time>2019-09-04T14:40:10Z</time>
      </trkpt>
      <trkpt lat="43.06814" lon="1.41422">
        <ele>465.61</ele>
        <time>2019-09-04T14:40:25Z</time>
      </trkpt>
      <trkpt lat="43.06804" lon="1.41446">
        <ele>464.1</ele>
        <time>2019-09-04T14:40:42Z</time>
      </trkpt>
      <trkpt lat="43.06788" lon="1.41472">
        <ele>461.65</ele>
        <time>2019-09-04T14:40:55Z</time>
      </trkpt>
      <trkpt lat="43.0678" lon="1.41491">
        <ele>459.72</ele>
        <time>2019-09-04T14:41:05Z</time>
      </trkpt>
      <trkpt lat="43.06766" lon="1.41509">
        <ele>459.83</ele>
        <time>2019-09-04T14:41:20Z</time>
      </trkpt>
      <trkpt lat="43.06745" lon="1.41528">
        <ele>458.69</ele>
        <time>2019-09-04T14:41:35Z</time>
      </trkpt>
      <trkpt lat="43.06718" lon="1.41526">
        <ele>457.42</ele>
        <time>2019-09-04T14:41:51Z</time>
      </trkpt>
      <trkpt lat="43.06697" lon="1.41524">
        <ele>454.31</ele>
        <time>2019-09-04T14:42:04Z</time>
      </trkpt>
      <trkpt lat="43.06677" lon="1.41529">
        <ele>451.16</ele>
        <time>2019-09-04T14:42:16Z</time>
      </trkpt>
      <trkpt lat="43.06674" lon="1.41517">
        <ele>448.11</ele>
        <time>2019-09-04T14:42:30Z</time>
      </trkpt>
      <trkpt lat="43.06689" lon="1.41502">
        <ele>445.93</ele>
        <time>2019-09-04T14:42:43Z</time>
      </trkpt>
      <trkpt lat="43.06705" lon="1.41486">
        <ele>443.03</ele>
        <time>2019-09-04T14:42:57Z</time>
      </trkpt>
      <trkpt lat="43.06699" lon="1.41462">
        <ele>440</ele>
        <time>2019-09-04T14:43:10Z</time>
      </trkpt>
      <trkpt lat="43.06682" lon="1.41467">
        <ele>437.3</ele>
        <time>2019-09-04T14:43:25Z</time>
      </trkpt>
      <trkpt lat="43.06662" lon="1.41477">
        <ele>435.36</ele>
        <time>2019-09-04T14:43:39Z</time>
      </trkpt>
      <trkpt lat="43.06647" lon="1.41488">
        <ele>433.3</ele>
        <time>2019-09-04T14:43:55Z</time>
      </trkpt>
      <trkpt lat="43.06635" lon="1.41497">
        <ele>432.3</ele>
        <time>2019-09-04T14:44:10Z</time>
      </trkpt>
      <trkpt lat="43.06618" lon="1.4151">
        <ele>429.47</ele>
        <time>2019-09-04T14:44:22Z</time>
      </trkpt>
      <trkpt lat="43.06603" lon="1.4152">
        <ele>426.28</ele>
        <time>2019-09-04T14:44:34Z</time>
      </trkpt>
      <trkpt lat="43.06584" lon="1.41536">
        <ele>423.8</ele>
        <time>2019-09-04T14:44:48Z</time>
      </trkpt>
      <trkpt lat="43.06569" lon="1.41546">
        <ele>421.05</ele>
        <time>2019-09-04T14:45:05Z</time>
      </trkpt>
      <trkpt lat="43.06559" lon="1.41543">
        <ele>418.19</ele>
        <time>2019-09-04T14:45:24Z</time>
      </trkpt>
      <trkpt lat="43.06561" lon="1.4152">
        <ele>416.06</ele>
        <time>2019-09-04T14:45:42Z</time>
      </trkpt>
      <trkpt lat="43.06564" lon="1.41497">
        <ele>413.53</ele>
        <time>2019-09-04T14:45:59Z</time>
      </trkpt>
      <trkpt lat="43.06567" lon="1.41478">
        <ele>410.32</ele>
        <time>2019-09-04T14:46:12Z</time>
      </trkpt>
      <trkpt lat="43.06551" lon="1.4148">
        <ele>407.23</ele>
        <time>2019-09-04T14:46:24Z</time>
      </trkpt>
      <trkpt lat="43.06533" lon="1.41486">
        <ele>404.04</ele>
        <time>2019-09-04T14:46:41Z</time>
      </trkpt>
      <trkpt lat="43.06531" lon="1.41471">
        <ele>401</ele>
        <time>2019-09-04T14:46:56Z</time>
      </trkpt>
      <trkpt lat="43.06531" lon="1.41451">
        <ele>398.14</ele>
        <time>2019-09-04T14:47:18Z</time>
      </trkpt>
      <trkpt lat="43.06519" lon="1.41457">
        <ele>395.11</ele>
        <time>2019-09-04T14:47:37Z</time>
      </trkpt>
      <trkpt lat="43.0651" lon="1.41444">
        <ele>391.97</ele>
        <time>2019-09-04T14:47:55Z</time>
      </trkpt>
      <trkpt lat="43.06511" lon="1.41423">
        <ele>388.82</ele>
        <time>2019-09-04T14:48:09Z</time>
      </trkpt>
      <trkpt lat="43.06497" lon="1.41413">
        <ele>385.66</ele>
        <time>2019-09-04T14:48:19Z</time>
      </trkpt>
      <trkpt lat="43.06482" lon="1.41428">
        <ele>383.14</ele>
        <time>2019-09-04T14:48:29Z</time>
      </trkpt>
      <trkpt lat="43.06472" lon="1.41454">
        <ele>380.33</ele>
        <time>2019-09-04T14:48:39Z</time>
      </trkpt>
      <trkpt lat="43.0647" lon="1.41475">
        <ele>377.42</ele>
        <time>2019-09-04T14:48:51Z</time>
      </trkpt>
      <trkpt lat="43.0646" lon="1.41497">
        <ele>374.75</ele>
        <time>2019-09-04T14:49:03Z</time>
      </trkpt>
      <trkpt lat="43.06439" lon="1.41501">
        <ele>371.57</ele>
        <time>2019-09-04T14:49:20Z</time>
      </trkpt>
      <trkpt lat="43.06431" lon="1.41484">
        <ele>368.53</ele>
        <time>2019-09-04T14:49:38Z</time>
      </trkpt>
      <trkpt lat="43.06421" lon="1.41458">
        <ele>365.49</ele>
        <time>2019-09-04T14:49:57Z</time>
      </trkpt>
      <trkpt lat="43.06412" lon="1.41437">
        <ele>362.38</ele>
        <time>2019-09-04T14:50:11Z</time>
      </trkpt>
      <trkpt lat="43.06408" lon="1.41397">
        <ele>359.59</ele>
        <time>2019-09-04T14:50:30Z</time>
      </trkpt>
      <trkpt lat="43.06412" lon="1.41363">
        <ele>356.58</ele>
        <time>2019-09-04T14:50:48Z</time>
      </trkpt>
      <trkpt lat="43.06413" lon="1.41331">
        <ele>354.14</ele>
        <time>2019-09-04T14:51:06Z</time>
      </trkpt>
      <trkpt lat="43.06409" lon="1.41312">
        <ele>350.89</ele>
        <time>2019-09-04T14:51:21Z</time>
      </trkpt>
      <trkpt lat="43.06407" lon="1.41293">
        <ele>347.6</ele>
        <time>2019-09-04T14:51:38Z</time>
      </trkpt>
      <trkpt lat="43.06405" lon="1.41277">
        <ele>344.51</ele>
        <time>2019-09-04T14:51:46Z</time>
      </trkpt>
      <trkpt lat="43.06401" lon="1.41258">
        <ele>341.35</ele>
        <time>2019-09-04T14:52:00Z</time>
      </trkpt>
      <trkpt lat="43.06404" lon="1.41239">
        <ele>338.34</ele>
        <time>2019-09-04T14:52:18Z</time>
      </trkpt>
      <trkpt lat="43.0641" lon="1.41231">
        <ele>336.32</ele>
        <time>2019-09-04T14:52:25Z</time>
      </trkpt>
      <trkpt lat="43.06427" lon="1.41213">
        <ele>337.95</ele>
        <time>2019-09-04T14:52:33Z</time>
      </trkpt>
      <trkpt lat="43.06435" lon="1.41185">
        <ele>338.67</ele>
        <time>2019-09-04T14:52:46Z</time>
      </trkpt>
      <trkpt lat="43.06439" lon="1.41158">
        <ele>336.75</ele>
        <time>2019-09-04T14:52:55Z</time>
      </trkpt>
      <trkpt lat="43.06436" lon="1.41131">
        <ele>334.77</ele>
        <time>2019-09-04T14:53:11Z</time>
      </trkpt>
      <trkpt lat="43.06434" lon="1.41097">
        <ele>332.7</ele>
        <time>2019-09-04T14:53:24Z</time>
      </trkpt>
      <trkpt lat="43.06426" lon="1.41078">
        <ele>329.95</ele>
        <time>2019-09-04T14:53:41Z</time>
      </trkpt>
      <trkpt lat="43.06421" lon="1.4107">
        <ele>328.79</ele>
        <time>2019-09-04T14:53:57Z</time>
      </trkpt>
      <trkpt lat="43.06418" lon="1.41044">
        <ele>329.05</ele>
        <time>2019-09-04T14:54:13Z</time>
      </trkpt>
      <trkpt lat="43.06413" lon="1.41017">
        <ele>329.3</ele>
        <time>2019-09-04T14:54:29Z</time>
      </trkpt>
      <trkpt lat="43.06412" lon="1.41004">
        <ele>330.83</ele>
        <time>2019-09-04T14:54:38Z</time>
      </trkpt>
      <trkpt lat="43.06414" lon="1.40982">
        <ele>330.17</ele>
        <time>2019-09-04T14:54:57Z</time>
      </trkpt>
      <trkpt lat="43.06429" lon="1.40963">
        <ele>330.17</ele>
        <time>2019-09-04T14:55:15Z</time>
      </trkpt>
      <trkpt lat="43.06434" lon="1.40952">
        <ele>330.17</ele>
        <time>2019-09-04T14:55:28Z</time>
      </trkpt>
      <trkpt lat="43.0643" lon="1.40944">
        <ele>330.48</ele>
        <time>2019-09-04T14:55:43Z</time>
      </trkpt>
      <trkpt lat="43.06427" lon="1.40925">
        <ele>330.62</ele>
        <time>2019-09-04T14:56:04Z</time>
      </trkpt>
      <trkpt lat="43.06428" lon="1.40908">
        <ele>330.18</ele>
        <time>2019-09-04T14:56:22Z</time>
      </trkpt>
      <trkpt lat="43.06431" lon="1.40881">
        <ele>329.77</ele>
        <time>2019-09-04T14:56:42Z</time>
      </trkpt>
      <trkpt lat="43.06437" lon="1.40861">
        <ele>329.83</ele>
        <time>2019-09-04T14:56:58Z</time>
      </trkpt>
      <trkpt lat="43.06445" lon="1.40837">
        <ele>328.96</ele>
        <time>2019-09-04T14:57:11Z</time>
      </trkpt>
      <trkpt lat="43.06444" lon="1.40812">
        <ele>329.41</ele>
        <time>2019-09-04T14:57:23Z</time>
      </trkpt>
      <trkpt lat="43.06448" lon="1.4079">
        <ele>330.06</ele>
        <time>2019-09-04T14:57:39Z</time>
      </trkpt>
      <trkpt lat="43.06454" lon="1.40765">
        <ele>330.06</ele>
        <time>2019-09-04T14:57:52Z</time>
      </trkpt>
      <trkpt lat="43.06455" lon="1.40746">
        <ele>330.06</ele>
        <time>2019-09-04T14:58:06Z</time>
      </trkpt>
      <trkpt lat="43.06458" lon="1.40717">
        <ele>330.06</ele>
        <time>2019-09-04T14:58:16Z</time>
      </trkpt>
      <trkpt lat="43.06466" lon="1.40688">
        <ele>330.12</ele>
        <time>2019-09-04T14:58:18Z</time>
      </trkpt>
      <trkpt lat="43.06476" lon="1.40673">
        <ele>331.32</ele>
        <time>2019-09-04T14:58:27Z</time>
      </trkpt>
      <trkpt lat="43.06492" lon="1.40659">
        <ele>332.33</ele>
        <time>2019-09-04T14:58:28Z</time>
      </trkpt>
      <trkpt lat="43.06515" lon="1.40651">
        <ele>333.08</ele>
        <time>2019-09-04T14:58:36Z</time>
      </trkpt>
      <trkpt lat="43.06535" lon="1.40642">
        <ele>333.47</ele>
        <time>2019-09-04T14:58:37Z</time>
      </trkpt>
      <trkpt lat="43.06559" lon="1.40633">
        <ele>333.54</ele>
        <time>2019-09-04T14:58:38Z</time>
      </trkpt>
      <trkpt lat="43.06576" lon="1.4063">
        <ele>333.74</ele>
        <time>2019-09-04T14:58:40Z</time>
      </trkpt>
      <trkpt lat="43.06582" lon="1.40605">
        <ele>333.74</ele>
        <time>2019-09-04T14:58:41Z</time>
      </trkpt>
      <trkpt lat="43.06582" lon="1.40587">
        <ele>333.99</ele>
        <time>2019-09-04T14:58:42Z</time>
      </trkpt>
      <trkpt lat="43.06584" lon="1.40561">
        <ele>335.23</ele>
        <time>2019-09-04T14:58:56Z</time>
      </trkpt>
      <trkpt lat="43.06586" lon="1.40547">
        <ele>336.86</ele>
        <time>2019-09-04T14:59:12Z</time>
      </trkpt>
      <trkpt lat="43.06589" lon="1.4053">
        <ele>338.71</ele>
        <time>2019-09-04T14:59:30Z</time>
      </trkpt>
      <trkpt lat="43.0659" lon="1.4051">
        <ele>339.01</ele>
        <time>2019-09-04T14:59:47Z</time>
      </trkpt>
      <trkpt lat="43.06589" lon="1.40506">
        <ele>339.01</ele>
        <time>2019-09-04T15:00:04Z</time>
      </trkpt>
      <trkpt lat="43.0659" lon="1.4049">
        <ele>338.44</ele>
        <time>2019-09-04T15:00:09Z</time>
      </trkpt>
      <trkpt lat="43.06591" lon="1.40488">
        <ele>338.33</ele>
        <time>2019-09-04T15:00:10Z</time>
      </trkpt>
      <trkpt lat="43.06592" lon="1.40474">
        <ele>337.28</ele>
        <time>2019-09-04T15:00:24Z</time>
      </trkpt>
      <trkpt lat="43.06592" lon="1.40473">
        <ele>337.25</ele>
        <time>2019-09-04T15:00:43Z</time>
      </trkpt>
      <trkpt lat="43.06592" lon="1.40471">
        <ele>337.24</ele>
        <time>2019-09-04T15:01:00Z</time>
      </trkpt>
      <trkpt lat="43.06592" lon="1.40467">
        <ele>337.26</ele>
        <time>2019-09-04T15:01:15Z</time>
      </trkpt>
      <trkpt lat="43.06592" lon="1.40465">
        <ele>337.32</ele>
        <time>2019-09-04T15:01:29Z</time>
      </trkpt>
      <trkpt lat="43.06592" lon="1.40463">
        <ele>337.35</ele>
        <time>2019-09-04T15:01:48Z</time>
      </trkpt>
      <trkpt lat="43.06592" lon="1.40438">
        <ele>335.85</ele>
        <time>2019-09-04T15:02:03Z</time>
      </trkpt>
      <trkpt lat="43.06592" lon="1.40413">
        <ele>334.79</ele>
        <time>2019-09-04T15:02:19Z</time>
      </trkpt>
      <trkpt lat="43.06595" lon="1.4038">
        <ele>333.57</ele>
        <time>2019-09-04T15:02:36Z</time>
      </trkpt>
      <trkpt lat="43.06599" lon="1.40345">
        <ele>331.94</ele>
        <time>2019-09-04T15:02:42Z</time>
      </trkpt>
      <trkpt lat="43.06603" lon="1.4032">
        <ele>330.03</ele>
        <time>2019-09-04T15:02:57Z</time>
      </trkpt>
      <trkpt lat="43.06605" lon="1.40312">
        <ele>330.35</ele>
        <time>2019-09-04T15:03:12Z</time>
      </trkpt>
      <trkpt lat="43.06606" lon="1.40311">
        <ele>330.39</ele>
        <time>2019-09-04T15:03:29Z</time>
      </trkpt>
      <trkpt lat="43.0662" lon="1.40296">
        <ele>328.97</ele>
        <time>2019-09-04T15:03:50Z</time>
      </trkpt>
      <trkpt lat="43.06641" lon="1.40284">
        <ele>327.98</ele>
        <time>2019-09-04T15:04:05Z</time>
      </trkpt>
      <trkpt lat="43.06656" lon="1.40272">
        <ele>328.62</ele>
        <time>2019-09-04T15:04:21Z</time>
      </trkpt>
      <trkpt lat="43.06672" lon="1.40254">
        <ele>328.69</ele>
        <time>2019-09-04T15:04:38Z</time>
      </trkpt>
      <trkpt lat="43.0668" lon="1.40231">
        <ele>328.91</ele>
        <time>2019-09-04T15:04:43Z</time>
      </trkpt>
      <trkpt lat="43.06671" lon="1.40205">
        <ele>329.86</ele>
        <time>2019-09-04T15:04:56Z</time>
      </trkpt>
      <trkpt lat="43.06671" lon="1.40183">
        <ele>330.95</ele>
        <time>2019-09-04T15:05:09Z</time>
      </trkpt>
      <trkpt lat="43.0668" lon="1.40163">
        <ele>331.8</ele>
        <time>2019-09-04T15:05:11Z</time>
      </trkpt>
      <trkpt lat="43.06692" lon="1.40142">
        <ele>332.32</ele>
        <time>2019-09-04T15:05:12Z</time>
      </trkpt>
      <trkpt lat="43.06696" lon="1.40133">
        <ele>332.62</ele>
        <time>2019-09-04T15:05:28Z</time>
      </trkpt>
      <trkpt lat="43.06705" lon="1.40117">
        <ele>334.2</ele>
        <time>2019-09-04T15:05:35Z</time>
      </trkpt>
      <trkpt lat="43.06715" lon="1.40102">
        <ele>334.1</ele>
        <time>2019-09-04T15:05:50Z</time>
      </trkpt>
      <trkpt lat="43.06729" lon="1.40077">
        <ele>333.6</ele>
        <time>2019-09-04T15:06:05Z</time>
      </trkpt>
      <trkpt lat="43.06718" lon="1.40041">
        <ele>332.94</ele>
        <time>2019-09-04T15:06:21Z</time>
      </trkpt>
      <trkpt lat="43.06714" lon="1.40016">
        <ele>332.48</ele>
        <time>2019-09-04T15:06:45Z</time>
      </trkpt>
      <trkpt lat="43.06712" lon="1.3999">
        <ele>332.03</ele>
        <time>2019-09-04T15:07:08Z</time>
      </trkpt>
      <trkpt lat="43.06716" lon="1.39964">
        <ele>332.74</ele>
        <time>2019-09-04T15:07:38Z</time>
      </trkpt>
      <trkpt lat="43.06716" lon="1.39953">
        <ele>333.07</ele>
        <time>2019-09-04T15:08:15Z</time>
      </trkpt>
      <trkpt lat="43.06714" lon="1.39929">
        <ele>332.83</ele>
        <time>2019-09-04T15:08:39Z</time>
      </trkpt>
      <trkpt lat="43.06716" lon="1.39907">
        <ele>331.82</ele>
        <time>2019-09-04T15:09:09Z</time>
      </trkpt>
      <trkpt lat="43.06717" lon="1.39904">
        <ele>331.83</ele>
        <time>2019-09-04T15:10:02Z</time>
      </trkpt>
      <trkpt lat="43.06718" lon="1.39902">
        <ele>331.84</ele>
        <time>2019-09-04T15:10:59Z</time>
      </trkpt>
      <trkpt lat="43.06731" lon="1.39881">
        <ele>332.28</ele>
        <time>2019-09-04T15:11:38Z</time>
      </trkpt>
      <trkpt lat="43.06736" lon="1.3987">
        <ele>332.61</ele>
        <time>2019-09-04T15:12:21Z</time>
      </trkpt>
      <trkpt lat="43.06747" lon="1.39852">
        <ele>333.02</ele>
        <time>2019-09-04T15:12:51Z</time>
      </trkpt>
      <trkpt lat="43.06753" lon="1.39824">
        <ele>332.74</ele>
        <time>2019-09-04T15:13:23Z</time>
      </trkpt>
      <trkpt lat="43.06758" lon="1.39798">
        <ele>331.4</ele>
        <time>2019-09-04T15:13:50Z</time>
      </trkpt>
      <trkpt lat="43.06757" lon="1.39794">
        <ele>330.95</ele>
        <time>2019-09-04T15:14:19Z</time>
      </trkpt>
      <trkpt lat="43.06756" lon="1.39791">
        <ele>330.96</ele>
        <time>2019-09-04T15:14:43Z</time>
      </trkpt>
      <trkpt lat="43.06756" lon="1.3979">
        <ele>330.95</ele>
        <time>2019-09-04T15:15:09Z</time>
      </trkpt>
      <trkpt lat="43.06757" lon="1.39791">
        <ele>330.95</ele>
        <time>2019-09-04T15:15:46Z</time>
      </trkpt>
      <trkpt lat="43.06757" lon="1.39791">
        <ele>330.95</ele>
        <time>2019-09-04T15:16:14Z</time>
      </trkpt>
      <trkpt lat="43.06757" lon="1.3979">
        <ele>330.95</ele>
        <time>2019-09-04T15:16:41Z</time>
      </trkpt>
      <trkpt lat="43.06758" lon="1.39792">
        <ele>330.95</ele>
        <time>2019-09-04T15:17:16Z</time>
      </trkpt>
      <trkpt lat="43.06756" lon="1.3979">
        <ele>330.95</ele>
        <time>2019-09-04T15:17:54Z</time>
      </trkpt>
      <trkpt lat="43.06756" lon="1.39792">
        <ele>330.95</ele>
        <time>2019-09-04T15:18:23Z</time>
      </trkpt>
      <trkpt lat="43.06756" lon="1.39792">
        <ele>330.95</ele>
        <time>2019-09-04T15:18:31Z</time>
      </trkpt>
      <trkpt lat="43.06755" lon="1.39792">
        <ele>330.95</ele>
        <time>2019-09-04T15:18:51Z</time>
      </trkpt>
      <trkpt lat="43.06755" lon="1.39791">
        <ele>330.95</ele>
        <time>2019-09-04T15:19:07Z</time>
      </trkpt>
      <trkpt lat="43.06755" lon="1.3979">
        <ele>330.95</ele>
        <time>2019-09-04T15:19:19Z</time>
      </trkpt>
      <trkpt lat="43.06756" lon="1.3979">
        <ele>330.95</ele>
        <time>2019-09-04T15:19:34Z</time>
      </trkpt>
      <trkpt lat="43.06755" lon="1.39791">
        <ele>330.95</ele>
        <time>2019-09-04T15:19:51Z</time>
      </trkpt>
      <trkpt lat="43.06756" lon="1.39791">
        <ele>330.95</ele>
        <time>2019-09-04T15:20:07Z</time>
      </trkpt>
      <trkpt lat="43.06754" lon="1.39793">
        <ele>330.95</ele>
        <time>2019-09-04T15:20:22Z</time>
      </trkpt>
      <trkpt lat="43.06752" lon="1.39791">
        <ele>330.95</ele>
        <time>2019-09-04T15:20:42Z</time>
      </trkpt>
      <trkpt lat="43.06754" lon="1.39791">
        <ele>330.95</ele>
        <time>2019-09-04T15:20:56Z</time>
      </trkpt>
      <trkpt lat="43.06755" lon="1.39791">
        <ele>330.95</ele>
        <time>2019-09-04T15:21:12Z</time>
      </trkpt>
      <trkpt lat="43.06755" lon="1.39789">
        <ele>330.95</ele>
        <time>2019-09-04T15:21:19Z</time>
      </trkpt>
      <trkpt lat="43.06761" lon="1.39779">
        <ele>330.98</ele>
        <time>2019-09-04T15:21:21Z</time>
      </trkpt>
      <trkpt lat="43.06768" lon="1.3977">
        <ele>330.58</ele>
        <time>2019-09-04T15:21:31Z</time>
      </trkpt>
      <trkpt lat="43.06784" lon="1.39742">
        <ele>330.29</ele>
        <time>2019-09-04T15:21:44Z</time>
      </trkpt>
      <trkpt lat="43.06797" lon="1.39725">
        <ele>329.92</ele>
        <time>2019-09-04T15:22:00Z</time>
      </trkpt>
      <trkpt lat="43.06807" lon="1.39709">
        <ele>329.28</ele>
        <time>2019-09-04T15:22:14Z</time>
      </trkpt>
      <trkpt lat="43.06818" lon="1.3969">
        <ele>328.65</ele>
        <time>2019-09-04T15:22:29Z</time>
      </trkpt>
      <trkpt lat="43.06832" lon="1.39659">
        <ele>328.94</ele>
        <time>2019-09-04T15:22:45Z</time>
      </trkpt>
      <trkpt lat="43.06842" lon="1.39635">
        <ele>328.95</ele>
        <time>2019-09-04T15:23:02Z</time>
      </trkpt>
      <trkpt lat="43.06853" lon="1.39613">
        <ele>329.44</ele>
        <time>2019-09-04T15:23:20Z</time>
      </trkpt>
      <trkpt lat="43.06872" lon="1.39594">
        <ele>329.33</ele>
        <time>2019-09-04T15:23:21Z</time>
      </trkpt>
      <trkpt lat="43.06884" lon="1.39571">
        <ele>328.32</ele>
        <time>2019-09-04T15:23:37Z</time>
      </trkpt>
      <trkpt lat="43.06886" lon="1.39547">
        <ele>328.62</ele>
        <time>2019-09-04T15:23:51Z</time>
      </trkpt>
      <trkpt lat="43.06892" lon="1.39539">
        <ele>329.24</ele>
        <time>2019-09-04T15:24:10Z</time>
      </trkpt>
      <trkpt lat="43.06895" lon="1.39537">
        <ele>329.31</ele>
        <time>2019-09-04T15:24:27Z</time>
      </trkpt>
      <trkpt lat="43.06905" lon="1.39534">
        <ele>329.62</ele>
        <time>2019-09-04T15:24:42Z</time>
      </trkpt>
      <trkpt lat="43.0692" lon="1.39532">
        <ele>329.8</ele>
        <time>2019-09-04T15:24:56Z</time>
      </trkpt>
      <trkpt lat="43.06934" lon="1.39511">
        <ele>330.7</ele>
        <time>2019-09-04T15:25:00Z</time>
      </trkpt>
      <trkpt lat="43.06936" lon="1.39487">
        <ele>331.09</ele>
        <time>2019-09-04T15:25:22Z</time>
      </trkpt>
      <trkpt lat="43.06937" lon="1.39462">
        <ele>331.5</ele>
        <time>2019-09-04T15:25:34Z</time>
      </trkpt>
      <trkpt lat="43.06943" lon="1.39439">
        <ele>331.82</ele>
        <time>2019-09-04T15:25:49Z</time>
      </trkpt>
      <trkpt lat="43.06948" lon="1.39411">
        <ele>331.95</ele>
        <time>2019-09-04T15:26:10Z</time>
      </trkpt>
      <trkpt lat="43.06952" lon="1.39397">
        <ele>331.87</ele>
        <time>2019-09-04T15:26:33Z</time>
      </trkpt>
      <trkpt lat="43.06952" lon="1.39395">
        <ele>331.82</ele>
        <time>2019-09-04T15:26:52Z</time>
      </trkpt>
      <trkpt lat="43.0696" lon="1.3937">
        <ele>331.14</ele>
        <time>2019-09-04T15:27:15Z</time>
      </trkpt>
      <trkpt lat="43.0697" lon="1.39351">
        <ele>330.66</ele>
        <time>2019-09-04T15:27:31Z</time>
      </trkpt>
      <trkpt lat="43.06989" lon="1.3934">
        <ele>330.42</ele>
        <time>2019-09-04T15:27:49Z</time>
      </trkpt>
      <trkpt lat="43.07004" lon="1.39348">
        <ele>330.39</ele>
        <time>2019-09-04T15:28:17Z</time>
      </trkpt>
      <trkpt lat="43.07028" lon="1.39349">
        <ele>330.57</ele>
        <time>2019-09-04T15:28:50Z</time>
      </trkpt>
      <trkpt lat="43.07044" lon="1.39325">
        <ele>330.83</ele>
        <time>2019-09-04T15:29:19Z</time>
      </trkpt>
      <trkpt lat="43.07046" lon="1.39317">
        <ele>330.87</ele>
        <time>2019-09-04T15:29:47Z</time>
      </trkpt>
      <trkpt lat="43.07038" lon="1.39281">
        <ele>329.63</ele>
        <time>2019-09-04T15:30:13Z</time>
      </trkpt>
      <trkpt lat="43.07034" lon="1.39279">
        <ele>329.14</ele>
        <time>2019-09-04T15:31:03Z</time>
      </trkpt>
      <trkpt lat="43.0702" lon="1.39278">
        <ele>325.93</ele>
        <time>2019-09-04T15:31:38Z</time>
      </trkpt>
      <trkpt lat="43.07021" lon="1.39284">
        <ele>325.1</ele>
        <time>2019-09-04T15:32:32Z</time>
      </trkpt>
      <trkpt lat="43.07019" lon="1.3927">
        <ele>325.04</ele>
        <time>2019-09-04T15:33:07Z</time>
      </trkpt>
      <trkpt lat="43.07018" lon="1.39262">
        <ele>323.72</ele>
        <time>2019-09-04T15:33:35Z</time>
      </trkpt>
      <trkpt lat="43.07018" lon="1.39261">
        <ele>322.15</ele>
        <time>2019-09-04T15:34:04Z</time>
      </trkpt>
      <trkpt lat="43.07017" lon="1.39261">
        <ele>323.28</ele>
        <time>2019-09-04T15:34:32Z</time>
      </trkpt>
      <trkpt lat="43.07016" lon="1.3926">
        <ele>324.96</ele>
        <time>2019-09-04T15:34:58Z</time>
      </trkpt>
      <trkpt lat="43.07017" lon="1.39267">
        <ele>322.8</ele>
        <time>2019-09-04T15:35:25Z</time>
      </trkpt>
      <trkpt lat="43.07018" lon="1.39266">
        <ele>322.82</ele>
        <time>2019-09-04T15:35:50Z</time>
      </trkpt>
      <trkpt lat="43.07018" lon="1.39263">
        <ele>322.67</ele>
        <time>2019-09-04T15:36:14Z</time>
      </trkpt>
      <trkpt lat="43.07015" lon="1.39261">
        <ele>322.55</ele>
        <time>2019-09-04T15:36:39Z</time>
      </trkpt>
      <trkpt lat="43.07015" lon="1.39265">
        <ele>322.88</ele>
        <time>2019-09-04T15:37:15Z</time>
      </trkpt>
      <trkpt lat="43.07016" lon="1.39264">
        <ele>322.88</ele>
        <time>2019-09-04T15:37:45Z</time>
      </trkpt>
      <trkpt lat="43.07019" lon="1.39263">
        <ele>322.88</ele>
        <time>2019-09-04T15:37:51Z</time>
      </trkpt>
      <trkpt lat="43.07019" lon="1.39266">
        <ele>322.88</ele>
        <time>2019-09-04T15:38:22Z</time>
      </trkpt>
      <trkpt lat="43.07019" lon="1.39263">
        <ele>322.88</ele>
        <time>2019-09-04T15:38:53Z</time>
      </trkpt>
      <trkpt lat="43.07018" lon="1.39268">
        <ele>322.88</ele>
        <time>2019-09-04T15:39:24Z</time>
      </trkpt>
      <trkpt lat="43.07014" lon="1.39269">
        <ele>322.88</ele>
        <time>2019-09-04T15:39:59Z</time>
      </trkpt>
      <trkpt lat="43.07015" lon="1.39269">
        <ele>322.88</ele>
        <time>2019-09-04T15:40:12Z</time>
      </trkpt>
      <trkpt lat="43.07016" lon="1.39265">
        <ele>322.88</ele>
        <time>2019-09-04T15:40:41Z</time>
      </trkpt>
      <trkpt lat="43.07019" lon="1.39268">
        <ele>322.88</ele>
        <time>2019-09-04T15:41:21Z</time>
      </trkpt>
      <trkpt lat="43.07013" lon="1.39266">
        <ele>322.88</ele>
        <time>2019-09-04T15:41:47Z</time>
      </trkpt>
      <trkpt lat="43.0701" lon="1.39262">
        <ele>322.88</ele>
        <time>2019-09-04T15:42:13Z</time>
      </trkpt>
      <trkpt lat="43.07012" lon="1.39261">
        <ele>322.88</ele>
        <time>2019-09-04T15:42:40Z</time>
      </trkpt>
      <trkpt lat="43.07016" lon="1.39264">
        <ele>322.88</ele>
        <time>2019-09-04T15:43:10Z</time>
      </trkpt>
      <trkpt lat="43.07016" lon="1.39263">
        <ele>322.88</ele>
        <time>2019-09-04T15:43:37Z</time>
      </trkpt>
      <trkpt lat="43.07018" lon="1.39263">
        <ele>322.88</ele>
        <time>2019-09-04T15:44:02Z</time>
      </trkpt>
      <trkpt lat="43.07021" lon="1.3926">
        <ele>322.88</ele>
        <time>2019-09-04T15:44:29Z</time>
      </trkpt>
      <trkpt lat="43.07018" lon="1.39261">
        <ele>322.88</ele>
        <time>2019-09-04T15:44:54Z</time>
      </trkpt>
      <trkpt lat="43.07015" lon="1.39264">
        <ele>322.88</ele>
        <time>2019-09-04T15:45:21Z</time>
      </trkpt>
      <trkpt lat="43.07017" lon="1.3927">
        <ele>322.88</ele>
        <time>2019-09-04T15:45:50Z</time>
      </trkpt>
      <trkpt lat="43.07019" lon="1.39272">
        <ele>322.88</ele>
        <time>2019-09-04T15:46:17Z</time>
      </trkpt>
      <trkpt lat="43.07021" lon="1.3927">
        <ele>322.88</ele>
        <time>2019-09-04T15:46:46Z</time>
      </trkpt>
      <trkpt lat="43.07019" lon="1.39272">
        <ele>322.88</ele>
        <time>2019-09-04T15:47:12Z</time>
      </trkpt>
      <trkpt lat="43.07018" lon="1.39265">
        <ele>322.88</ele>
        <time>2019-09-04T15:47:42Z</time>
      </trkpt>
      <trkpt lat="43.07018" lon="1.39269">
        <ele>322.88</ele>
        <time>2019-09-04T15:48:06Z</time>
      </trkpt>
      <trkpt lat="43.07022" lon="1.39266">
        <ele>322.88</ele>
        <time>2019-09-04T15:48:23Z</time>
      </trkpt>
      <trkpt lat="43.07024" lon="1.39265">
        <ele>322.88</ele>
        <time>2019-09-04T15:48:38Z</time>
      </trkpt>
      <trkpt lat="43.07025" lon="1.39257">
        <ele>322.88</ele>
        <time>2019-09-04T15:48:48Z</time>
      </trkpt>
      <trkpt lat="43.07021" lon="1.39258">
        <ele>322.88</ele>
        <time>2019-09-04T15:49:05Z</time>
      </trkpt>
      <trkpt lat="43.07019" lon="1.3926">
        <ele>322.88</ele>
        <time>2019-09-04T15:49:19Z</time>
      </trkpt>
      <trkpt lat="43.07017" lon="1.39261">
        <ele>322.88</ele>
        <time>2019-09-04T15:49:38Z</time>
      </trkpt>
      <trkpt lat="43.07016" lon="1.3926">
        <ele>322.88</ele>
        <time>2019-09-04T15:49:57Z</time>
      </trkpt>
      <trkpt lat="43.07018" lon="1.39262">
        <ele>322.88</ele>
        <time>2019-09-04T15:50:14Z</time>
      </trkpt>
      <trkpt lat="43.0702" lon="1.39264">
        <ele>322.88</ele>
        <time>2019-09-04T15:50:30Z</time>
      </trkpt>
      <trkpt lat="43.07019" lon="1.39264">
        <ele>322.88</ele>
        <time>2019-09-04T15:50:42Z</time>
      </trkpt>
      <trkpt lat="43.07021" lon="1.39265">
        <ele>322.88</ele>
        <time>2019-09-04T15:50:58Z</time>
      </trkpt>
      <trkpt lat="43.07023" lon="1.39268">
        <ele>322.88</ele>
        <time>2019-09-04T15:51:01Z</time>
      </trkpt>
      <trkpt lat="43.07023" lon="1.39279">
        <ele>322.88</ele>
        <time>2019-09-04T15:51:15Z</time>
      </trkpt>
      <trkpt lat="43.07032" lon="1.39285">
        <ele>322.88</ele>
        <time>2019-09-04T15:51:29Z</time>
      </trkpt>
      <trkpt lat="43.07043" lon="1.39287">
        <ele>322.88</ele>
        <time>2019-09-04T15:51:44Z</time>
      </trkpt>
      <trkpt lat="43.07057" lon="1.39282">
        <ele>326.03</ele>
        <time>2019-09-04T15:51:58Z</time>
      </trkpt>
      <trkpt lat="43.07073" lon="1.39272">
        <ele>325.9</ele>
        <time>2019-09-04T15:52:20Z</time>
      </trkpt>
      <trkpt lat="43.07086" lon="1.39263">
        <ele>325.71</ele>
        <time>2019-09-04T15:52:35Z</time>
      </trkpt>
      <trkpt lat="43.07102" lon="1.3925">
        <ele>324.6</ele>
        <time>2019-09-04T15:52:52Z</time>
      </trkpt>
      <trkpt lat="43.07119" lon="1.39228">
        <ele>324.17</ele>
        <time>2019-09-04T15:53:13Z</time>
      </trkpt>
      <trkpt lat="43.07137" lon="1.39208">
        <ele>322.12</ele>
        <time>2019-09-04T15:53:34Z</time>
      </trkpt>
      <trkpt lat="43.07158" lon="1.39201">
        <ele>319.58</ele>
        <time>2019-09-04T15:53:54Z</time>
      </trkpt>
      <trkpt lat="43.07175" lon="1.39201">
        <ele>318.42</ele>
        <time>2019-09-04T15:54:10Z</time>
      </trkpt>
      <trkpt lat="43.07191" lon="1.39184">
        <ele>317.52</ele>
        <time>2019-09-04T15:54:25Z</time>
      </trkpt>
      <trkpt lat="43.07194" lon="1.3918">
        <ele>317.43</ele>
        <time>2019-09-04T15:54:27Z</time>
      </trkpt>
      <trkpt lat="43.0721" lon="1.39163">
        <ele>316.06</ele>
        <time>2019-09-04T15:54:31Z</time>
      </trkpt>
      <trkpt lat="43.07225" lon="1.39151">
        <ele>315.2</ele>
        <time>2019-09-04T15:54:46Z</time>
      </trkpt>
      <trkpt lat="43.07239" lon="1.39139">
        <ele>314.39</ele>
        <time>2019-09-04T15:54:47Z</time>
      </trkpt>
      <trkpt lat="43.07256" lon="1.39126">
        <ele>313.68</ele>
        <time>2019-09-04T15:54:59Z</time>
      </trkpt>
      <trkpt lat="43.07283" lon="1.39108">
        <ele>311.14</ele>
        <time>2019-09-04T15:55:08Z</time>
      </trkpt>
      <trkpt lat="43.07301" lon="1.39098">
        <ele>309.9</ele>
        <time>2019-09-04T15:55:25Z</time>
      </trkpt>
      <trkpt lat="43.07323" lon="1.39096">
        <ele>308.95</ele>
        <time>2019-09-04T15:55:37Z</time>
      </trkpt>
      <trkpt lat="43.07351" lon="1.39106">
        <ele>307.91</ele>
        <time>2019-09-04T15:55:47Z</time>
      </trkpt>
      <trkpt lat="43.07379" lon="1.39114">
        <ele>309.1</ele>
        <time>2019-09-04T15:55:48Z</time>
      </trkpt>
      <trkpt lat="43.07403" lon="1.39116">
        <ele>310.21</ele>
        <time>2019-09-04T15:55:54Z</time>
      </trkpt>
      <trkpt lat="43.07425" lon="1.39112">
        <ele>309.33</ele>
        <time>2019-09-04T15:56:03Z</time>
      </trkpt>
      <trkpt lat="43.07444" lon="1.39108">
        <ele>308.13</ele>
        <time>2019-09-04T15:56:17Z</time>
      </trkpt>
      <trkpt lat="43.07447" lon="1.39107">
        <ele>307.93</ele>
        <time>2019-09-04T15:56:30Z</time>
      </trkpt>
      <trkpt lat="43.07452" lon="1.39107">
        <ele>307.34</ele>
        <time>2019-09-04T15:56:35Z</time>
      </trkpt>
      <trkpt lat="43.0747" lon="1.39111">
        <ele>305.91</ele>
        <time>2019-09-04T15:56:46Z</time>
      </trkpt>
      <trkpt lat="43.07472" lon="1.39112">
        <ele>305.86</ele>
        <time>2019-09-04T15:56:51Z</time>
      </trkpt>
      <trkpt lat="43.07487" lon="1.39112">
        <ele>305.28</ele>
        <time>2019-09-04T15:57:07Z</time>
      </trkpt>
      <trkpt lat="43.07498" lon="1.39113">
        <ele>304.78</ele>
        <time>2019-09-04T15:57:11Z</time>
      </trkpt>
      <trkpt lat="43.0752" lon="1.39122">
        <ele>302.24</ele>
        <time>2019-09-04T15:57:13Z</time>
      </trkpt>
      <trkpt lat="43.07533" lon="1.39129">
        <ele>300.84</ele>
        <time>2019-09-04T15:57:14Z</time>
      </trkpt>
      <trkpt lat="43.07546" lon="1.39133">
        <ele>299.83</ele>
        <time>2019-09-04T15:57:30Z</time>
      </trkpt>
      <trkpt lat="43.07548" lon="1.39134">
        <ele>299.75</ele>
        <time>2019-09-04T15:57:44Z</time>
      </trkpt>
      <trkpt lat="43.07556" lon="1.39137">
        <ele>298.9</ele>
        <time>2019-09-04T15:58:02Z</time>
      </trkpt>
      <trkpt lat="43.07569" lon="1.39145">
        <ele>297.94</ele>
        <time>2019-09-04T15:58:21Z</time>
      </trkpt>
      <trkpt lat="43.07584" lon="1.39162">
        <ele>295.68</ele>
        <time>2019-09-04T15:58:31Z</time>
      </trkpt>
      <trkpt lat="43.07598" lon="1.39168">
        <ele>294.07</ele>
        <time>2019-09-04T15:58:43Z</time>
      </trkpt>
      <trkpt lat="43.07608" lon="1.39165">
        <ele>293.6</ele>
        <time>2019-09-04T15:58:58Z</time>
      </trkpt>
      <trkpt lat="43.07622" lon="1.39152">
        <ele>292.93</ele>
        <time>2019-09-04T15:59:10Z</time>
      </trkpt>
      <trkpt lat="43.07626" lon="1.39148">
        <ele>292.8</ele>
        <time>2019-09-04T15:59:11Z</time>
      </trkpt>
      <trkpt lat="43.0764" lon="1.39127">
        <ele>292.21</ele>
        <time>2019-09-04T15:59:12Z</time>
      </trkpt>
      <trkpt lat="43.07643" lon="1.39123">
        <ele>291.7</ele>
        <time>2019-09-04T15:59:28Z</time>
      </trkpt>
      <trkpt lat="43.07645" lon="1.39119">
        <ele>291.94</ele>
        <time>2019-09-04T15:59:31Z</time>
      </trkpt>
      <trkpt lat="43.07645" lon="1.39117">
        <ele>292.14</ele>
        <time>2019-09-04T15:59:40Z</time>
      </trkpt>
      <trkpt lat="43.07645" lon="1.39084">
        <ele>291.68</ele>
        <time>2019-09-04T15:59:41Z</time>
      </trkpt>
      <trkpt lat="43.07636" lon="1.39062">
        <ele>291.5</ele>
        <time>2019-09-04T15:59:47Z</time>
      </trkpt>
      <trkpt lat="43.07628" lon="1.39034">
        <ele>290.9</ele>
        <time>2019-09-04T16:00:03Z</time>
      </trkpt>
      <trkpt lat="43.07623" lon="1.38995">
        <ele>290.3</ele>
        <time>2019-09-04T16:00:19Z</time>
      </trkpt>
      <trkpt lat="43.07621" lon="1.38977">
        <ele>290.23</ele>
        <time>2019-09-04T16:00:35Z</time>
      </trkpt>
      <trkpt lat="43.07613" lon="1.38962">
        <ele>290.39</ele>
        <time>2019-09-04T16:00:51Z</time>
      </trkpt>
      <trkpt lat="43.07598" lon="1.38945">
        <ele>290.67</ele>
        <time>2019-09-04T16:01:08Z</time>
      </trkpt>
      <trkpt lat="43.07593" lon="1.38926">
        <ele>290.65</ele>
        <time>2019-09-04T16:01:24Z</time>
      </trkpt>
      <trkpt lat="43.07594" lon="1.38924">
        <ele>290.63</ele>
        <time>2019-09-04T16:01:47Z</time>
      </trkpt>
      <trkpt lat="43.07594" lon="1.38922">
        <ele>290.6</ele>
        <time>2019-09-04T16:02:07Z</time>
      </trkpt>
      <trkpt lat="43.07602" lon="1.38896">
        <ele>290.55</ele>
        <time>2019-09-04T16:02:30Z</time>
      </trkpt>
      <trkpt lat="43.07604" lon="1.38891">
        <ele>290.16</ele>
        <time>2019-09-04T16:02:52Z</time>
      </trkpt>
      <trkpt lat="43.07607" lon="1.38873">
        <ele>289.86</ele>
        <time>2019-09-04T16:03:00Z</time>
      </trkpt>
      <trkpt lat="43.07608" lon="1.38871">
        <ele>289.84</ele>
        <time>2019-09-04T16:03:17Z</time>
      </trkpt>
      <trkpt lat="43.07608" lon="1.38861">
        <ele>289.72</ele>
        <time>2019-09-04T16:03:32Z</time>
      </trkpt>
      <trkpt lat="43.07611" lon="1.38834">
        <ele>289.41</ele>
        <time>2019-09-04T16:03:40Z</time>
      </trkpt>
      <trkpt lat="43.07615" lon="1.38805">
        <ele>289.56</ele>
        <time>2019-09-04T16:03:42Z</time>
      </trkpt>
      <trkpt lat="43.07624" lon="1.38777">
        <ele>289.28</ele>
        <time>2019-09-04T16:03:57Z</time>
      </trkpt>
      <trkpt lat="43.07633" lon="1.38749">
        <ele>289.06</ele>
        <time>2019-09-04T16:04:02Z</time>
      </trkpt>
      <trkpt lat="43.07639" lon="1.38723">
        <ele>288.73</ele>
        <time>2019-09-04T16:04:06Z</time>
      </trkpt>
      <trkpt lat="43.07647" lon="1.38698">
        <ele>288.53</ele>
        <time>2019-09-04T16:04:07Z</time>
      </trkpt>
      <trkpt lat="43.07658" lon="1.38661">
        <ele>288.1</ele>
        <time>2019-09-04T16:04:22Z</time>
      </trkpt>
      <trkpt lat="43.07668" lon="1.38629">
        <ele>288.04</ele>
        <time>2019-09-04T16:04:37Z</time>
      </trkpt>
      <trkpt lat="43.07681" lon="1.38591">
        <ele>287.79</ele>
        <time>2019-09-04T16:04:48Z</time>
      </trkpt>
      <trkpt lat="43.07698" lon="1.38556">
        <ele>287.37</ele>
        <time>2019-09-04T16:04:56Z</time>
      </trkpt>
      <trkpt lat="43.07706" lon="1.38549">
        <ele>287.19</ele>
        <time>2019-09-04T16:04:57Z</time>
      </trkpt>
      <trkpt lat="43.07722" lon="1.3853">
        <ele>286.9</ele>
        <time>2019-09-04T16:04:58Z</time>
      </trkpt>
      <trkpt lat="43.07736" lon="1.38516">
        <ele>286.64</ele>
        <time>2019-09-04T16:05:13Z</time>
      </trkpt>
      <trkpt lat="43.07743" lon="1.38506">
        <ele>286.49</ele>
        <time>2019-09-04T16:05:23Z</time>
      </trkpt>
      <trkpt lat="43.07745" lon="1.38503">
        <ele>286.49</ele>
        <time>2019-09-04T16:05:39Z</time>
      </trkpt>
      <trkpt lat="43.07758" lon="1.38482">
        <ele>286.88</ele>
        <time>2019-09-04T16:05:40Z</time>
      </trkpt>
      <trkpt lat="43.07761" lon="1.38474">
        <ele>286.57</ele>
        <time>2019-09-04T16:05:41Z</time>
      </trkpt>
      <trkpt lat="43.07764" lon="1.38467">
        <ele>286.43</ele>
        <time>2019-09-04T16:05:42Z</time>
      </trkpt>
      <trkpt lat="43.07765" lon="1.38465">
        <ele>286.42</ele>
        <time>2019-09-04T16:05:43Z</time>
      </trkpt>
      <trkpt lat="43.07779" lon="1.38447">
        <ele>286.03</ele>
        <time>2019-09-04T16:06:01Z</time>
      </trkpt>
      <trkpt lat="43.0779" lon="1.38423">
        <ele>285.43</ele>
        <time>2019-09-04T16:06:17Z</time>
      </trkpt>
      <trkpt lat="43.07796" lon="1.38404">
        <ele>285.13</ele>
        <time>2019-09-04T16:06:24Z</time>
      </trkpt>
      <trkpt lat="43.07796" lon="1.38389">
        <ele>285.12</ele>
        <time>2019-09-04T16:06:25Z</time>
      </trkpt>
      <trkpt lat="43.07795" lon="1.38387">
        <ele>285.15</ele>
        <time>2019-09-04T16:06:44Z</time>
      </trkpt>
      <trkpt lat="43.07795" lon="1.38385">
        <ele>285.18</ele>
        <time>2019-09-04T16:07:05Z</time>
      </trkpt>
      <trkpt lat="43.07786" lon="1.38362">
        <ele>285.08</ele>
        <time>2019-09-04T16:07:27Z</time>
      </trkpt>
      <trkpt lat="43.07781" lon="1.38356">
        <ele>285.31</ele>
        <time>2019-09-04T16:07:52Z</time>
      </trkpt>
      <trkpt lat="43.07767" lon="1.38338">
        <ele>285.95</ele>
        <time>2019-09-04T16:08:11Z</time>
      </trkpt>
      <trkpt lat="43.07766" lon="1.38336">
        <ele>285.97</ele>
        <time>2019-09-04T16:08:32Z</time>
      </trkpt>
      <trkpt lat="43.07765" lon="1.38335">
        <ele>285.99</ele>
        <time>2019-09-04T16:08:36Z</time>
      </trkpt>
      <trkpt lat="43.07764" lon="1.38333">
        <ele>286.01</ele>
        <time>2019-09-04T16:08:39Z</time>
      </trkpt>
      <trkpt lat="43.07764" lon="1.38331">
        <ele>286.03</ele>
        <time>2019-09-04T16:08:52Z</time>
      </trkpt>
      <trkpt lat="43.07761" lon="1.38301">
        <ele>286.04</ele>
        <time>2019-09-04T16:09:08Z</time>
      </trkpt>
      <trkpt lat="43.07763" lon="1.38273">
        <ele>286.03</ele>
        <time>2019-09-04T16:09:13Z</time>
      </trkpt>
      <trkpt lat="43.07764" lon="1.38261">
        <ele>285</ele>
        <time>2019-09-04T16:09:31Z</time>
      </trkpt>
      <trkpt lat="43.07765" lon="1.38259">
        <ele>285.19</ele>
        <time>2019-09-04T16:09:50Z</time>
      </trkpt>
      <trkpt lat="43.07767" lon="1.38221">
        <ele>285.53</ele>
        <time>2019-09-04T16:10:06Z</time>
      </trkpt>
      <trkpt lat="43.07765" lon="1.38185">
        <ele>285.24</ele>
        <time>2019-09-04T16:10:20Z</time>
      </trkpt>
      <trkpt lat="43.07756" lon="1.38151">
        <ele>284.81</ele>
        <time>2019-09-04T16:10:21Z</time>
      </trkpt>
      <trkpt lat="43.07756" lon="1.38108">
        <ele>284.02</ele>
        <time>2019-09-04T16:10:23Z</time>
      </trkpt>
      <trkpt lat="43.07759" lon="1.38072">
        <ele>283.01</ele>
        <time>2019-09-04T16:10:27Z</time>
      </trkpt>
      <trkpt lat="43.07747" lon="1.38039">
        <ele>281.52</ele>
        <time>2019-09-04T16:10:28Z</time>
      </trkpt>
      <trkpt lat="43.07744" lon="1.38033">
        <ele>283.1</ele>
        <time>2019-09-04T16:10:33Z</time>
      </trkpt>
      <trkpt lat="43.07742" lon="1.38029">
        <ele>283.14</ele>
        <time>2019-09-04T16:10:46Z</time>
      </trkpt>
      <trkpt lat="43.07732" lon="1.3801">
        <ele>282.16</ele>
        <time>2019-09-04T16:11:02Z</time>
      </trkpt>
      <trkpt lat="43.07727" lon="1.37979">
        <ele>282.35</ele>
        <time>2019-09-04T16:11:19Z</time>
      </trkpt>
      <trkpt lat="43.0773" lon="1.37971">
        <ele>282.4</ele>
        <time>2019-09-04T16:11:34Z</time>
      </trkpt>
      <trkpt lat="43.07744" lon="1.37943">
        <ele>282.85</ele>
        <time>2019-09-04T16:11:45Z</time>
      </trkpt>
      <trkpt lat="43.07766" lon="1.37923">
        <ele>283.47</ele>
        <time>2019-09-04T16:11:46Z</time>
      </trkpt>
      <trkpt lat="43.07781" lon="1.37909">
        <ele>283.82</ele>
        <time>2019-09-04T16:12:02Z</time>
      </trkpt>
      <trkpt lat="43.0779" lon="1.3789">
        <ele>284.41</ele>
        <time>2019-09-04T16:12:18Z</time>
      </trkpt>
      <trkpt lat="43.07791" lon="1.37888">
        <ele>284.41</ele>
        <time>2019-09-04T16:12:38Z</time>
      </trkpt>
      <trkpt lat="43.07791" lon="1.37884">
        <ele>284.27</ele>
        <time>2019-09-04T16:12:48Z</time>
      </trkpt>
      <trkpt lat="43.07792" lon="1.37878">
        <ele>284.13</ele>
        <time>2019-09-04T16:12:49Z</time>
      </trkpt>
      <trkpt lat="43.07792" lon="1.37876">
        <ele>284.15</ele>
        <time>2019-09-04T16:12:50Z</time>
      </trkpt>
      <trkpt lat="43.07793" lon="1.37868">
        <ele>284.18</ele>
        <time>2019-09-04T16:12:56Z</time>
      </trkpt>
      <trkpt lat="43.07792" lon="1.37846">
        <ele>283.71</ele>
        <time>2019-09-04T16:13:05Z</time>
      </trkpt>
      <trkpt lat="43.07791" lon="1.37818">
        <ele>283.75</ele>
        <time>2019-09-04T16:13:22Z</time>
      </trkpt>
      <trkpt lat="43.0779" lon="1.37788">
        <ele>284.34</ele>
        <time>2019-09-04T16:13:27Z</time>
      </trkpt>
      <trkpt lat="43.07788" lon="1.37759">
        <ele>283.99</ele>
        <time>2019-09-04T16:13:30Z</time>
      </trkpt>
      <trkpt lat="43.07795" lon="1.37742">
        <ele>283.89</ele>
        <time>2019-09-04T16:13:37Z</time>
      </trkpt>
      <trkpt lat="43.07796" lon="1.37741">
        <ele>283.87</ele>
        <time>2019-09-04T16:13:40Z</time>
      </trkpt>
      <trkpt lat="43.07816" lon="1.37744">
        <ele>283.97</ele>
        <time>2019-09-04T16:13:56Z</time>
      </trkpt>
      <trkpt lat="43.07832" lon="1.37755">
        <ele>284.55</ele>
        <time>2019-09-04T16:14:13Z</time>
      </trkpt>
      <trkpt lat="43.07854" lon="1.37766">
        <ele>283.88</ele>
        <time>2019-09-04T16:14:30Z</time>
      </trkpt>
      <trkpt lat="43.0785" lon="1.37755">
        <ele>282.57</ele>
        <time>2019-09-04T16:14:37Z</time>
      </trkpt>
      <trkpt lat="43.0785" lon="1.37753">
        <ele>282.29</ele>
        <time>2019-09-04T16:14:38Z</time>
      </trkpt>
      <trkpt lat="43.07851" lon="1.37752">
        <ele>282</ele>
        <time>2019-09-04T16:14:53Z</time>
      </trkpt>
      <trkpt lat="43.07851" lon="1.37744">
        <ele>280.47</ele>
        <time>2019-09-04T16:15:10Z</time>
      </trkpt>
      <trkpt lat="43.07849" lon="1.37729">
        <ele>279.94</ele>
        <time>2019-09-04T16:15:17Z</time>
      </trkpt>
      <trkpt lat="43.0785" lon="1.37701">
        <ele>279.39</ele>
        <time>2019-09-04T16:15:18Z</time>
      </trkpt>
      <trkpt lat="43.07852" lon="1.37691">
        <ele>279.33</ele>
        <time>2019-09-04T16:15:21Z</time>
      </trkpt>
      <trkpt lat="43.07853" lon="1.37683">
        <ele>279.31</ele>
        <time>2019-09-04T16:15:22Z</time>
      </trkpt>
      <trkpt lat="43.07855" lon="1.37671">
        <ele>279.25</ele>
        <time>2019-09-04T16:15:24Z</time>
      </trkpt>
      <trkpt lat="43.07856" lon="1.37664">
        <ele>279.25</ele>
        <time>2019-09-04T16:15:32Z</time>
      </trkpt>
      <trkpt lat="43.07861" lon="1.37639">
        <ele>279.47</ele>
        <time>2019-09-04T16:15:33Z</time>
      </trkpt>
      <trkpt lat="43.07868" lon="1.37612">
        <ele>279.88</ele>
        <time>2019-09-04T16:15:52Z</time>
      </trkpt>
      <trkpt lat="43.07873" lon="1.37581">
        <ele>280.06</ele>
        <time>2019-09-04T16:16:00Z</time>
      </trkpt>
      <trkpt lat="43.07874" lon="1.37568">
        <ele>280.19</ele>
        <time>2019-09-04T16:16:14Z</time>
      </trkpt>
      <trkpt lat="43.07874" lon="1.37566">
        <ele>280.19</ele>
        <time>2019-09-04T16:16:33Z</time>
      </trkpt>
      <trkpt lat="43.07876" lon="1.37542">
        <ele>279.92</ele>
        <time>2019-09-04T16:16:49Z</time>
      </trkpt>
      <trkpt lat="43.07879" lon="1.37516">
        <ele>279.75</ele>
        <time>2019-09-04T16:17:07Z</time>
      </trkpt>
      <trkpt lat="43.07881" lon="1.37509">
        <ele>273.19</ele>
        <time>2019-09-04T16:17:19Z</time>
      </trkpt>
      <trkpt lat="43.07881" lon="1.37507">
        <ele>276.89</ele>
        <time>2019-09-04T16:17:40Z</time>
      </trkpt>
      <trkpt lat="43.07882" lon="1.37502">
        <ele>280.21</ele>
        <time>2019-09-04T16:18:04Z</time>
      </trkpt>
      <trkpt lat="43.07882" lon="1.375">
        <ele>280.45</ele>
        <time>2019-09-04T16:18:27Z</time>
      </trkpt>
      <trkpt lat="43.07882" lon="1.37496">
        <ele>280.63</ele>
        <time>2019-09-04T16:18:53Z</time>
      </trkpt>
      <trkpt lat="43.07882" lon="1.37479">
        <ele>280.06</ele>
        <time>2019-09-04T16:19:10Z</time>
      </trkpt>
      <trkpt lat="43.07882" lon="1.37476">
        <ele>279.96</ele>
        <time>2019-09-04T16:19:30Z</time>
      </trkpt>
      <trkpt lat="43.07879" lon="1.3744">
        <ele>279.01</ele>
        <time>2019-09-04T16:19:42Z</time>
      </trkpt>
      <trkpt lat="43.07877" lon="1.37424">
        <ele>278.63</ele>
        <time>2019-09-04T16:19:44Z</time>
      </trkpt>
      <trkpt lat="43.07877" lon="1.37401">
        <ele>279.27</ele>
        <time>2019-09-04T16:19:45Z</time>
      </trkpt>
      <trkpt lat="43.07874" lon="1.37368">
        <ele>278.63</ele>
        <time>2019-09-04T16:19:46Z</time>
      </trkpt>
      <trkpt lat="43.0787" lon="1.3734">
        <ele>278.38</ele>
        <time>2019-09-04T16:19:47Z</time>
      </trkpt>
      <trkpt lat="43.07867" lon="1.37311">
        <ele>278.45</ele>
        <time>2019-09-04T16:19:48Z</time>
      </trkpt>
      <trkpt lat="43.07865" lon="1.37287">
        <ele>278.57</ele>
        <time>2019-09-04T16:20:05Z</time>
      </trkpt>
      <trkpt lat="43.07863" lon="1.37249">
        <ele>278.74</ele>
        <time>2019-09-04T16:20:23Z</time>
      </trkpt>
      <trkpt lat="43.07859" lon="1.37209">
        <ele>278.35</ele>
        <time>2019-09-04T16:20:42Z</time>
      </trkpt>
      <trkpt lat="43.07858" lon="1.37171">
        <ele>278.02</ele>
        <time>2019-09-04T16:21:02Z</time>
      </trkpt>
      <trkpt lat="43.07859" lon="1.37127">
        <ele>278.63</ele>
        <time>2019-09-04T16:21:23Z</time>
      </trkpt>
      <trkpt lat="43.07861" lon="1.371">
        <ele>279.09</ele>
        <time>2019-09-04T16:21:43Z</time>
      </trkpt>
      <trkpt lat="43.07862" lon="1.37065">
        <ele>279.18</ele>
        <time>2019-09-04T16:22:03Z</time>
      </trkpt>
      <trkpt lat="43.07863" lon="1.37047">
        <ele>279.23</ele>
        <time>2019-09-04T16:22:30Z</time>
      </trkpt>
      <trkpt lat="43.07863" lon="1.37043">
        <ele>279.26</ele>
        <time>2019-09-04T16:22:48Z</time>
      </trkpt>
      <trkpt lat="43.07864" lon="1.37041">
        <ele>279.25</ele>
        <time>2019-09-04T16:23:07Z</time>
      </trkpt>
      <trkpt lat="43.07864" lon="1.37039">
        <ele>279.2</ele>
        <time>2019-09-04T16:23:24Z</time>
      </trkpt>
      <trkpt lat="43.07864" lon="1.37037">
        <ele>279.09</ele>
        <time>2019-09-04T16:23:44Z</time>
      </trkpt>
      <trkpt lat="43.07864" lon="1.37035">
        <ele>279</ele>
        <time>2019-09-04T16:24:03Z</time>
      </trkpt>
      <trkpt lat="43.07864" lon="1.37003">
        <ele>279.06</ele>
        <time>2019-09-04T16:24:22Z</time>
      </trkpt>
      <trkpt lat="43.07865" lon="1.36974">
        <ele>278.46</ele>
        <time>2019-09-04T16:24:40Z</time>
      </trkpt>
      <trkpt lat="43.07865" lon="1.36937">
        <ele>279.17</ele>
        <time>2019-09-04T16:24:53Z</time>
      </trkpt>
      <trkpt lat="43.07863" lon="1.36907">
        <ele>280.25</ele>
        <time>2019-09-04T16:25:10Z</time>
      </trkpt>
      <trkpt lat="43.0787" lon="1.36875">
        <ele>280.45</ele>
        <time>2019-09-04T16:25:28Z</time>
      </trkpt>
      <trkpt lat="43.0788" lon="1.36842">
        <ele>280.86</ele>
        <time>2019-09-04T16:25:43Z</time>
      </trkpt>
      <trkpt lat="43.07889" lon="1.36809">
        <ele>280.62</ele>
        <time>2019-09-04T16:26:00Z</time>
      </trkpt>
      <trkpt lat="43.07902" lon="1.36763">
        <ele>280.66</ele>
        <time>2019-09-04T16:26:18Z</time>
      </trkpt>
      <trkpt lat="43.07911" lon="1.36737">
        <ele>280.87</ele>
        <time>2019-09-04T16:26:35Z</time>
      </trkpt>
      <trkpt lat="43.07927" lon="1.36718">
        <ele>280.66</ele>
        <time>2019-09-04T16:26:40Z</time>
      </trkpt>
      <trkpt lat="43.07946" lon="1.36704">
        <ele>280.75</ele>
        <time>2019-09-04T16:26:59Z</time>
      </trkpt>
      <trkpt lat="43.07963" lon="1.36675">
        <ele>280.76</ele>
        <time>2019-09-04T16:27:17Z</time>
      </trkpt>
      <trkpt lat="43.07981" lon="1.36654">
        <ele>280.71</ele>
        <time>2019-09-04T16:27:36Z</time>
      </trkpt>
      <trkpt lat="43.08004" lon="1.36646">
        <ele>280.33</ele>
        <time>2019-09-04T16:27:54Z</time>
      </trkpt>
      <trkpt lat="43.08029" lon="1.36644">
        <ele>280.71</ele>
        <time>2019-09-04T16:28:09Z</time>
      </trkpt>
      <trkpt lat="43.08039" lon="1.36636">
        <ele>281.88</ele>
        <time>2019-09-04T16:28:29Z</time>
      </trkpt>
      <trkpt lat="43.08049" lon="1.36619">
        <ele>282.47</ele>
        <time>2019-09-04T16:28:49Z</time>
      </trkpt>
      <trkpt lat="43.08062" lon="1.36608">
        <ele>280.24</ele>
        <time>2019-09-04T16:29:06Z</time>
      </trkpt>
      <trkpt lat="43.08078" lon="1.36591">
        <ele>280.41</ele>
        <time>2019-09-04T16:29:23Z</time>
      </trkpt>
      <trkpt lat="43.08094" lon="1.36575">
        <ele>280.73</ele>
        <time>2019-09-04T16:29:38Z</time>
      </trkpt>
      <trkpt lat="43.08114" lon="1.3656">
        <ele>280.76</ele>
        <time>2019-09-04T16:29:55Z</time>
      </trkpt>
      <trkpt lat="43.08133" lon="1.3655">
        <ele>279.79</ele>
        <time>2019-09-04T16:30:14Z</time>
      </trkpt>
      <trkpt lat="43.08138" lon="1.36548">
        <ele>279.62</ele>
        <time>2019-09-04T16:30:32Z</time>
      </trkpt>
      <trkpt lat="43.0816" lon="1.36542">
        <ele>280.16</ele>
        <time>2019-09-04T16:30:45Z</time>
      </trkpt>
      <trkpt lat="43.08178" lon="1.36533">
        <ele>278.66</ele>
        <time>2019-09-04T16:30:46Z</time>
      </trkpt>
      <trkpt lat="43.08195" lon="1.36513">
        <ele>278.94</ele>
        <time>2019-09-04T16:30:47Z</time>
      </trkpt>
      <trkpt lat="43.08212" lon="1.36494">
        <ele>279.02</ele>
        <time>2019-09-04T16:30:48Z</time>
      </trkpt>
      <trkpt lat="43.08228" lon="1.36476">
        <ele>278.76</ele>
        <time>2019-09-04T16:30:49Z</time>
      </trkpt>
      <trkpt lat="43.08245" lon="1.36461">
        <ele>277.75</ele>
        <time>2019-09-04T16:30:50Z</time>
      </trkpt>
      <trkpt lat="43.08266" lon="1.36438">
        <ele>277.69</ele>
        <time>2019-09-04T16:30:51Z</time>
      </trkpt>
      <trkpt lat="43.0828" lon="1.36416">
        <ele>277.78</ele>
        <time>2019-09-04T16:30:52Z</time>
      </trkpt>
      <trkpt lat="43.08294" lon="1.36396">
        <ele>277.28</ele>
        <time>2019-09-04T16:31:05Z</time>
      </trkpt>
      <trkpt lat="43.08309" lon="1.36378">
        <ele>277.73</ele>
        <time>2019-09-04T16:31:24Z</time>
      </trkpt>
      <trkpt lat="43.08323" lon="1.36359">
        <ele>278.25</ele>
        <time>2019-09-04T16:31:38Z</time>
      </trkpt>
      <trkpt lat="43.08326" lon="1.36321">
        <ele>278.28</ele>
        <time>2019-09-04T16:31:49Z</time>
      </trkpt>
      <trkpt lat="43.08329" lon="1.36292">
        <ele>278.23</ele>
        <time>2019-09-04T16:32:05Z</time>
      </trkpt>
      <trkpt lat="43.08331" lon="1.3627">
        <ele>278.04</ele>
        <time>2019-09-04T16:32:19Z</time>
      </trkpt>
      <trkpt lat="43.08332" lon="1.36268">
        <ele>278.01</ele>
        <time>2019-09-04T16:32:36Z</time>
      </trkpt>
      <trkpt lat="43.08332" lon="1.36266">
        <ele>277.98</ele>
        <time>2019-09-04T16:32:57Z</time>
      </trkpt>
      <trkpt lat="43.08332" lon="1.36263">
        <ele>277.97</ele>
        <time>2019-09-04T16:33:05Z</time>
      </trkpt>
      <trkpt lat="43.08332" lon="1.36261">
        <ele>277.92</ele>
        <time>2019-09-04T16:33:09Z</time>
      </trkpt>
      <trkpt lat="43.08332" lon="1.36259">
        <ele>277.81</ele>
        <time>2019-09-04T16:33:30Z</time>
      </trkpt>
      <trkpt lat="43.08332" lon="1.36257">
        <ele>277.71</ele>
        <time>2019-09-04T16:33:48Z</time>
      </trkpt>
      <trkpt lat="43.08332" lon="1.36255">
        <ele>277.66</ele>
        <time>2019-09-04T16:33:52Z</time>
      </trkpt>
      <trkpt lat="43.08335" lon="1.36237">
        <ele>278.22</ele>
        <time>2019-09-04T16:34:10Z</time>
      </trkpt>
      <trkpt lat="43.08338" lon="1.36202">
        <ele>278</ele>
        <time>2019-09-04T16:34:26Z</time>
      </trkpt>
      <trkpt lat="43.08339" lon="1.36176">
        <ele>278.14</ele>
        <time>2019-09-04T16:34:45Z</time>
      </trkpt>
      <trkpt lat="43.08339" lon="1.36156">
        <ele>278.62</ele>
        <time>2019-09-04T16:34:55Z</time>
      </trkpt>
      <trkpt lat="43.08337" lon="1.36134">
        <ele>279.35</ele>
        <time>2019-09-04T16:35:03Z</time>
      </trkpt>
      <trkpt lat="43.08337" lon="1.36132">
        <ele>279.43</ele>
        <time>2019-09-04T16:35:15Z</time>
      </trkpt>
      <trkpt lat="43.08333" lon="1.36121">
        <ele>279.23</ele>
        <time>2019-09-04T16:35:18Z</time>
      </trkpt>
      <trkpt lat="43.08321" lon="1.3609">
        <ele>279.62</ele>
      </trkpt>
      <trkpt lat="43.08313" lon="1.36084">
        <ele>280.56</ele>
      </trkpt>
      <trkpt lat="43.08309" lon="1.36083">
        <ele>281.05</ele>
      </trkpt>
      <trkpt lat="43.08287" lon="1.36099">
        <ele>281.5</ele>
      </trkpt>
      <trkpt lat="43.08265" lon="1.36091">
        <ele>281.09</ele>
      </trkpt>
      <trkpt lat="43.0826" lon="1.36089">
        <ele>281</ele>
      </trkpt>
      <trkpt lat="43.08239" lon="1.36082">
        <ele>280.92</ele>
      </trkpt>
      <trkpt lat="43.08219" lon="1.36076">
        <ele>280.96</ele>
      </trkpt>
      <trkpt lat="43.08196" lon="1.3607">
        <ele>281.07</ele>
      </trkpt>
      <trkpt lat="43.08186" lon="1.36065">
        <ele>281.35</ele>
      </trkpt>
      <trkpt lat="43.08177" lon="1.36063">
        <ele>280.65</ele>
      </trkpt>
      <trkpt lat="43.08171" lon="1.36063">
        <ele>280.31</ele>
      </trkpt>
      <trkpt lat="43.08171" lon="1.36063">
        <ele>280.51</ele>
      </trkpt>
    </trkseg>
  </trk>
</gpx>